Wetterdaten: Donnerstag, 16.02.2023
Datum Zeit Temp. 2m Temp +5 cm Feuchte A. Luftdruck Regen Wind Richtung Richtung Sonnenschein UV Solar Taupunkt Windchill Windben
16.02.2023 00:00 1,8 C -1,1 C 86 % 1028,5 hPa 0,0 l/m 0,0 km/h (0 Bft) N 0 0 min 0,0 UV-I 0 W/m -0,3 C 1,8 C 0,0 km/h (0 Bft)
16.02.2023 00:01 1,8 C -1,1 C 86 % 1028,6 hPa 0,0 l/m 1,6 km/h (1 Bft) SW 225 0 min 0,0 UV-I 0 W/m -0,3 C 1,8 C 4,8 km/h (1 Bft)
16.02.2023 00:02 1,9 C -1,1 C 86 % 1028,5 hPa 0,0 l/m 3,2 km/h (1 Bft) SW 225 0 min 0,0 UV-I 0 W/m -0,2 C 1,9 C 4,8 km/h (1 Bft)
16.02.2023 00:03 1,9 C -1,1 C 86 % 1028,4 hPa 0,0 l/m 3,2 km/h (1 Bft) SW 225 0 min 0,0 UV-I 0 W/m -0,2 C 1,9 C 4,8 km/h (1 Bft)
16.02.2023 00:04 1,9 C -0,6 C 86 % 1028,5 hPa 0,0 l/m 1,6 km/h (1 Bft) SW 225 0 min 0,0 UV-I 0 W/m -0,2 C 1,9 C 3,2 km/h (1 Bft)
16.02.2023 00:05 1,9 C -0,6 C 86 % 1028,4 hPa 0,0 l/m 3,2 km/h (1 Bft) SW 225 0 min 0,0 UV-I 0 W/m -0,2 C 1,9 C 4,8 km/h (1 Bft)
16.02.2023 00:06 1,9 C -0,6 C 86 % 1028,5 hPa 0,0 l/m 3,2 km/h (1 Bft) S-SW 202 0 min 0,0 UV-I 0 W/m -0,2 C 1,9 C 6,4 km/h (2 Bft)
16.02.2023 00:07 2,1 C -0,6 C 86 % 1028,5 hPa 0,0 l/m 4,8 km/h (1 Bft) S 180 0 min 0,0 UV-I 0 W/m 0,0 C 2,1 C 8,0 km/h (2 Bft)
16.02.2023 00:08 2,2 C 0,0 C 86 % 1028,4 hPa 0,0 l/m 4,8 km/h (1 Bft) S-SO 157 0 min 0,0 UV-I 0 W/m 0,1 C 2,2 C 8,0 km/h (2 Bft)
16.02.2023 00:09 2,3 C 0,0 C 86 % 1028,4 hPa 0,0 l/m 4,8 km/h (1 Bft) S-SO 157 0 min 0,0 UV-I 0 W/m 0,2 C 2,3 C 8,0 km/h (2 Bft)
16.02.2023 00:10 2,3 C 0,0 C 86 % 1028,4 hPa 0,0 l/m 3,2 km/h (1 Bft) S-SO 157 0 min 0,0 UV-I 0 W/m 0,2 C 2,3 C 6,4 km/h (2 Bft)
16.02.2023 00:11 2,3 C 0,0 C 85 % 1028,5 hPa 0,0 l/m 3,2 km/h (1 Bft) S-SO 157 0 min 0,0 UV-I 0 W/m 0,0 C 2,3 C 6,4 km/h (2 Bft)
16.02.2023 00:12 2,3 C 0,0 C 85 % 1028,5 hPa 0,0 l/m 1,6 km/h (1 Bft) S-SO 157 0 min 0,0 UV-I 0 W/m 0,0 C 2,3 C 3,2 km/h (1 Bft)
16.02.2023 00:13 2,4 C -0,6 C 85 % 1028,4 hPa 0,0 l/m 1,6 km/h (1 Bft) S-SO 157 0 min 0,0 UV-I 0 W/m 0,1 C 2,4 C 3,2 km/h (1 Bft)
16.02.2023 00:14 2,4 C 0,0 C 85 % 1028,4 hPa 0,0 l/m 1,6 km/h (1 Bft) S-SO 157 0 min 0,0 UV-I 0 W/m 0,1 C 2,4 C 3,2 km/h (1 Bft)
16.02.2023 00:15 2,4 C 0,0 C 85 % 1028,5 hPa 0,0 l/m 3,2 km/h (1 Bft) S-SO 157 0 min 0,0 UV-I 0 W/m 0,1 C 2,4 C 8,0 km/h (2 Bft)
16.02.2023 00:16 2,5 C 0,0 C 85 % 1028,5 hPa 0,0 l/m 3,2 km/h (1 Bft) S 180 0 min 0,0 UV-I 0 W/m 0,2 C 2,5 C 6,4 km/h (2 Bft)
16.02.2023 00:17 2,5 C 0,0 C 85 % 1028,4 hPa 0,0 l/m 3,2 km/h (1 Bft) S 180 0 min 0,0 UV-I 0 W/m 0,2 C 2,5 C 6,4 km/h (2 Bft)
16.02.2023 00:18 2,6 C 0,0 C 85 % 1028,4 hPa 0,0 l/m 6,4 km/h (2 Bft) S 180 0 min 0,0 UV-I 0 W/m 0,3 C 2,6 C 9,7 km/h (2 Bft)
16.02.2023 00:19 2,7 C 0,0 C 85 % 1028,4 hPa 0,0 l/m 4,8 km/h (1 Bft) S 180 0 min 0,0 UV-I 0 W/m 0,4 C 2,7 C 9,7 km/h (2 Bft)
16.02.2023 00:20 2,7 C 0,0 C 84 % 1028,4 hPa 0,0 l/m 3,2 km/h (1 Bft) S-SW 202 0 min 0,0 UV-I 0 W/m 0,3 C 2,7 C 4,8 km/h (1 Bft)
16.02.2023 00:21 2,7 C 0,0 C 84 % 1028,3 hPa 0,0 l/m 1,6 km/h (1 Bft) S 180 0 min 0,0 UV-I 0 W/m 0,3 C 2,7 C 4,8 km/h (1 Bft)
16.02.2023 00:22 2,7 C 0,0 C 84 % 1028,4 hPa 0,0 l/m 3,2 km/h (1 Bft) S 180 0 min 0,0 UV-I 0 W/m 0,3 C 2,7 C 4,8 km/h (1 Bft)
16.02.2023 00:23 2,8 C 0,0 C 84 % 1028,4 hPa 0,0 l/m 3,2 km/h (1 Bft) S 180 0 min 0,0 UV-I 0 W/m 0,4 C 2,8 C 4,8 km/h (1 Bft)
16.02.2023 00:24 2,8 C 0,0 C 84 % 1028,5 hPa 0,0 l/m 3,2 km/h (1 Bft) S 180 0 min 0,0 UV-I 0 W/m 0,4 C 2,8 C 4,8 km/h (1 Bft)
16.02.2023 00:25 2,8 C 0,0 C 84 % 1028,5 hPa 0,0 l/m 3,2 km/h (1 Bft) S 180 0 min 0,0 UV-I 0 W/m 0,4 C 2,8 C 4,8 km/h (1 Bft)
16.02.2023 00:26 2,8 C 0,0 C 84 % 1028,5 hPa 0,0 l/m 4,8 km/h (1 Bft) S-SW 202 0 min 0,0 UV-I 0 W/m 0,4 C 2,8 C 6,4 km/h (2 Bft)
16.02.2023 00:27 2,9 C 0,0 C 84 % 1028,5 hPa 0,0 l/m 3,2 km/h (1 Bft) S-SW 202 0 min 0,0 UV-I 0 W/m 0,5 C 2,9 C 8,0 km/h (2 Bft)
16.02.2023 00:28 2,9 C 0,0 C 84 % 1028,5 hPa 0,0 l/m 4,8 km/h (1 Bft) S-SW 202 0 min 0,0 UV-I 0 W/m 0,5 C 2,9 C 9,7 km/h (2 Bft)
16.02.2023 00:29 3,1 C 0,6 C 84 % 1028,6 hPa 0,0 l/m 4,8 km/h (1 Bft) S-SW 202 0 min 0,0 UV-I 0 W/m 0,7 C 3,1 C 8,0 km/h (2 Bft)
16.02.2023 00:30 3,1 C 0,6 C 84 % 1028,5 hPa 0,0 l/m 4,8 km/h (1 Bft) S-SW 202 0 min 0,0 UV-I 0 W/m 0,7 C 3,1 C 6,4 km/h (2 Bft)
16.02.2023 00:31 3,1 C 0,6 C 83 % 1028,6 hPa 0,0 l/m 4,8 km/h (1 Bft) S-SW 202 0 min 0,0 UV-I 0 W/m 0,5 C 3,1 C 6,4 km/h (2 Bft)
16.02.2023 00:32 3,1 C 0,6 C 83 % 1028,6 hPa 0,0 l/m 4,8 km/h (1 Bft) S-SW 202 0 min 0,0 UV-I 0 W/m 0,5 C 3,1 C 8,0 km/h (2 Bft)
16.02.2023 00:33 3,2 C 0,6 C 83 % 1028,5 hPa 0,0 l/m 3,2 km/h (1 Bft) S-SW 202 0 min 0,0 UV-I 0 W/m 0,6 C 3,2 C 4,8 km/h (1 Bft)
16.02.2023 00:34 3,2 C 0,6 C 83 % 1028,5 hPa 0,0 l/m 3,2 km/h (1 Bft) S-SW 202 0 min 0,0 UV-I 0 W/m 0,6 C 3,2 C 6,4 km/h (2 Bft)
16.02.2023 00:35 3,2 C 0,6 C 83 % 1028,5 hPa 0,0 l/m 3,2 km/h (1 Bft) S-SW 202 0 min 0,0 UV-I 0 W/m 0,6 C 3,2 C 4,8 km/h (1 Bft)
16.02.2023 00:36 3,2 C 0,6 C 83 % 1028,5 hPa 0,0 l/m 6,4 km/h (2 Bft) S-SW 202 0 min 0,0 UV-I 0 W/m 0,6 C 3,2 C 11,3 km/h (2 Bft)
16.02.2023 00:37 3,3 C 0,6 C 83 % 1028,5 hPa 0,0 l/m 6,4 km/h (2 Bft) S-SW 202 0 min 0,0 UV-I 0 W/m 0,7 C 3,3 C 9,7 km/h (2 Bft)
16.02.2023 00:38 3,3 C 1,1 C 83 % 1028,5 hPa 0,0 l/m 6,4 km/h (2 Bft) S 180 0 min 0,0 UV-I 0 W/m 0,7 C 3,3 C 12,9 km/h (3 Bft)
16.02.2023 00:39 3,4 C 1,1 C 83 % 1028,5 hPa 0,0 l/m 3,2 km/h (1 Bft) S 180 0 min 0,0 UV-I 0 W/m 0,8 C 3,4 C 4,8 km/h (1 Bft)
16.02.2023 00:40 3,4 C 1,1 C 83 % 1028,5 hPa 0,0 l/m 3,2 km/h (1 Bft) S 180 0 min 0,0 UV-I 0 W/m 0,8 C 3,4 C 4,8 km/h (1 Bft)
16.02.2023 00:41 3,4 C 1,1 C 83 % 1028,5 hPa 0,0 l/m 4,8 km/h (1 Bft) S 180 0 min 0,0 UV-I 0 W/m 0,8 C 3,4 C 8,0 km/h (2 Bft)
16.02.2023 00:42 3,4 C 0,6 C 83 % 1028,5 hPa 0,0 l/m 3,2 km/h (1 Bft) S 180 0 min 0,0 UV-I 0 W/m 0,8 C 3,4 C 4,8 km/h (1 Bft)
16.02.2023 00:43 3,3 C 1,1 C 82 % 1028,5 hPa 0,0 l/m 3,2 km/h (1 Bft) S 180 0 min 0,0 UV-I 0 W/m 0,5 C 3,3 C 6,4 km/h (2 Bft)
16.02.2023 00:44 3,2 C 0,6 C 82 % 1028,4 hPa 0,0 l/m 3,2 km/h (1 Bft) S 180 0 min 0,0 UV-I 0 W/m 0,4 C 3,2 C 4,8 km/h (1 Bft)
16.02.2023 00:45 3,2 C 0,6 C 82 % 1028,4 hPa 0,0 l/m 3,2 km/h (1 Bft) S 180 0 min 0,0 UV-I 0 W/m 0,4 C 3,2 C 4,8 km/h (1 Bft)
16.02.2023 00:46 3,2 C 0,6 C 82 % 1028,5 hPa 0,0 l/m 3,2 km/h (1 Bft) S 180 0 min 0,0 UV-I 0 W/m 0,4 C 3,2 C 4,8 km/h (1 Bft)
16.02.2023 00:47 3,1 C 0,6 C 83 % 1028,5 hPa 0,0 l/m 6,4 km/h (2 Bft) S-SW 202 0 min 0,0 UV-I 0 W/m 0,5 C 3,1 C 8,0 km/h (2 Bft)
16.02.2023 00:48 3,1 C 0,6 C 83 % 1028,4 hPa 0,0 l/m 4,8 km/h (1 Bft) S-SW 202 0 min 0,0 UV-I 0 W/m 0,5 C 3,1 C 6,4 km/h (2 Bft)
16.02.2023 00:49 3,0 C 0,6 C 83 % 1028,5 hPa 0,0 l/m 6,4 km/h (2 Bft) SW 225 0 min 0,0 UV-I 0 W/m 0,4 C 3,0 C 8,0 km/h (2 Bft)
16.02.2023 00:50 3,0 C 0,6 C 83 % 1028,5 hPa 0,0 l/m 6,4 km/h (2 Bft) S-SW 202 0 min 0,0 UV-I 0 W/m 0,4 C 3,0 C 9,7 km/h (2 Bft)
16.02.2023 00:51 2,9 C 0,6 C 83 % 1028,5 hPa 0,0 l/m 4,8 km/h (1 Bft) S-SW 202 0 min 0,0 UV-I 0 W/m 0,3 C 2,9 C 8,0 km/h (2 Bft)
16.02.2023 00:52 2,9 C 0,6 C 83 % 1028,6 hPa 0,0 l/m 4,8 km/h (1 Bft) S-SW 202 0 min 0,0 UV-I 0 W/m 0,3 C 2,9 C 8,0 km/h (2 Bft)
16.02.2023 00:53 2,9 C 0,6 C 83 % 1028,6 hPa 0,0 l/m 6,4 km/h (2 Bft) S-SW 202 0 min 0,0 UV-I 0 W/m 0,3 C 2,9 C 9,7 km/h (2 Bft)
16.02.2023 00:54 2,9 C 0,6 C 83 % 1028,5 hPa 0,0 l/m 6,4 km/h (2 Bft) S-SW 202 0 min 0,0 UV-I 0 W/m 0,3 C 2,9 C 9,7 km/h (2 Bft)
16.02.2023 00:55 3,0 C 0,6 C 83 % 1028,6 hPa 0,0 l/m 4,8 km/h (1 Bft) SW 225 0 min 0,0 UV-I 0 W/m 0,4 C 3,0 C 8,0 km/h (2 Bft)
16.02.2023 00:56 2,9 C 1,1 C 83 % 1028,5 hPa 0,0 l/m 4,8 km/h (1 Bft) SW 225 0 min 0,0 UV-I 0 W/m 0,3 C 2,9 C 6,4 km/h (2 Bft)
16.02.2023 00:57 2,9 C 0,6 C 83 % 1028,6 hPa 0,0 l/m 4,8 km/h (1 Bft) SW 225 0 min 0,0 UV-I 0 W/m 0,3 C 2,9 C 8,0 km/h (2 Bft)
16.02.2023 00:58 2,8 C 0,6 C 83 % 1028,6 hPa 0,0 l/m 6,4 km/h (2 Bft) S-SW 202 0 min 0,0 UV-I 0 W/m 0,2 C 2,8 C 8,0 km/h (2 Bft)
16.02.2023 00:59 2,8 C 0,6 C 83 % 1028,6 hPa 0,0 l/m 4,8 km/h (1 Bft) S-SW 202 0 min 0,0 UV-I 0 W/m 0,2 C 2,8 C 6,4 km/h (2 Bft)
16.02.2023 01:00 2,8 C 0,6 C 83 % 1028,5 hPa 0,0 l/m 4,8 km/h (1 Bft) S-SW 202 0 min 0,0 UV-I 0 W/m 0,2 C 2,8 C 8,0 km/h (2 Bft)
16.02.2023 01:01 2,8 C 0,6 C 83 % 1028,6 hPa 0,0 l/m 4,8 km/h (1 Bft) S-SW 202 0 min 0,0 UV-I 0 W/m 0,2 C 2,8 C 8,0 km/h (2 Bft)
16.02.2023 01:02 2,7 C 0,6 C 83 % 1028,5 hPa 0,0 l/m 3,2 km/h (1 Bft) S-SW 202 0 min 0,0 UV-I 0 W/m 0,1 C 2,7 C 6,4 km/h (2 Bft)
16.02.2023 01:03 2,7 C 0,6 C 83 % 1028,5 hPa 0,0 l/m 4,8 km/h (1 Bft) S-SW 202 0 min 0,0 UV-I 0 W/m 0,1 C 2,7 C 6,4 km/h (2 Bft)
16.02.2023 01:04 2,6 C 0,6 C 83 % 1028,6 hPa 0,0 l/m 3,2 km/h (1 Bft) S-SW 202 0 min 0,0 UV-I 0 W/m 0,0 C 2,6 C 4,8 km/h (1 Bft)
16.02.2023 01:05 2,7 C 0,6 C 84 % 1028,6 hPa 0,0 l/m 3,2 km/h (1 Bft) S-SW 202 0 min 0,0 UV-I 0 W/m 0,3 C 2,7 C 4,8 km/h (1 Bft)
16.02.2023 01:06 2,7 C 0,6 C 84 % 1028,6 hPa 0,0 l/m 3,2 km/h (1 Bft) S-SW 202 0 min 0,0 UV-I 0 W/m 0,3 C 2,7 C 4,8 km/h (1 Bft)
16.02.2023 01:07 2,7 C 0,6 C 84 % 1028,6 hPa 0,0 l/m 3,2 km/h (1 Bft) S-SW 202 0 min 0,0 UV-I 0 W/m 0,3 C 2,7 C 6,4 km/h (2 Bft)
16.02.2023 01:08 2,7 C 0,0 C 84 % 1028,5 hPa 0,0 l/m 3,2 km/h (1 Bft) S-SW 202 0 min 0,0 UV-I 0 W/m 0,3 C 2,7 C 6,4 km/h (2 Bft)
16.02.2023 01:09 2,7 C 0,0 C 84 % 1028,5 hPa 0,0 l/m 3,2 km/h (1 Bft) S-SW 202 0 min 0,0 UV-I 0 W/m 0,3 C 2,7 C 4,8 km/h (1 Bft)
16.02.2023 01:10 2,6 C 0,0 C 84 % 1028,5 hPa 0,0 l/m 3,2 km/h (1 Bft) S-SW 202 0 min 0,0 UV-I 0 W/m 0,2 C 2,6 C 3,2 km/h (1 Bft)
16.02.2023 01:11 2,6 C 0,0 C 84 % 1028,5 hPa 0,0 l/m 3,2 km/h (1 Bft) S-SW 202 0 min 0,0 UV-I 0 W/m 0,2 C 2,6 C 4,8 km/h (1 Bft)
16.02.2023 01:12 2,6 C 0,0 C 84 % 1028,6 hPa 0,0 l/m 3,2 km/h (1 Bft) S-SW 202 0 min 0,0 UV-I 0 W/m 0,2 C 2,6 C 4,8 km/h (1 Bft)
16.02.2023 01:13 2,6 C 0,0 C 84 % 1028,5 hPa 0,0 l/m 3,2 km/h (1 Bft) S-SW 202 0 min 0,0 UV-I 0 W/m 0,2 C 2,6 C 4,8 km/h (1 Bft)
16.02.2023 01:14 2,6 C 0,0 C 84 % 1028,6 hPa 0,0 l/m 3,2 km/h (1 Bft) S-SW 202 0 min 0,0 UV-I 0 W/m 0,2 C 2,6 C 4,8 km/h (1 Bft)
16.02.2023 01:15 2,6 C 0,0 C 84 % 1028,6 hPa 0,0 l/m 1,6 km/h (1 Bft) S-SW 202 0 min 0,0 UV-I 0 W/m 0,2 C 2,6 C 3,2 km/h (1 Bft)
16.02.2023 01:16 2,6 C 0,0 C 84 % 1028,5 hPa 0,0 l/m 1,6 km/h (1 Bft) S-SW 202 0 min 0,0 UV-I 0 W/m 0,2 C 2,6 C 3,2 km/h (1 Bft)
16.02.2023 01:17 2,6 C 0,0 C 84 % 1028,5 hPa 0,0 l/m 1,6 km/h (1 Bft) S-SW 202 0 min 0,0 UV-I 0 W/m 0,2 C 2,6 C 3,2 km/h (1 Bft)
16.02.2023 01:18 2,7 C 0,6 C 84 % 1028,6 hPa 0,0 l/m 1,6 km/h (1 Bft) S-SW 202 0 min 0,0 UV-I 0 W/m 0,3 C 2,7 C 3,2 km/h (1 Bft)
16.02.2023 01:19 2,7 C 0,6 C 84 % 1028,5 hPa 0,0 l/m 1,6 km/h (1 Bft) S-SW 202 0 min 0,0 UV-I 0 W/m 0,3 C 2,7 C 3,2 km/h (1 Bft)
16.02.2023 01:20 2,7 C 0,6 C 84 % 1028,6 hPa 0,0 l/m 1,6 km/h (1 Bft) S-SW 202 0 min 0,0 UV-I 0 W/m 0,3 C 2,7 C 3,2 km/h (1 Bft)
16.02.2023 01:21 2,7 C 0,6 C 85 % 1028,5 hPa 0,0 l/m 3,2 km/h (1 Bft) S-SW 202 0 min 0,0 UV-I 0 W/m 0,4 C 2,7 C 3,2 km/h (1 Bft)
16.02.2023 01:22 2,7 C 0,6 C 84 % 1028,5 hPa 0,0 l/m 1,6 km/h (1 Bft) S-SW 202 0 min 0,0 UV-I 0 W/m 0,3 C 2,7 C 1,6 km/h (1 Bft)
16.02.2023 01:23 2,7 C 0,6 C 84 % 1028,4 hPa 0,0 l/m 1,6 km/h (1 Bft) S-SW 202 0 min 0,0 UV-I 0 W/m 0,3 C 2,7 C 3,2 km/h (1 Bft)
16.02.2023 01:24 2,7 C 0,6 C 84 % 1028,5 hPa 0,0 l/m 3,2 km/h (1 Bft) S-SW 202 0 min 0,0 UV-I 0 W/m 0,3 C 2,7 C 3,2 km/h (1 Bft)
16.02.2023 01:25 2,7 C 0,0 C 84 % 1028,5 hPa 0,0 l/m 3,2 km/h (1 Bft) S-SW 202 0 min 0,0 UV-I 0 W/m 0,3 C 2,7 C 3,2 km/h (1 Bft)
16.02.2023 01:26 2,7 C 0,6 C 85 % 1028,6 hPa 0,0 l/m 3,2 km/h (1 Bft) S-SW 202 0 min 0,0 UV-I 0 W/m 0,4 C 2,7 C 3,2 km/h (1 Bft)
16.02.2023 01:27 2,7 C 0,6 C 84 % 1028,5 hPa 0,0 l/m 3,2 km/h (1 Bft) S-SW 202 0 min 0,0 UV-I 0 W/m 0,3 C 2,7 C 4,8 km/h (1 Bft)
16.02.2023 01:28 2,7 C 0,6 C 84 % 1028,5 hPa 0,0 l/m 4,8 km/h (1 Bft) S-SW 202 0 min 0,0 UV-I 0 W/m 0,3 C 2,7 C 6,4 km/h (2 Bft)
16.02.2023 01:29 2,6 C 0,6 C 84 % 1028,4 hPa 0,0 l/m 3,2 km/h (1 Bft) SW 225 0 min 0,0 UV-I 0 W/m 0,2 C 2,6 C 3,2 km/h (1 Bft)
16.02.2023 01:30 2,6 C 0,6 C 84 % 1028,5 hPa 0,0 l/m 3,2 km/h (1 Bft) SW 225 0 min 0,0 UV-I 0 W/m 0,2 C 2,6 C 4,8 km/h (1 Bft)
16.02.2023 01:31 2,5 C 0,0 C 84 % 1028,4 hPa 0,0 l/m 3,2 km/h (1 Bft) SW 225 0 min 0,0 UV-I 0 W/m 0,1 C 2,5 C 4,8 km/h (1 Bft)
16.02.2023 01:32 2,4 C 0,6 C 84 % 1028,4 hPa 0,0 l/m 3,2 km/h (1 Bft) SW 225 0 min 0,0 UV-I 0 W/m -0,0 C 2,4 C 3,2 km/h (1 Bft)
16.02.2023 01:33 2,4 C 0,0 C 84 % 1028,5 hPa 0,0 l/m 3,2 km/h (1 Bft) SW 225 0 min 0,0 UV-I 0 W/m -0,0 C 2,4 C 6,4 km/h (2 Bft)
16.02.2023 01:34 2,4 C 0,0 C 84 % 1028,4 hPa 0,0 l/m 4,8 km/h (1 Bft) SW 225 0 min 0,0 UV-I 0 W/m -0,0 C 2,4 C 4,8 km/h (1 Bft)
16.02.2023 01:35 2,3 C 0,0 C 84 % 1028,5 hPa 0,0 l/m 3,2 km/h (1 Bft) SW 225 0 min 0,0 UV-I 0 W/m -0,1 C 2,3 C 4,8 km/h (1 Bft)
16.02.2023 01:36 2,3 C 0,0 C 84 % 1028,5 hPa 0,0 l/m 4,8 km/h (1 Bft) SW 225 0 min 0,0 UV-I 0 W/m -0,1 C 2,3 C 6,4 km/h (2 Bft)
16.02.2023 01:37 2,2 C 0,0 C 84 % 1028,5 hPa 0,0 l/m 3,2 km/h (1 Bft) SW 225 0 min 0,0 UV-I 0 W/m -0,2 C 2,2 C 6,4 km/h (2 Bft)
16.02.2023 01:38 2,2 C 0,0 C 84 % 1028,4 hPa 0,0 l/m 3,2 km/h (1 Bft) SW 225 0 min 0,0 UV-I 0 W/m -0,2 C 2,2 C 6,4 km/h (2 Bft)
16.02.2023 01:39 2,1 C 0,0 C 85 % 1028,5 hPa 0,0 l/m 3,2 km/h (1 Bft) SW 225 0 min 0,0 UV-I 0 W/m -0,2 C 2,1 C 4,8 km/h (1 Bft)
16.02.2023 01:40 2,1 C 0,0 C 85 % 1028,4 hPa 0,0 l/m 3,2 km/h (1 Bft) SW 225 0 min 0,0 UV-I 0 W/m -0,2 C 2,1 C 3,2 km/h (1 Bft)
16.02.2023 01:41 2,0 C 0,0 C 85 % 1028,4 hPa 0,0 l/m 3,2 km/h (1 Bft) SW 225 0 min 0,0 UV-I 0 W/m -0,3 C 2,0 C 4,8 km/h (1 Bft)
16.02.2023 01:42 1,9 C 0,0 C 85 % 1028,4 hPa 0,0 l/m 4,8 km/h (1 Bft) SW 225 0 min 0,0 UV-I 0 W/m -0,3 C 1,9 C 4,8 km/h (1 Bft)
16.02.2023 01:43 1,8 C -0,6 C 84 % 1028,4 hPa 0,0 l/m 3,2 km/h (1 Bft) SW 225 0 min 0,0 UV-I 0 W/m -0,6 C 1,8 C 4,8 km/h (1 Bft)
16.02.2023 01:44 1,7 C -0,6 C 85 % 1028,4 hPa 0,0 l/m 3,2 km/h (1 Bft) SW 225 0 min 0,0 UV-I 0 W/m -0,5 C 1,7 C 4,8 km/h (1 Bft)
16.02.2023 01:45 1,6 C -0,6 C 85 % 1028,4 hPa 0,0 l/m 3,2 km/h (1 Bft) SW 225 0 min 0,0 UV-I 0 W/m -0,6 C 1,6 C 4,8 km/h (1 Bft)
16.02.2023 01:46 1,6 C -0,6 C 85 % 1028,5 hPa 0,0 l/m 3,2 km/h (1 Bft) SW 225 0 min 0,0 UV-I 0 W/m -0,6 C 1,6 C 4,8 km/h (1 Bft)
16.02.2023 01:47 1,5 C -0,6 C 85 % 1028,5 hPa 0,0 l/m 3,2 km/h (1 Bft) SW 225 0 min 0,0 UV-I 0 W/m -0,7 C 1,5 C 4,8 km/h (1 Bft)
16.02.2023 01:48 1,5 C -0,6 C 85 % 1028,5 hPa 0,0 l/m 3,2 km/h (1 Bft) SW 225 0 min 0,0 UV-I 0 W/m -0,7 C 1,5 C 3,2 km/h (1 Bft)
16.02.2023 01:49 1,4 C -0,6 C 86 % 1028,4 hPa 0,0 l/m 3,2 km/h (1 Bft) SW 225 0 min 0,0 UV-I 0 W/m -0,7 C 1,4 C 4,8 km/h (1 Bft)
16.02.2023 01:50 1,4 C -0,6 C 86 % 1028,5 hPa 0,0 l/m 3,2 km/h (1 Bft) SW 225 0 min 0,0 UV-I 0 W/m -0,7 C 1,4 C 4,8 km/h (1 Bft)
16.02.2023 01:51 1,3 C -0,6 C 86 % 1028,5 hPa 0,0 l/m 3,2 km/h (1 Bft) SW 225 0 min 0,0 UV-I 0 W/m -0,8 C 1,3 C 4,8 km/h (1 Bft)
16.02.2023 01:52 1,3 C -1,1 C 86 % 1028,5 hPa 0,0 l/m 3,2 km/h (1 Bft) SW 225 0 min 0,0 UV-I 0 W/m -0,8 C 1,3 C 3,2 km/h (1 Bft)
16.02.2023 01:53 1,3 C -1,1 C 86 % 1028,5 hPa 0,0 l/m 1,6 km/h (1 Bft) SW 225 0 min 0,0 UV-I 0 W/m -0,8 C 1,3 C 3,2 km/h (1 Bft)
16.02.2023 01:54 1,3 C -1,1 C 86 % 1028,5 hPa 0,0 l/m 1,6 km/h (1 Bft) SW 225 0 min 0,0 UV-I 0 W/m -0,8 C 1,3 C 3,2 km/h (1 Bft)
16.02.2023 01:55 1,3 C -1,1 C 86 % 1028,5 hPa 0,0 l/m 3,2 km/h (1 Bft) SW 225 0 min 0,0 UV-I 0 W/m -0,8 C 1,3 C 4,8 km/h (1 Bft)
16.02.2023 01:56 1,2 C -1,1 C 86 % 1028,5 hPa 0,0 l/m 1,6 km/h (1 Bft) SW 225 0 min 0,0 UV-I 0 W/m -0,9 C 1,2 C 3,2 km/h (1 Bft)
16.02.2023 01:57 1,2 C -1,1 C 86 % 1028,5 hPa 0,0 l/m 3,2 km/h (1 Bft) SW 225 0 min 0,0 UV-I 0 W/m -0,9 C 1,2 C 3,2 km/h (1 Bft)
16.02.2023 01:58 1,2 C -1,1 C 86 % 1028,5 hPa 0,0 l/m 3,2 km/h (1 Bft) SW 225 0 min 0,0 UV-I 0 W/m -0,9 C 1,2 C 3,2 km/h (1 Bft)
16.02.2023 01:59 1,2 C -1,1 C 86 % 1028,5 hPa 0,0 l/m 3,2 km/h (1 Bft) SW 225 0 min 0,0 UV-I 0 W/m -0,9 C 1,2 C 4,8 km/h (1 Bft)
16.02.2023 02:00 1,2 C -1,1 C 87 % 1028,4 hPa 0,0 l/m 3,2 km/h (1 Bft) SW 225 0 min 0,0 UV-I 0 W/m -0,7 C 1,2 C 4,8 km/h (1 Bft)
16.02.2023 02:01 1,1 C -1,1 C 87 % 1028,5 hPa 0,0 l/m 3,2 km/h (1 Bft) SW 225 0 min 0,0 UV-I 0 W/m -0,8 C 1,1 C 3,2 km/h (1 Bft)
16.02.2023 02:02 1,1 C -1,1 C 87 % 1028,5 hPa 0,0 l/m 1,6 km/h (1 Bft) SW 225 0 min 0,0 UV-I 0 W/m -0,8 C 1,1 C 3,2 km/h (1 Bft)
16.02.2023 02:03 1,1 C -1,1 C 87 % 1028,4 hPa 0,0 l/m 3,2 km/h (1 Bft) SW 225 0 min 0,0 UV-I 0 W/m -0,8 C 1,1 C 4,8 km/h (1 Bft)
16.02.2023 02:04 1,1 C -1,1 C 87 % 1028,4 hPa 0,0 l/m 4,8 km/h (1 Bft) SW 225 0 min 0,0 UV-I 0 W/m -0,8 C 1,1 C 6,4 km/h (2 Bft)
16.02.2023 02:05 1,2 C -1,1 C 87 % 1028,4 hPa 0,0 l/m 3,2 km/h (1 Bft) SW 225 0 min 0,0 UV-I 0 W/m -0,7 C 1,2 C 3,2 km/h (1 Bft)
16.02.2023 02:06 1,2 C -1,1 C 87 % 1028,4 hPa 0,0 l/m 3,2 km/h (1 Bft) SW 225 0 min 0,0 UV-I 0 W/m -0,7 C 1,2 C 3,2 km/h (1 Bft)
16.02.2023 02:07 1,2 C -1,7 C 87 % 1028,4 hPa 0,0 l/m 3,2 km/h (1 Bft) SW 225 0 min 0,0 UV-I 0 W/m -0,7 C 1,2 C 4,8 km/h (1 Bft)
16.02.2023 02:08 1,2 C -1,7 C 87 % 1028,4 hPa 0,0 l/m 3,2 km/h (1 Bft) SW 225 0 min 0,0 UV-I 0 W/m -0,7 C 1,2 C 3,2 km/h (1 Bft)
16.02.2023 02:09 1,2 C -1,7 C 87 % 1028,4 hPa 0,0 l/m 3,2 km/h (1 Bft) SW 225 0 min 0,0 UV-I 0 W/m -0,7 C 1,2 C 4,8 km/h (1 Bft)
16.02.2023 02:10 1,3 C -1,7 C 87 % 1028,3 hPa 0,0 l/m 3,2 km/h (1 Bft) SW 225 0 min 0,0 UV-I 0 W/m -0,6 C 1,3 C 4,8 km/h (1 Bft)
16.02.2023 02:11 1,3 C -1,1 C 87 % 1028,3 hPa 0,0 l/m 3,2 km/h (1 Bft) SW 225 0 min 0,0 UV-I 0 W/m -0,6 C 1,3 C 4,8 km/h (1 Bft)
16.02.2023 02:12 1,3 C -1,1 C 87 % 1028,3 hPa 0,0 l/m 3,2 km/h (1 Bft) SW 225 0 min 0,0 UV-I 0 W/m -0,6 C 1,3 C 4,8 km/h (1 Bft)
16.02.2023 02:13 1,4 C -1,1 C 88 % 1028,3 hPa 0,0 l/m 3,2 km/h (1 Bft) SW 225 0 min 0,0 UV-I 0 W/m -0,4 C 1,4 C 4,8 km/h (1 Bft)
16.02.2023 02:14 1,4 C -1,1 C 88 % 1028,2 hPa 0,0 l/m 1,6 km/h (1 Bft) SW 225 0 min 0,0 UV-I 0 W/m -0,4 C 1,4 C 3,2 km/h (1 Bft)
16.02.2023 02:15 1,4 C -1,1 C 88 % 1028,3 hPa 0,0 l/m 1,6 km/h (1 Bft) SW 225 0 min 0,0 UV-I 0 W/m -0,4 C 1,4 C 3,2 km/h (1 Bft)
16.02.2023 02:16 1,5 C -1,1 C 88 % 1028,3 hPa 0,0 l/m 1,6 km/h (1 Bft) SW 225 0 min 0,0 UV-I 0 W/m -0,3 C 1,5 C 3,2 km/h (1 Bft)
16.02.2023 02:17 1,6 C -1,7 C 88 % 1028,3 hPa 0,0 l/m 1,6 km/h (1 Bft) SW 225 0 min 0,0 UV-I 0 W/m -0,2 C 1,6 C 3,2 km/h (1 Bft)
16.02.2023 02:18 1,6 C -1,1 C 88 % 1028,2 hPa 0,0 l/m 0,0 km/h (0 Bft) SW 225 0 min 0,0 UV-I 0 W/m -0,2 C 1,6 C 3,2 km/h (1 Bft)
16.02.2023 02:19 1,7 C -1,1 C 88 % 1028,2 hPa 0,0 l/m 1,6 km/h (1 Bft) SW 225 0 min 0,0 UV-I 0 W/m -0,1 C 1,7 C 4,8 km/h (1 Bft)
16.02.2023 02:20 1,7 C -1,1 C 88 % 1028,2 hPa 0,0 l/m 0,0 km/h (0 Bft) SW 225 0 min 0,0 UV-I 0 W/m -0,1 C 1,7 C 1,6 km/h (1 Bft)
16.02.2023 02:21 1,7 C -1,1 C 87 % 1028,2 hPa 0,0 l/m 1,6 km/h (1 Bft) SW 225 0 min 0,0 UV-I 0 W/m -0,2 C 1,7 C 4,8 km/h (1 Bft)
16.02.2023 02:22 1,6 C -1,1 C 87 % 1028,2 hPa 0,0 l/m 1,6 km/h (1 Bft) SW 225 0 min 0,0 UV-I 0 W/m -0,3 C 1,6 C 3,2 km/h (1 Bft)
16.02.2023 02:23 1,7 C -1,1 C 87 % 1028,3 hPa 0,0 l/m 3,2 km/h (1 Bft) SW 225 0 min 0,0 UV-I 0 W/m -0,2 C 1,7 C 8,0 km/h (2 Bft)
16.02.2023 02:24 1,7 C -1,1 C 87 % 1028,2 hPa 0,0 l/m 3,2 km/h (1 Bft) S-SO 157 0 min 0,0 UV-I 0 W/m -0,2 C 1,7 C 8,0 km/h (2 Bft)
16.02.2023 02:25 1,7 C -0,6 C 88 % 1028,3 hPa 0,0 l/m 1,6 km/h (1 Bft) S-SO 157 0 min 0,0 UV-I 0 W/m -0,1 C 1,7 C 3,2 km/h (1 Bft)
16.02.2023 02:26 1,7 C -0,6 C 87 % 1028,2 hPa 0,0 l/m 1,6 km/h (1 Bft) S-SO 157 0 min 0,0 UV-I 0 W/m -0,2 C 1,7 C 4,8 km/h (1 Bft)
16.02.2023 02:27 1,7 C -0,6 C 87 % 1028,2 hPa 0,0 l/m 1,6 km/h (1 Bft) S-SO 157 0 min 0,0 UV-I 0 W/m -0,2 C 1,7 C 3,2 km/h (1 Bft)
16.02.2023 02:28 1,7 C -1,1 C 87 % 1028,2 hPa 0,0 l/m 3,2 km/h (1 Bft) S-SO 157 0 min 0,0 UV-I 0 W/m -0,2 C 1,7 C 4,8 km/h (1 Bft)
16.02.2023 02:29 1,8 C -0,6 C 88 % 1028,2 hPa 0,0 l/m 1,6 km/h (1 Bft) S-SO 157 0 min 0,0 UV-I 0 W/m 0,0 C 1,8 C 3,2 km/h (1 Bft)
16.02.2023 02:30 1,8 C -0,6 C 88 % 1028,3 hPa 0,0 l/m 1,6 km/h (1 Bft) S-SO 157 0 min 0,0 UV-I 0 W/m 0,0 C 1,8 C 3,2 km/h (1 Bft)
16.02.2023 02:31 1,9 C -0,6 C 88 % 1028,2 hPa 0,0 l/m 1,6 km/h (1 Bft) S-SO 157 0 min 0,0 UV-I 0 W/m 0,1 C 1,9 C 4,8 km/h (1 Bft)
16.02.2023 02:32 2,1 C -1,1 C 88 % 1028,2 hPa 0,0 l/m 6,4 km/h (2 Bft) S 180 0 min 0,0 UV-I 0 W/m 0,3 C 2,1 C 8,0 km/h (2 Bft)
16.02.2023 02:33 2,0 C -1,1 C 87 % 1028,2 hPa 0,0 l/m 1,6 km/h (1 Bft) S 180 0 min 0,0 UV-I 0 W/m 0,1 C 2,0 C 6,4 km/h (2 Bft)
16.02.2023 02:34 2,0 C -1,1 C 87 % 1028,2 hPa 0,0 l/m 0,0 km/h (0 Bft) S 180 0 min 0,0 UV-I 0 W/m 0,1 C 2,0 C 1,6 km/h (1 Bft)
16.02.2023 02:35 1,9 C -1,1 C 87 % 1028,3 hPa 0,0 l/m 1,6 km/h (1 Bft) S 180 0 min 0,0 UV-I 0 W/m -0,0 C 1,9 C 1,6 km/h (1 Bft)
16.02.2023 02:36 2,0 C -1,1 C 87 % 1028,1 hPa 0,0 l/m 0,0 km/h (0 Bft) S 180 0 min 0,0 UV-I 0 W/m 0,1 C 2,0 C 1,6 km/h (1 Bft)
16.02.2023 02:37 2,0 C -1,1 C 87 % 1028,2 hPa 0,0 l/m 0,0 km/h (0 Bft) S 180 0 min 0,0 UV-I 0 W/m 0,1 C 2,0 C 3,2 km/h (1 Bft)
16.02.2023 02:38 2,1 C -1,1 C 88 % 1028,2 hPa 0,0 l/m 1,6 km/h (1 Bft) S 180 0 min 0,0 UV-I 0 W/m 0,3 C 2,1 C 1,6 km/h (1 Bft)
16.02.2023 02:39 2,1 C -1,1 C 88 % 1028,1 hPa 0,0 l/m 0,0 km/h (0 Bft) S 180 0 min 0,0 UV-I 0 W/m 0,3 C 2,1 C 1,6 km/h (1 Bft)
16.02.2023 02:40 2,1 C -1,1 C 87 % 1028,1 hPa 0,0 l/m 0,0 km/h (0 Bft) N 0 0 min 0,0 UV-I 0 W/m 0,2 C 2,1 C 0,0 km/h (0 Bft)
16.02.2023 02:41 2,1 C -1,1 C 87 % 1028,1 hPa 0,0 l/m 0,0 km/h (0 Bft) N 0 0 min 0,0 UV-I 0 W/m 0,2 C 2,1 C 0,0 km/h (0 Bft)
16.02.2023 02:42 2,1 C -1,1 C 87 % 1028,0 hPa 0,0 l/m 0,0 km/h (0 Bft) N 0 0 min 0,0 UV-I 0 W/m 0,2 C 2,1 C 0,0 km/h (0 Bft)
16.02.2023 02:43 2,1 C -1,1 C 87 % 1028,0 hPa 0,0 l/m 1,6 km/h (1 Bft) S 180 0 min 0,0 UV-I 0 W/m 0,2 C 2,1 C 6,4 km/h (2 Bft)
16.02.2023 02:44 2,2 C -1,1 C 87 % 1028,1 hPa 0,0 l/m 3,2 km/h (1 Bft) S 180 0 min 0,0 UV-I 0 W/m 0,3 C 2,2 C 6,4 km/h (2 Bft)
16.02.2023 02:45 2,2 C -1,1 C 87 % 1028,0 hPa 0,0 l/m 1,6 km/h (1 Bft) S 180 0 min 0,0 UV-I 0 W/m 0,3 C 2,2 C 3,2 km/h (1 Bft)
16.02.2023 02:46 2,2 C -1,1 C 87 % 1028,1 hPa 0,0 l/m 1,6 km/h (1 Bft) S 180 0 min 0,0 UV-I 0 W/m 0,3 C 2,2 C 3,2 km/h (1 Bft)
16.02.2023 02:47 2,2 C -1,1 C 87 % 1028,1 hPa 0,0 l/m 0,0 km/h (0 Bft) S 180 0 min 0,0 UV-I 0 W/m 0,3 C 2,2 C 3,2 km/h (1 Bft)
16.02.2023 02:48 2,1 C -1,1 C 87 % 1028,0 hPa 0,0 l/m 0,0 km/h (0 Bft) S 180 0 min 0,0 UV-I 0 W/m 0,2 C 2,1 C 1,6 km/h (1 Bft)
16.02.2023 02:49 2,1 C -1,1 C 87 % 1028,1 hPa 0,0 l/m 0,0 km/h (0 Bft) N 0 0 min 0,0 UV-I 0 W/m 0,2 C 2,1 C 0,0 km/h (0 Bft)
16.02.2023 02:50 2,1 C -1,1 C 87 % 1028,0 hPa 0,0 l/m 0,0 km/h (0 Bft) S 180 0 min 0,0 UV-I 0 W/m 0,2 C 2,1 C 1,6 km/h (1 Bft)
16.02.2023 02:51 2,1 C -1,1 C 87 % 1028,0 hPa 0,0 l/m 0,0 km/h (0 Bft) S 180 0 min 0,0 UV-I 0 W/m 0,2 C 2,1 C 1,6 km/h (1 Bft)
16.02.2023 02:52 2,1 C -1,7 C 87 % 1028,1 hPa 0,0 l/m 1,6 km/h (1 Bft) S 180 0 min 0,0 UV-I 0 W/m 0,2 C 2,1 C 3,2 km/h (1 Bft)
16.02.2023 02:53 2,1 C -1,1 C 87 % 1028,1 hPa 0,0 l/m 0,0 km/h (0 Bft) N 0 0 min 0,0 UV-I 0 W/m 0,2 C 2,1 C 0,0 km/h (0 Bft)
16.02.2023 02:54 2,1 C -1,1 C 87 % 1028,0 hPa 0,0 l/m 0,0 km/h (0 Bft) S-SO 157 0 min 0,0 UV-I 0 W/m 0,2 C 2,1 C 6,4 km/h (2 Bft)
16.02.2023 02:55 2,0 C -1,1 C 87 % 1028,0 hPa 0,0 l/m 3,2 km/h (1 Bft) S-SO 157 0 min 0,0 UV-I 0 W/m 0,1 C 2,0 C 8,0 km/h (2 Bft)
16.02.2023 02:56 1,9 C -1,7 C 87 % 1027,9 hPa 0,0 l/m 3,2 km/h (1 Bft) S 180 0 min 0,0 UV-I 0 W/m -0,0 C 1,9 C 6,4 km/h (2 Bft)
16.02.2023 02:57 1,9 C -1,1 C 87 % 1027,9 hPa 0,0 l/m 0,0 km/h (0 Bft) N 0 0 min 0,0 UV-I 0 W/m -0,0 C 1,9 C 0,0 km/h (0 Bft)
16.02.2023 02:58 1,9 C -1,1 C 87 % 1027,9 hPa 0,0 l/m 0,0 km/h (0 Bft) N 0 0 min 0,0 UV-I 0 W/m -0,0 C 1,9 C 0,0 km/h (0 Bft)
16.02.2023 02:59 1,9 C -1,7 C 87 % 1027,9 hPa 0,0 l/m 0,0 km/h (0 Bft) N 0 0 min 0,0 UV-I 0 W/m -0,0 C 1,9 C 0,0 km/h (0 Bft)
16.02.2023 03:00 1,9 C -1,7 C 87 % 1027,9 hPa 0,0 l/m 0,0 km/h (0 Bft) N 0 0 min 0,0 UV-I 0 W/m -0,0 C 1,9 C 0,0 km/h (0 Bft)
16.02.2023 03:01 1,8 C -1,7 C 87 % 1027,9 hPa 0,0 l/m 0,0 km/h (0 Bft) N 0 0 min 0,0 UV-I 0 W/m -0,1 C 1,8 C 0,0 km/h (0 Bft)
16.02.2023 03:02 1,8 C -1,7 C 87 % 1028,0 hPa 0,0 l/m 1,6 km/h (1 Bft) S 180 0 min 0,0 UV-I 0 W/m -0,1 C 1,8 C 3,2 km/h (1 Bft)
16.02.2023 03:03 1,7 C -1,7 C 87 % 1028,1 hPa 0,0 l/m 1,6 km/h (1 Bft) S 180 0 min 0,0 UV-I 0 W/m -0,2 C 1,7 C 3,2 km/h (1 Bft)
16.02.2023 03:04 1,7 C -1,7 C 87 % 1027,9 hPa 0,0 l/m 0,0 km/h (0 Bft) N 0 0 min 0,0 UV-I 0 W/m -0,2 C 1,7 C 0,0 km/h (0 Bft)
16.02.2023 03:05 1,7 C -1,7 C 87 % 1028,0 hPa 0,0 l/m 1,6 km/h (1 Bft) S 180 0 min 0,0 UV-I 0 W/m -0,2 C 1,7 C 3,2 km/h (1 Bft)
16.02.2023 03:06 1,6 C -1,7 C 87 % 1028,0 hPa 0,0 l/m 1,6 km/h (1 Bft) S 180 0 min 0,0 UV-I 0 W/m -0,3 C 1,6 C 3,2 km/h (1 Bft)
16.02.2023 03:07 1,7 C -1,7 C 88 % 1028,0 hPa 0,0 l/m 1,6 km/h (1 Bft) S 180 0 min 0,0 UV-I 0 W/m -0,1 C 1,7 C 3,2 km/h (1 Bft)
16.02.2023 03:08 1,7 C -1,7 C 87 % 1027,9 hPa 0,0 l/m 1,6 km/h (1 Bft) S 180 0 min 0,0 UV-I 0 W/m -0,2 C 1,7 C 3,2 km/h (1 Bft)
16.02.2023 03:09 1,7 C -1,1 C 88 % 1028,0 hPa 0,0 l/m 1,6 km/h (1 Bft) S 180 0 min 0,0 UV-I 0 W/m -0,1 C 1,7 C 3,2 km/h (1 Bft)
16.02.2023 03:10 1,7 C -1,1 C 88 % 1027,9 hPa 0,0 l/m 1,6 km/h (1 Bft) S 180 0 min 0,0 UV-I 0 W/m -0,1 C 1,7 C 3,2 km/h (1 Bft)
16.02.2023 03:11 1,8 C -1,1 C 88 % 1027,9 hPa 0,0 l/m 1,6 km/h (1 Bft) S 180 0 min 0,0 UV-I 0 W/m 0,0 C 1,8 C 3,2 km/h (1 Bft)
16.02.2023 03:12 1,8 C -1,1 C 88 % 1027,9 hPa 0,0 l/m 1,6 km/h (1 Bft) S 180 0 min 0,0 UV-I 0 W/m 0,0 C 1,8 C 1,6 km/h (1 Bft)
16.02.2023 03:13 1,8 C -1,1 C 88 % 1027,9 hPa 0,0 l/m 1,6 km/h (1 Bft) S 180 0 min 0,0 UV-I 0 W/m 0,0 C 1,8 C 3,2 km/h (1 Bft)
16.02.2023 03:14 1,8 C -1,1 C 88 % 1027,8 hPa 0,0 l/m 1,6 km/h (1 Bft) S 180 0 min 0,0 UV-I 0 W/m 0,0 C 1,8 C 6,4 km/h (2 Bft)
16.02.2023 03:15 1,7 C -1,1 C 87 % 1027,9 hPa 0,0 l/m 1,6 km/h (1 Bft) S 180 0 min 0,0 UV-I 0 W/m -0,2 C 1,7 C 3,2 km/h (1 Bft)
16.02.2023 03:16 1,7 C -1,1 C 87 % 1027,9 hPa 0,0 l/m 0,0 km/h (0 Bft) S 180 0 min 0,0 UV-I 0 W/m -0,2 C 1,7 C 1,6 km/h (1 Bft)
16.02.2023 03:17 1,7 C -1,1 C 87 % 1027,9 hPa 0,0 l/m 1,6 km/h (1 Bft) S 180 0 min 0,0 UV-I 0 W/m -0,2 C 1,7 C 3,2 km/h (1 Bft)
16.02.2023 03:18 1,6 C -1,1 C 87 % 1027,8 hPa 0,0 l/m 0,0 km/h (0 Bft) S 180 0 min 0,0 UV-I 0 W/m -0,3 C 1,6 C 1,6 km/h (1 Bft)
16.02.2023 03:19 1,6 C -1,1 C 87 % 1027,8 hPa 0,0 l/m 0,0 km/h (0 Bft) N 0 0 min 0,0 UV-I 0 W/m -0,3 C 1,6 C 0,0 km/h (0 Bft)
16.02.2023 03:20 1,4 C -1,7 C 87 % 1027,8 hPa 0,0 l/m 0,0 km/h (0 Bft) N 0 0 min 0,0 UV-I 0 W/m -0,5 C 1,4 C 0,0 km/h (0 Bft)
16.02.2023 03:21 1,3 C -1,7 C 87 % 1027,8 hPa 0,0 l/m 1,6 km/h (1 Bft) S 180 0 min 0,0 UV-I 0 W/m -0,6 C 1,3 C 1,6 km/h (1 Bft)
16.02.2023 03:22 1,2 C -1,7 C 87 % 1027,8 hPa 0,0 l/m 0,0 km/h (0 Bft) S 180 0 min 0,0 UV-I 0 W/m -0,7 C 1,2 C 1,6 km/h (1 Bft)
16.02.2023 03:23 1,2 C -1,7 C 87 % 1027,7 hPa 0,0 l/m 0,0 km/h (0 Bft) N 0 0 min 0,0 UV-I 0 W/m -0,7 C 1,2 C 0,0 km/h (0 Bft)
16.02.2023 03:24 1,2 C -1,7 C 88 % 1027,8 hPa 0,0 l/m 0,0 km/h (0 Bft) N 0 0 min 0,0 UV-I 0 W/m -0,6 C 1,2 C 0,0 km/h (0 Bft)
16.02.2023 03:25 1,2 C -2,2 C 88 % 1027,9 hPa 0,0 l/m 0,0 km/h (0 Bft) N 0 0 min 0,0 UV-I 0 W/m -0,6 C 1,2 C 0,0 km/h (0 Bft)
16.02.2023 03:26 1,2 C -2,2 C 88 % 1027,8 hPa 0,0 l/m 0,0 km/h (0 Bft) N 0 0 min 0,0 UV-I 0 W/m -0,6 C 1,2 C 0,0 km/h (0 Bft)
16.02.2023 03:27 1,2 C -2,2 C 88 % 1027,8 hPa 0,0 l/m 0,0 km/h (0 Bft) N 0 0 min 0,0 UV-I 0 W/m -0,6 C 1,2 C 0,0 km/h (0 Bft)
16.02.2023 03:28 1,2 C -2,2 C 88 % 1027,8 hPa 0,0 l/m 0,0 km/h (0 Bft) N 0 0 min 0,0 UV-I 0 W/m -0,6 C 1,2 C 0,0 km/h (0 Bft)
16.02.2023 03:29 1,2 C -2,2 C 88 % 1027,8 hPa 0,0 l/m 0,0 km/h (0 Bft) N 0 0 min 0,0 UV-I 0 W/m -0,6 C 1,2 C 0,0 km/h (0 Bft)
16.02.2023 03:30 1,2 C -2,2 C 88 % 1027,7 hPa 0,0 l/m 0,0 km/h (0 Bft) N 0 0 min 0,0 UV-I 0 W/m -0,6 C 1,2 C 0,0 km/h (0 Bft)
16.02.2023 03:31 1,2 C -2,2 C 88 % 1027,8 hPa 0,0 l/m 0,0 km/h (0 Bft) S 180 0 min 0,0 UV-I 0 W/m -0,6 C 1,2 C 6,4 km/h (2 Bft)
16.02.2023 03:32 1,3 C -2,2 C 88 % 1027,8 hPa 0,0 l/m 3,2 km/h (1 Bft) SO 135 0 min 0,0 UV-I 0 W/m -0,5 C 1,3 C 6,4 km/h (2 Bft)
16.02.2023 03:33 1,3 C -2,2 C 88 % 1027,8 hPa 0,0 l/m 0,0 km/h (0 Bft) SO 135 0 min 0,0 UV-I 0 W/m -0,5 C 1,3 C 1,6 km/h (1 Bft)
16.02.2023 03:34 1,2 C -2,2 C 88 % 1027,8 hPa 0,0 l/m 0,0 km/h (0 Bft) SO 135 0 min 0,0 UV-I 0 W/m -0,6 C 1,2 C 3,2 km/h (1 Bft)
16.02.2023 03:35 1,1 C -2,2 C 88 % 1027,8 hPa 0,0 l/m 0,0 km/h (0 Bft) N 0 0 min 0,0 UV-I 0 W/m -0,7 C 1,1 C 0,0 km/h (0 Bft)
16.02.2023 03:36 1,1 C -2,2 C 88 % 1027,8 hPa 0,0 l/m 0,0 km/h (0 Bft) N 0 0 min 0,0 UV-I 0 W/m -0,7 C 1,1 C 0,0 km/h (0 Bft)
16.02.2023 03:37 1,2 C -2,2 C 89 % 1027,8 hPa 0,0 l/m 0,0 km/h (0 Bft) N 0 0 min 0,0 UV-I 0 W/m -0,4 C 1,2 C 0,0 km/h (0 Bft)
16.02.2023 03:38 1,2 C -2,2 C 89 % 1027,7 hPa 0,0 l/m 0,0 km/h (0 Bft) N 0 0 min 0,0 UV-I 0 W/m -0,4 C 1,2 C 0,0 km/h (0 Bft)
16.02.2023 03:39 1,3 C -2,2 C 89 % 1027,7 hPa 0,0 l/m 0,0 km/h (0 Bft) N 0 0 min 0,0 UV-I 0 W/m -0,3 C 1,3 C 0,0 km/h (0 Bft)
16.02.2023 03:40 1,3 C -1,7 C 89 % 1027,8 hPa 0,0 l/m 0,0 km/h (0 Bft) N 0 0 min 0,0 UV-I 0 W/m -0,3 C 1,3 C 0,0 km/h (0 Bft)
16.02.2023 03:41 1,1 C -2,2 C 88 % 1027,8 hPa 0,0 l/m 0,0 km/h (0 Bft) N 0 0 min 0,0 UV-I 0 W/m -0,7 C 1,1 C 0,0 km/h (0 Bft)
16.02.2023 03:42 0,9 C -2,2 C 88 % 1027,6 hPa 0,0 l/m 0,0 km/h (0 Bft) N 0 0 min 0,0 UV-I 0 W/m -0,9 C 0,9 C 0,0 km/h (0 Bft)
16.02.2023 03:43 0,9 C -2,2 C 88 % 1027,8 hPa 0,0 l/m 4,8 km/h (1 Bft) S 180 0 min 0,0 UV-I 0 W/m -0,9 C 0,9 C 8,0 km/h (2 Bft)
16.02.2023 03:44 0,8 C -2,2 C 88 % 1027,8 hPa 0,0 l/m 3,2 km/h (1 Bft) S 180 0 min 0,0 UV-I 0 W/m -1,0 C 0,8 C 8,0 km/h (2 Bft)
16.02.2023 03:45 0,8 C -2,2 C 88 % 1027,8 hPa 0,0 l/m 6,4 km/h (2 Bft) S-SW 202 0 min 0,0 UV-I 0 W/m -1,0 C 0,8 C 9,7 km/h (2 Bft)
16.02.2023 03:46 0,9 C -1,7 C 89 % 1027,8 hPa 0,0 l/m 4,8 km/h (1 Bft) S-SW 202 0 min 0,0 UV-I 0 W/m -0,7 C 0,9 C 8,0 km/h (2 Bft)
16.02.2023 03:47 0,9 C -1,7 C 88 % 1027,7 hPa 0,0 l/m 3,2 km/h (1 Bft) S-SW 202 0 min 0,0 UV-I 0 W/m -0,9 C 0,9 C 4,8 km/h (1 Bft)
16.02.2023 03:48 0,9 C -1,7 C 88 % 1027,7 hPa 0,0 l/m 3,2 km/h (1 Bft) S-SW 202 0 min 0,0 UV-I 0 W/m -0,9 C 0,9 C 4,8 km/h (1 Bft)
16.02.2023 03:49 0,8 C -2,2 C 88 % 1027,6 hPa 0,0 l/m 3,2 km/h (1 Bft) S-SW 202 0 min 0,0 UV-I 0 W/m -1,0 C 0,8 C 4,8 km/h (1 Bft)
16.02.2023 03:50 0,7 C -2,2 C 88 % 1027,7 hPa 0,0 l/m 4,8 km/h (1 Bft) S-SW 202 0 min 0,0 UV-I 0 W/m -1,1 C 0,7 C 6,4 km/h (2 Bft)
16.02.2023 03:51 0,7 C -2,2 C 88 % 1027,7 hPa 0,0 l/m 3,2 km/h (1 Bft) S-SW 202 0 min 0,0 UV-I 0 W/m -1,1 C 0,7 C 4,8 km/h (1 Bft)
16.02.2023 03:52 0,7 C -2,2 C 88 % 1027,7 hPa 0,0 l/m 3,2 km/h (1 Bft) S-SW 202 0 min 0,0 UV-I 0 W/m -1,1 C 0,7 C 4,8 km/h (1 Bft)
16.02.2023 03:53 0,7 C -2,2 C 88 % 1027,7 hPa 0,0 l/m 3,2 km/h (1 Bft) S-SW 202 0 min 0,0 UV-I 0 W/m -1,1 C 0,7 C 4,8 km/h (1 Bft)
16.02.2023 03:54 0,8 C -2,2 C 89 % 1027,7 hPa 0,0 l/m 1,6 km/h (1 Bft) S-SW 202 0 min 0,0 UV-I 0 W/m -0,8 C 0,8 C 3,2 km/h (1 Bft)
16.02.2023 03:55 0,9 C -1,7 C 89 % 1027,7 hPa 0,0 l/m 1,6 km/h (1 Bft) S-SW 202 0 min 0,0 UV-I 0 W/m -0,7 C 0,9 C 3,2 km/h (1 Bft)
16.02.2023 03:56 1,0 C -1,7 C 89 % 1027,6 hPa 0,0 l/m 1,6 km/h (1 Bft) S-SW 202 0 min 0,0 UV-I 0 W/m -0,6 C 1,0 C 3,2 km/h (1 Bft)
16.02.2023 03:57 1,1 C -1,7 C 89 % 1027,7 hPa 0,0 l/m 3,2 km/h (1 Bft) S-SW 202 0 min 0,0 UV-I 0 W/m -0,5 C 1,1 C 4,8 km/h (1 Bft)
16.02.2023 03:58 1,1 C -2,2 C 89 % 1027,7 hPa 0,0 l/m 3,2 km/h (1 Bft) S-SW 202 0 min 0,0 UV-I 0 W/m -0,5 C 1,1 C 4,8 km/h (1 Bft)
16.02.2023 03:59 1,1 C -2,2 C 89 % 1027,6 hPa 0,0 l/m 3,2 km/h (1 Bft) S-SW 202 0 min 0,0 UV-I 0 W/m -0,5 C 1,1 C 4,8 km/h (1 Bft)
16.02.2023 04:00 1,1 C -2,2 C 89 % 1027,6 hPa 0,0 l/m 3,2 km/h (1 Bft) S-SW 202 0 min 0,0 UV-I 0 W/m -0,5 C 1,1 C 4,8 km/h (1 Bft)
16.02.2023 04:01 1,1 C -2,2 C 89 % 1027,6 hPa 0,0 l/m 1,6 km/h (1 Bft) S-SW 202 0 min 0,0 UV-I 0 W/m -0,5 C 1,1 C 3,2 km/h (1 Bft)
16.02.2023 04:02 1,1 C -2,2 C 89 % 1027,6 hPa 0,0 l/m 3,2 km/h (1 Bft) S-SW 202 0 min 0,0 UV-I 0 W/m -0,5 C 1,1 C 4,8 km/h (1 Bft)
16.02.2023 04:03 1,1 C -2,2 C 89 % 1027,6 hPa 0,0 l/m 3,2 km/h (1 Bft) S-SW 202 0 min 0,0 UV-I 0 W/m -0,5 C 1,1 C 3,2 km/h (1 Bft)
16.02.2023 04:04 1,1 C -2,2 C 89 % 1027,6 hPa 0,0 l/m 3,2 km/h (1 Bft) S-SW 202 0 min 0,0 UV-I 0 W/m -0,5 C 1,1 C 4,8 km/h (1 Bft)
16.02.2023 04:05 1,1 C -2,2 C 89 % 1027,6 hPa 0,0 l/m 4,8 km/h (1 Bft) S-SW 202 0 min 0,0 UV-I 0 W/m -0,5 C 1,1 C 6,4 km/h (2 Bft)
16.02.2023 04:06 1,1 C -2,2 C 89 % 1027,5 hPa 0,0 l/m 3,2 km/h (1 Bft) S-SW 202 0 min 0,0 UV-I 0 W/m -0,5 C 1,1 C 4,8 km/h (1 Bft)
16.02.2023 04:07 1,1 C -1,7 C 89 % 1027,5 hPa 0,0 l/m 3,2 km/h (1 Bft) S-SW 202 0 min 0,0 UV-I 0 W/m -0,5 C 1,1 C 4,8 km/h (1 Bft)
16.02.2023 04:08 1,1 C -1,7 C 89 % 1027,6 hPa 0,0 l/m 3,2 km/h (1 Bft) S-SW 202 0 min 0,0 UV-I 0 W/m -0,5 C 1,1 C 6,4 km/h (2 Bft)
16.02.2023 04:09 1,1 C -1,7 C 89 % 1027,5 hPa 0,0 l/m 4,8 km/h (1 Bft) S-SW 202 0 min 0,0 UV-I 0 W/m -0,5 C 1,1 C 6,4 km/h (2 Bft)
16.02.2023 04:10 1,1 C -2,2 C 89 % 1027,5 hPa 0,0 l/m 3,2 km/h (1 Bft) S-SW 202 0 min 0,0 UV-I 0 W/m -0,5 C 1,1 C 4,8 km/h (1 Bft)
16.02.2023 04:11 1,1 C -2,2 C 88 % 1027,5 hPa 0,0 l/m 3,2 km/h (1 Bft) S-SW 202 0 min 0,0 UV-I 0 W/m -0,7 C 1,1 C 4,8 km/h (1 Bft)
16.02.2023 04:12 1,0 C -2,2 C 89 % 1027,5 hPa 0,0 l/m 4,8 km/h (1 Bft) S 180 0 min 0,0 UV-I 0 W/m -0,6 C 1,0 C 8,0 km/h (2 Bft)
16.02.2023 04:13 0,9 C -2,2 C 88 % 1027,5 hPa 0,0 l/m 3,2 km/h (1 Bft) S 180 0 min 0,0 UV-I 0 W/m -0,9 C 0,9 C 4,8 km/h (1 Bft)
16.02.2023 04:14 0,9 C -1,7 C 88 % 1027,4 hPa 0,0 l/m 1,6 km/h (1 Bft) S 180 0 min 0,0 UV-I 0 W/m -0,9 C 0,9 C 3,2 km/h (1 Bft)
16.02.2023 04:15 0,8 C -1,7 C 88 % 1027,5 hPa 0,0 l/m 4,8 km/h (1 Bft) S 180 0 min 0,0 UV-I 0 W/m -1,0 C 0,8 C 6,4 km/h (2 Bft)
16.02.2023 04:16 0,8 C -2,2 C 88 % 1027,5 hPa 0,0 l/m 1,6 km/h (1 Bft) S 180 0 min 0,0 UV-I 0 W/m -1,0 C 0,8 C 3,2 km/h (1 Bft)
16.02.2023 04:17 0,8 C -2,2 C 88 % 1027,4 hPa 0,0 l/m 1,6 km/h (1 Bft) S 180 0 min 0,0 UV-I 0 W/m -1,0 C 0,8 C 3,2 km/h (1 Bft)
16.02.2023 04:18 0,9 C -2,2 C 88 % 1027,4 hPa 0,0 l/m 1,6 km/h (1 Bft) S 180 0 min 0,0 UV-I 0 W/m -0,9 C 0,9 C 4,8 km/h (1 Bft)
16.02.2023 04:19 0,9 C -2,2 C 89 % 1027,5 hPa 0,0 l/m 4,8 km/h (1 Bft) S 180 0 min 0,0 UV-I 0 W/m -0,7 C 0,9 C 8,0 km/h (2 Bft)
16.02.2023 04:20 1,0 C -1,7 C 89 % 1027,4 hPa 0,0 l/m 1,6 km/h (1 Bft) S 180 0 min 0,0 UV-I 0 W/m -0,6 C 1,0 C 3,2 km/h (1 Bft)
16.02.2023 04:21 1,1 C -1,7 C 89 % 1027,4 hPa 0,0 l/m 1,6 km/h (1 Bft) S 180 0 min 0,0 UV-I 0 W/m -0,5 C 1,1 C 3,2 km/h (1 Bft)
16.02.2023 04:22 1,2 C -1,7 C 89 % 1027,5 hPa 0,0 l/m 1,6 km/h (1 Bft) S 180 0 min 0,0 UV-I 0 W/m -0,4 C 1,2 C 3,2 km/h (1 Bft)
16.02.2023 04:23 1,3 C -1,7 C 89 % 1027,4 hPa 0,0 l/m 1,6 km/h (1 Bft) S 180 0 min 0,0 UV-I 0 W/m -0,3 C 1,3 C 3,2 km/h (1 Bft)
16.02.2023 04:24 1,3 C -1,7 C 89 % 1027,4 hPa 0,0 l/m 0,0 km/h (0 Bft) S 180 0 min 0,0 UV-I 0 W/m -0,3 C 1,3 C 1,6 km/h (1 Bft)
16.02.2023 04:25 1,4 C -1,7 C 89 % 1027,3 hPa 0,0 l/m 0,0 km/h (0 Bft) S 180 0 min 0,0 UV-I 0 W/m -0,2 C 1,4 C 1,6 km/h (1 Bft)
16.02.2023 04:26 1,4 C -1,7 C 88 % 1027,4 hPa 0,0 l/m 0,0 km/h (0 Bft) N 0 0 min 0,0 UV-I 0 W/m -0,4 C 1,4 C 0,0 km/h (0 Bft)
16.02.2023 04:27 1,4 C -1,7 C 88 % 1027,4 hPa 0,0 l/m 1,6 km/h (1 Bft) S 180 0 min 0,0 UV-I 0 W/m -0,4 C 1,4 C 3,2 km/h (1 Bft)
16.02.2023 04:28 1,4 C -1,7 C 88 % 1027,3 hPa 0,0 l/m 1,6 km/h (1 Bft) S 180 0 min 0,0 UV-I 0 W/m -0,4 C 1,4 C 3,2 km/h (1 Bft)
16.02.2023 04:29 1,4 C -1,7 C 88 % 1027,3 hPa 0,0 l/m 3,2 km/h (1 Bft) S 180 0 min 0,0 UV-I 0 W/m -0,4 C 1,4 C 4,8 km/h (1 Bft)
16.02.2023 04:30 1,4 C -1,1 C 88 % 1027,3 hPa 0,0 l/m 3,2 km/h (1 Bft) S 180 0 min 0,0 UV-I 0 W/m -0,4 C 1,4 C 3,2 km/h (1 Bft)
16.02.2023 04:31 1,4 C -1,1 C 88 % 1027,3 hPa 0,0 l/m 1,6 km/h (1 Bft) S 180 0 min 0,0 UV-I 0 W/m -0,4 C 1,4 C 3,2 km/h (1 Bft)
16.02.2023 04:32 1,4 C -1,1 C 88 % 1027,4 hPa 0,0 l/m 1,6 km/h (1 Bft) S 180 0 min 0,0 UV-I 0 W/m -0,4 C 1,4 C 3,2 km/h (1 Bft)
16.02.2023 04:33 1,4 C -1,1 C 88 % 1027,3 hPa 0,0 l/m 1,6 km/h (1 Bft) S 180 0 min 0,0 UV-I 0 W/m -0,4 C 1,4 C 1,6 km/h (1 Bft)
16.02.2023 04:34 1,4 C -1,1 C 88 % 1027,3 hPa 0,0 l/m 0,0 km/h (0 Bft) S 180 0 min 0,0 UV-I 0 W/m -0,4 C 1,4 C 1,6 km/h (1 Bft)
16.02.2023 04:35 1,4 C -1,1 C 88 % 1027,2 hPa 0,0 l/m 0,0 km/h (0 Bft) N 0 0 min 0,0 UV-I 0 W/m -0,4 C 1,4 C 0,0 km/h (0 Bft)
16.02.2023 04:36 1,4 C -1,1 C 88 % 1027,2 hPa 0,0 l/m 0,0 km/h (0 Bft) S 180 0 min 0,0 UV-I 0 W/m -0,4 C 1,4 C 1,6 km/h (1 Bft)
16.02.2023 04:37 1,4 C -1,1 C 88 % 1027,3 hPa 0,0 l/m 0,0 km/h (0 Bft) N 0 0 min 0,0 UV-I 0 W/m -0,4 C 1,4 C 0,0 km/h (0 Bft)
16.02.2023 04:38 1,5 C -1,1 C 88 % 1027,3 hPa 0,0 l/m 0,0 km/h (0 Bft) N 0 0 min 0,0 UV-I 0 W/m -0,3 C 1,5 C 0,0 km/h (0 Bft)
16.02.2023 04:39 1,6 C -1,1 C 88 % 1027,2 hPa 0,0 l/m 0,0 km/h (0 Bft) S 180 0 min 0,0 UV-I 0 W/m -0,2 C 1,6 C 1,6 km/h (1 Bft)
16.02.2023 04:40 1,6 C -1,7 C 88 % 1027,2 hPa 0,0 l/m 0,0 km/h (0 Bft) N 0 0 min 0,0 UV-I 0 W/m -0,2 C 1,6 C 0,0 km/h (0 Bft)
16.02.2023 04:41 1,6 C -1,1 C 88 % 1027,2 hPa 0,0 l/m 0,0 km/h (0 Bft) N 0 0 min 0,0 UV-I 0 W/m -0,2 C 1,6 C 0,0 km/h (0 Bft)
16.02.2023 04:42 1,6 C -1,7 C 88 % 1027,1 hPa 0,0 l/m 0,0 km/h (0 Bft) N 0 0 min 0,0 UV-I 0 W/m -0,2 C 1,6 C 0,0 km/h (0 Bft)
16.02.2023 04:43 1,6 C -1,7 C 88 % 1027,1 hPa 0,0 l/m 0,0 km/h (0 Bft) N 0 0 min 0,0 UV-I 0 W/m -0,2 C 1,6 C 0,0 km/h (0 Bft)
16.02.2023 04:44 1,5 C -1,7 C 87 % 1027,2 hPa 0,0 l/m 0,0 km/h (0 Bft) N 0 0 min 0,0 UV-I 0 W/m -0,4 C 1,5 C 0,0 km/h (0 Bft)
16.02.2023 04:45 1,4 C -1,7 C 87 % 1027,2 hPa 0,0 l/m 0,0 km/h (0 Bft) N 0 0 min 0,0 UV-I 0 W/m -0,5 C 1,4 C 0,0 km/h (0 Bft)
16.02.2023 04:46 1,4 C -1,7 C 87 % 1027,2 hPa 0,0 l/m 0,0 km/h (0 Bft) N 0 0 min 0,0 UV-I 0 W/m -0,5 C 1,4 C 0,0 km/h (0 Bft)
16.02.2023 04:47 1,3 C -1,7 C 87 % 1027,2 hPa 0,0 l/m 0,0 km/h (0 Bft) S 180 0 min 0,0 UV-I 0 W/m -0,6 C 1,3 C 1,6 km/h (1 Bft)
16.02.2023 04:48 1,3 C -1,7 C 87 % 1027,2 hPa 0,0 l/m 0,0 km/h (0 Bft) N 0 0 min 0,0 UV-I 0 W/m -0,6 C 1,3 C 0,0 km/h (0 Bft)
16.02.2023 04:49 1,3 C -1,7 C 87 % 1027,2 hPa 0,0 l/m 0,0 km/h (0 Bft) N 0 0 min 0,0 UV-I 0 W/m -0,6 C 1,3 C 0,0 km/h (0 Bft)
16.02.2023 04:50 1,3 C -1,7 C 87 % 1027,2 hPa 0,0 l/m 0,0 km/h (0 Bft) N 0 0 min 0,0 UV-I 0 W/m -0,6 C 1,3 C 0,0 km/h (0 Bft)
16.02.2023 04:51 1,3 C -1,7 C 88 % 1027,2 hPa 0,0 l/m 1,6 km/h (1 Bft) S 180 0 min 0,0 UV-I 0 W/m -0,5 C 1,3 C 1,6 km/h (1 Bft)
16.02.2023 04:52 1,3 C -1,1 C 88 % 1027,2 hPa 0,0 l/m 0,0 km/h (0 Bft) S 180 0 min 0,0 UV-I 0 W/m -0,5 C 1,3 C 1,6 km/h (1 Bft)
16.02.2023 04:53 1,3 C -1,1 C 88 % 1027,2 hPa 0,0 l/m 0,0 km/h (0 Bft) N 0 0 min 0,0 UV-I 0 W/m -0,5 C 1,3 C 0,0 km/h (0 Bft)
16.02.2023 04:54 1,4 C -1,1 C 88 % 1027,2 hPa 0,0 l/m 1,6 km/h (1 Bft) S 180 0 min 0,0 UV-I 0 W/m -0,4 C 1,4 C 3,2 km/h (1 Bft)
16.02.2023 04:55 1,6 C -1,7 C 88 % 1027,2 hPa 0,0 l/m 1,6 km/h (1 Bft) S 180 0 min 0,0 UV-I 0 W/m -0,2 C 1,6 C 3,2 km/h (1 Bft)
16.02.2023 04:56 1,6 C -1,1 C 88 % 1027,3 hPa 0,0 l/m 1,6 km/h (1 Bft) S 180 0 min 0,0 UV-I 0 W/m -0,2 C 1,6 C 1,6 km/h (1 Bft)
16.02.2023 04:57 1,6 C -1,1 C 88 % 1027,2 hPa 0,0 l/m 0,0 km/h (0 Bft) S 180 0 min 0,0 UV-I 0 W/m -0,2 C 1,6 C 1,6 km/h (1 Bft)
16.02.2023 04:58 1,5 C -1,7 C 88 % 1027,3 hPa 0,0 l/m 0,0 km/h (0 Bft) N 0 0 min 0,0 UV-I 0 W/m -0,3 C 1,5 C 0,0 km/h (0 Bft)
16.02.2023 04:59 1,4 C -1,7 C 88 % 1027,3 hPa 0,0 l/m 0,0 km/h (0 Bft) N 0 0 min 0,0 UV-I 0 W/m -0,4 C 1,4 C 0,0 km/h (0 Bft)
16.02.2023 05:00 1,4 C -1,7 C 88 % 1027,2 hPa 0,0 l/m 0,0 km/h (0 Bft) N 0 0 min 0,0 UV-I 0 W/m -0,4 C 1,4 C 0,0 km/h (0 Bft)
16.02.2023 05:01 1,4 C -1,7 C 88 % 1027,2 hPa 0,0 l/m 0,0 km/h (0 Bft) N 0 0 min 0,0 UV-I 0 W/m -0,4 C 1,4 C 0,0 km/h (0 Bft)
16.02.2023 05:02 1,4 C -1,1 C 88 % 1027,2 hPa 0,0 l/m 0,0 km/h (0 Bft) N 0 0 min 0,0 UV-I 0 W/m -0,4 C 1,4 C 0,0 km/h (0 Bft)
16.02.2023 05:03 1,4 C -1,7 C 88 % 1027,3 hPa 0,0 l/m 0,0 km/h (0 Bft) N 0 0 min 0,0 UV-I 0 W/m -0,4 C 1,4 C 0,0 km/h (0 Bft)
16.02.2023 05:04 1,4 C -1,7 C 88 % 1027,2 hPa 0,0 l/m 0,0 km/h (0 Bft) N 0 0 min 0,0 UV-I 0 W/m -0,4 C 1,4 C 0,0 km/h (0 Bft)
16.02.2023 05:05 1,3 C -1,7 C 88 % 1027,3 hPa 0,0 l/m 0,0 km/h (0 Bft) N 0 0 min 0,0 UV-I 0 W/m -0,5 C 1,3 C 0,0 km/h (0 Bft)
16.02.2023 05:06 1,2 C -1,7 C 87 % 1027,3 hPa 0,0 l/m 0,0 km/h (0 Bft) N 0 0 min 0,0 UV-I 0 W/m -0,7 C 1,2 C 0,0 km/h (0 Bft)
16.02.2023 05:07 1,1 C -1,7 C 87 % 1027,3 hPa 0,0 l/m 0,0 km/h (0 Bft) N 0 0 min 0,0 UV-I 0 W/m -0,8 C 1,1 C 0,0 km/h (0 Bft)
16.02.2023 05:08 0,9 C -2,2 C 87 % 1027,2 hPa 0,0 l/m 0,0 km/h (0 Bft) N 0 0 min 0,0 UV-I 0 W/m -1,0 C 0,9 C 0,0 km/h (0 Bft)
16.02.2023 05:09 0,8 C -2,2 C 87 % 1027,2 hPa 0,0 l/m 0,0 km/h (0 Bft) S 180 0 min 0,0 UV-I 0 W/m -1,1 C 0,8 C 1,6 km/h (1 Bft)
16.02.2023 05:10 0,7 C -2,2 C 87 % 1027,3 hPa 0,0 l/m 1,6 km/h (1 Bft) S 180 0 min 0,0 UV-I 0 W/m -1,2 C 0,7 C 1,6 km/h (1 Bft)
16.02.2023 05:11 0,8 C -2,2 C 88 % 1027,2 hPa 0,0 l/m 0,0 km/h (0 Bft) S 180 0 min 0,0 UV-I 0 W/m -1,0 C 0,8 C 1,6 km/h (1 Bft)
16.02.2023 05:12 0,6 C -2,2 C 88 % 1027,2 hPa 0,0 l/m 0,0 km/h (0 Bft) N 0 0 min 0,0 UV-I 0 W/m -1,2 C 0,6 C 0,0 km/h (0 Bft)
16.02.2023 05:13 0,3 C -2,8 C 87 % 1027,3 hPa 0,0 l/m 0,0 km/h (0 Bft) N 0 0 min 0,0 UV-I 0 W/m -1,6 C 0,3 C 0,0 km/h (0 Bft)
16.02.2023 05:14 0,1 C -2,8 C 87 % 1027,2 hPa 0,0 l/m 0,0 km/h (0 Bft) N 0 0 min 0,0 UV-I 0 W/m -1,8 C 0,1 C 0,0 km/h (0 Bft)
16.02.2023 05:15 -0,1 C -2,8 C 87 % 1027,1 hPa 0,0 l/m 0,0 km/h (0 Bft) N 0 0 min 0,0 UV-I 0 W/m -2,0 C -0,1 C 0,0 km/h (0 Bft)
16.02.2023 05:16 -0,2 C -2,8 C 87 % 1027,2 hPa 0,0 l/m 0,0 km/h (0 Bft) N 0 0 min 0,0 UV-I 0 W/m -2,1 C -0,2 C 0,0 km/h (0 Bft)
16.02.2023 05:17 -0,3 C -2,8 C 87 % 1027,2 hPa 0,0 l/m 0,0 km/h (0 Bft) N 0 0 min 0,0 UV-I 0 W/m -2,2 C -0,3 C 0,0 km/h (0 Bft)
16.02.2023 05:18 -0,4 C -2,8 C 87 % 1027,2 hPa 0,0 l/m 0,0 km/h (0 Bft) N 0 0 min 0,0 UV-I 0 W/m -2,3 C -0,4 C 0,0 km/h (0 Bft)
16.02.2023 05:19 -0,6 C -3,3 C 87 % 1027,2 hPa 0,0 l/m 0,0 km/h (0 Bft) N 0 0 min 0,0 UV-I 0 W/m -2,5 C -0,6 C 0,0 km/h (0 Bft)
16.02.2023 05:20 -0,6 C -3,3 C 88 % 1027,2 hPa 0,0 l/m 0,0 km/h (0 Bft) N 0 0 min 0,0 UV-I 0 W/m -2,3 C -0,6 C 0,0 km/h (0 Bft)
16.02.2023 05:21 -0,7 C -3,3 C 88 % 1027,2 hPa 0,0 l/m 0,0 km/h (0 Bft) N 0 0 min 0,0 UV-I 0 W/m -2,4 C -0,7 C 0,0 km/h (0 Bft)
16.02.2023 05:22 -0,7 C -2,8 C 88 % 1027,3 hPa 0,0 l/m 0,0 km/h (0 Bft) N 0 0 min 0,0 UV-I 0 W/m -2,4 C -0,7 C 0,0 km/h (0 Bft)
16.02.2023 05:23 -0,7 C -2,8 C 88 % 1027,2 hPa 0,0 l/m 0,0 km/h (0 Bft) N 0 0 min 0,0 UV-I 0 W/m -2,4 C -0,7 C 0,0 km/h (0 Bft)
16.02.2023 05:24 -0,7 C -3,3 C 89 % 1027,3 hPa 0,0 l/m 0,0 km/h (0 Bft) N 0 0 min 0,0 UV-I 0 W/m -2,3 C -0,7 C 0,0 km/h (0 Bft)
16.02.2023 05:25 -0,6 C -3,3 C 89 % 1027,4 hPa 0,0 l/m 0,0 km/h (0 Bft) N 0 0 min 0,0 UV-I 0 W/m -2,2 C -0,6 C 0,0 km/h (0 Bft)
16.02.2023 05:26 -0,6 C -3,3 C 89 % 1027,3 hPa 0,0 l/m 0,0 km/h (0 Bft) N 0 0 min 0,0 UV-I 0 W/m -2,2 C -0,6 C 0,0 km/h (0 Bft)
16.02.2023 05:27 -0,6 C -2,8 C 89 % 1027,3 hPa 0,0 l/m 0,0 km/h (0 Bft) N 0 0 min 0,0 UV-I 0 W/m -2,2 C -0,6 C 0,0 km/h (0 Bft)
16.02.2023 05:28 -0,6 C -2,8 C 89 % 1027,3 hPa 0,0 l/m 0,0 km/h (0 Bft) N 0 0 min 0,0 UV-I 0 W/m -2,2 C -0,6 C 0,0 km/h (0 Bft)
16.02.2023 05:29 -0,5 C -2,8 C 89 % 1027,2 hPa 0,0 l/m 0,0 km/h (0 Bft) N 0 0 min 0,0 UV-I 0 W/m -2,1 C -0,5 C 0,0 km/h (0 Bft)
16.02.2023 05:30 -0,5 C -2,8 C 89 % 1027,4 hPa 0,0 l/m 0,0 km/h (0 Bft) N 0 0 min 0,0 UV-I 0 W/m -2,1 C -0,5 C 0,0 km/h (0 Bft)
16.02.2023 05:31 -0,6 C -2,8 C 89 % 1027,3 hPa 0,0 l/m 0,0 km/h (0 Bft) N 0 0 min 0,0 UV-I 0 W/m -2,2 C -0,6 C 0,0 km/h (0 Bft)
16.02.2023 05:32 -0,7 C -3,3 C 89 % 1027,3 hPa 0,0 l/m 0,0 km/h (0 Bft) N 0 0 min 0,0 UV-I 0 W/m -2,3 C -0,7 C 0,0 km/h (0 Bft)
16.02.2023 05:33 -0,7 C -3,3 C 89 % 1027,4 hPa 0,0 l/m 0,0 km/h (0 Bft) N 0 0 min 0,0 UV-I 0 W/m -2,3 C -0,7 C 0,0 km/h (0 Bft)
16.02.2023 05:34 -0,8 C -3,3 C 89 % 1027,4 hPa 0,0 l/m 0,0 km/h (0 Bft) N 0 0 min 0,0 UV-I 0 W/m -2,4 C -0,8 C 0,0 km/h (0 Bft)
16.02.2023 05:35 -0,8 C -3,3 C 89 % 1027,4 hPa 0,0 l/m 0,0 km/h (0 Bft) N 0 0 min 0,0 UV-I 0 W/m -2,4 C -0,8 C 0,0 km/h (0 Bft)
16.02.2023 05:36 -0,8 C -3,3 C 89 % 1027,4 hPa 0,0 l/m 0,0 km/h (0 Bft) N 0 0 min 0,0 UV-I 0 W/m -2,4 C -0,8 C 0,0 km/h (0 Bft)
16.02.2023 05:37 -0,8 C -3,3 C 89 % 1027,4 hPa 0,0 l/m 0,0 km/h (0 Bft) N 0 0 min 0,0 UV-I 0 W/m -2,4 C -0,8 C 0,0 km/h (0 Bft)
16.02.2023 05:38 -0,8 C -3,3 C 89 % 1027,4 hPa 0,0 l/m 0,0 km/h (0 Bft) N 0 0 min 0,0 UV-I 0 W/m -2,4 C -0,8 C 0,0 km/h (0 Bft)
16.02.2023 05:39 -0,7 C -3,3 C 90 % 1027,5 hPa 0,0 l/m 0,0 km/h (0 Bft) N 0 0 min 0,0 UV-I 0 W/m -2,1 C -0,7 C 0,0 km/h (0 Bft)
16.02.2023 05:40 -0,7 C -3,3 C 90 % 1027,4 hPa 0,0 l/m 0,0 km/h (0 Bft) N 0 0 min 0,0 UV-I 0 W/m -2,1 C -0,7 C 0,0 km/h (0 Bft)
16.02.2023 05:41 -0,7 C -3,3 C 90 % 1027,5 hPa 0,0 l/m 0,0 km/h (0 Bft) N 0 0 min 0,0 UV-I 0 W/m -2,1 C -0,7 C 0,0 km/h (0 Bft)
16.02.2023 05:42 -0,7 C -3,3 C 90 % 1027,4 hPa 0,0 l/m 0,0 km/h (0 Bft) N 0 0 min 0,0 UV-I 0 W/m -2,1 C -0,7 C 0,0 km/h (0 Bft)
16.02.2023 05:43 -0,8 C -3,3 C 90 % 1027,4 hPa 0,0 l/m 0,0 km/h (0 Bft) N 0 0 min 0,0 UV-I 0 W/m -2,2 C -0,8 C 0,0 km/h (0 Bft)
16.02.2023 05:44 -0,9 C -3,3 C 89 % 1027,4 hPa 0,0 l/m 0,0 km/h (0 Bft) N 0 0 min 0,0 UV-I 0 W/m -2,5 C -0,9 C 0,0 km/h (0 Bft)
16.02.2023 05:45 -0,9 C -3,3 C 89 % 1027,4 hPa 0,0 l/m 0,0 km/h (0 Bft) N 0 0 min 0,0 UV-I 0 W/m -2,5 C -0,9 C 0,0 km/h (0 Bft)
16.02.2023 05:46 -0,9 C -3,3 C 89 % 1027,4 hPa 0,0 l/m 0,0 km/h (0 Bft) N 0 0 min 0,0 UV-I 0 W/m -2,5 C -0,9 C 0,0 km/h (0 Bft)
16.02.2023 05:47 -0,9 C -3,3 C 90 % 1027,4 hPa 0,0 l/m 0,0 km/h (0 Bft) N 0 0 min 0,0 UV-I 0 W/m -2,3 C -0,9 C 0,0 km/h (0 Bft)
16.02.2023 05:48 -0,9 C -3,3 C 90 % 1027,4 hPa 0,0 l/m 0,0 km/h (0 Bft) N 0 0 min 0,0 UV-I 0 W/m -2,3 C -0,9 C 0,0 km/h (0 Bft)
16.02.2023 05:49 -0,8 C -3,3 C 90 % 1027,4 hPa 0,0 l/m 0,0 km/h (0 Bft) N 0 0 min 0,0 UV-I 0 W/m -2,2 C -0,8 C 0,0 km/h (0 Bft)
16.02.2023 05:50 -0,8 C -3,3 C 90 % 1027,4 hPa 0,0 l/m 0,0 km/h (0 Bft) N 0 0 min 0,0 UV-I 0 W/m -2,2 C -0,8 C 0,0 km/h (0 Bft)
16.02.2023 05:51 -0,8 C -3,3 C 90 % 1027,3 hPa 0,0 l/m 0,0 km/h (0 Bft) N 0 0 min 0,0 UV-I 0 W/m -2,2 C -0,8 C 0,0 km/h (0 Bft)
16.02.2023 05:52 -0,7 C -2,8 C 90 % 1027,4 hPa 0,0 l/m 0,0 km/h (0 Bft) N 0 0 min 0,0 UV-I 0 W/m -2,1 C -0,7 C 0,0 km/h (0 Bft)
16.02.2023 05:53 -0,6 C -2,8 C 90 % 1027,4 hPa 0,0 l/m 0,0 km/h (0 Bft) N 0 0 min 0,0 UV-I 0 W/m -2,0 C -0,6 C 0,0 km/h (0 Bft)
16.02.2023 05:54 -0,5 C -2,8 C 91 % 1027,4 hPa 0,0 l/m 0,0 km/h (0 Bft) N 0 0 min 0,0 UV-I 0 W/m -1,8 C -0,5 C 0,0 km/h (0 Bft)
16.02.2023 05:55 -0,3 C -2,8 C 91 % 1027,3 hPa 0,0 l/m 0,0 km/h (0 Bft) N 0 0 min 0,0 UV-I 0 W/m -1,6 C -0,3 C 0,0 km/h (0 Bft)
16.02.2023 05:56 -0,2 C -2,8 C 91 % 1027,3 hPa 0,0 l/m 0,0 km/h (0 Bft) S 180 0 min 0,0 UV-I 0 W/m -1,5 C -0,2 C 1,6 km/h (1 Bft)
16.02.2023 05:57 -0,1 C -2,8 C 91 % 1027,3 hPa 0,0 l/m 1,6 km/h (1 Bft) S 180 0 min 0,0 UV-I 0 W/m -1,4 C -0,1 C 1,6 km/h (1 Bft)
16.02.2023 05:58 0,0 C -2,8 C 91 % 1027,3 hPa 0,0 l/m 1,6 km/h (1 Bft) S 180 0 min 0,0 UV-I 0 W/m -1,3 C 0,0 C 3,2 km/h (1 Bft)
16.02.2023 05:59 0,1 C -2,2 C 91 % 1027,4 hPa 0,0 l/m 0,0 km/h (0 Bft) S 180 0 min 0,0 UV-I 0 W/m -1,2 C 0,1 C 3,2 km/h (1 Bft)
16.02.2023 06:00 0,1 C -2,2 C 91 % 1027,3 hPa 0,0 l/m 0,0 km/h (0 Bft) S 180 0 min 0,0 UV-I 0 W/m -1,2 C 0,1 C 3,2 km/h (1 Bft)
16.02.2023 06:01 0,1 C -2,2 C 91 % 1027,3 hPa 0,0 l/m 0,0 km/h (0 Bft) N 0 0 min 0,0 UV-I 0 W/m -1,2 C 0,1 C 0,0 km/h (0 Bft)
16.02.2023 06:02 0,2 C -2,2 C 91 % 1027,3 hPa 0,0 l/m 0,0 km/h (0 Bft) S 180 0 min 0,0 UV-I 0 W/m -1,1 C 0,2 C 1,6 km/h (1 Bft)
16.02.2023 06:03 0,2 C -2,2 C 90 % 1027,3 hPa 0,0 l/m 0,0 km/h (0 Bft) N 0 0 min 0,0 UV-I 0 W/m -1,2 C 0,2 C 0,0 km/h (0 Bft)
16.02.2023 06:04 0,1 C -2,8 C 90 % 1027,3 hPa 0,0 l/m 0,0 km/h (0 Bft) N 0 0 min 0,0 UV-I 0 W/m -1,3 C 0,1 C 0,0 km/h (0 Bft)
16.02.2023 06:05 0,1 C -2,8 C 90 % 1027,3 hPa 0,0 l/m 0,0 km/h (0 Bft) S 180 0 min 0,0 UV-I 0 W/m -1,3 C 0,1 C 1,6 km/h (1 Bft)
16.02.2023 06:06 0,1 C -2,8 C 90 % 1027,3 hPa 0,0 l/m 0,0 km/h (0 Bft) N 0 0 min 0,0 UV-I 0 W/m -1,3 C 0,1 C 0,0 km/h (0 Bft)
16.02.2023 06:07 0,1 C -2,2 C 90 % 1027,3 hPa 0,0 l/m 0,0 km/h (0 Bft) S 180 0 min 0,0 UV-I 0 W/m -1,3 C 0,1 C 1,6 km/h (1 Bft)
16.02.2023 06:08 0,1 C -2,2 C 90 % 1027,2 hPa 0,0 l/m 0,0 km/h (0 Bft) S 180 0 min 0,0 UV-I 0 W/m -1,3 C 0,1 C 1,6 km/h (1 Bft)
16.02.2023 06:09 0,1 C -2,2 C 90 % 1027,3 hPa 0,0 l/m 0,0 km/h (0 Bft) S 180 0 min 0,0 UV-I 0 W/m -1,3 C 0,1 C 1,6 km/h (1 Bft)
16.02.2023 06:10 0,2 C -2,8 C 90 % 1027,3 hPa 0,0 l/m 0,0 km/h (0 Bft) S 180 0 min 0,0 UV-I 0 W/m -1,2 C 0,2 C 1,6 km/h (1 Bft)
16.02.2023 06:11 0,2 C -2,2 C 90 % 1027,3 hPa 0,0 l/m 0,0 km/h (0 Bft) N 0 0 min 0,0 UV-I 0 W/m -1,2 C 0,2 C 0,0 km/h (0 Bft)
16.02.2023 06:12 0,1 C -2,2 C 90 % 1027,2 hPa 0,0 l/m 0,0 km/h (0 Bft) N 0 0 min 0,0 UV-I 0 W/m -1,3 C 0,1 C 0,0 km/h (0 Bft)
16.02.2023 06:13 0,1 C -2,8 C 90 % 1027,3 hPa 0,0 l/m 0,0 km/h (0 Bft) S 180 0 min 0,0 UV-I 0 W/m -1,3 C 0,1 C 1,6 km/h (1 Bft)
16.02.2023 06:14 0,1 C -2,8 C 90 % 1027,4 hPa 0,0 l/m 0,0 km/h (0 Bft) S 180 0 min 0,0 UV-I 0 W/m -1,3 C 0,1 C 1,6 km/h (1 Bft)
16.02.2023 06:15 0,0 C -2,8 C 90 % 1027,3 hPa 0,0 l/m 0,0 km/h (0 Bft) S 180 0 min 0,0 UV-I 0 W/m -1,4 C 0,0 C 1,6 km/h (1 Bft)
16.02.2023 06:16 0,0 C -2,8 C 90 % 1027,3 hPa 0,0 l/m 0,0 km/h (0 Bft) N 0 0 min 0,0 UV-I 0 W/m -1,4 C 0,0 C 0,0 km/h (0 Bft)
16.02.2023 06:17 0,0 C -2,2 C 90 % 1027,3 hPa 0,0 l/m 0,0 km/h (0 Bft) N 0 0 min 0,0 UV-I 0 W/m -1,4 C 0,0 C 0,0 km/h (0 Bft)
16.02.2023 06:18 0,1 C -2,8 C 90 % 1027,3 hPa 0,0 l/m 0,0 km/h (0 Bft) S 180 0 min 0,0 UV-I 0 W/m -1,3 C 0,1 C 1,6 km/h (1 Bft)
16.02.2023 06:19 0,1 C -2,8 C 90 % 1027,3 hPa 0,0 l/m 0,0 km/h (0 Bft) N 0 0 min 0,0 UV-I 0 W/m -1,3 C 0,1 C 0,0 km/h (0 Bft)
16.02.2023 06:20 0,0 C -2,8 C 90 % 1027,2 hPa 0,0 l/m 0,0 km/h (0 Bft) S 180 0 min 0,0 UV-I 0 W/m -1,4 C 0,0 C 1,6 km/h (1 Bft)
16.02.2023 06:21 -0,1 C -2,8 C 90 % 1027,3 hPa 0,0 l/m 0,0 km/h (0 Bft) S 180 0 min 0,0 UV-I 0 W/m -1,5 C -0,1 C 1,6 km/h (1 Bft)
16.02.2023 06:22 -0,2 C -2,8 C 90 % 1027,3 hPa 0,0 l/m 3,2 km/h (1 Bft) S 180 0 min 0,0 UV-I 0 W/m -1,6 C -0,2 C 3,2 km/h (1 Bft)
16.02.2023 06:23 -0,1 C -2,8 C 90 % 1027,3 hPa 0,0 l/m 1,6 km/h (1 Bft) S 180 0 min 0,0 UV-I 0 W/m -1,5 C -0,1 C 1,6 km/h (1 Bft)
16.02.2023 06:24 0,0 C -2,8 C 90 % 1027,2 hPa 0,0 l/m 0,0 km/h (0 Bft) N 0 0 min 0,0 UV-I 0 W/m -1,4 C 0,0 C 0,0 km/h (0 Bft)
16.02.2023 06:25 0,0 C -2,8 C 91 % 1027,3 hPa 0,0 l/m 0,0 km/h (0 Bft) N 0 0 min 0,0 UV-I 0 W/m -1,3 C 0,0 C 0,0 km/h (0 Bft)
16.02.2023 06:26 0,1 C -2,8 C 91 % 1027,2 hPa 0,0 l/m 0,0 km/h (0 Bft) N 0 0 min 0,0 UV-I 0 W/m -1,2 C 0,1 C 0,0 km/h (0 Bft)
16.02.2023 06:27 0,1 C -2,2 C 91 % 1027,3 hPa 0,0 l/m 0,0 km/h (0 Bft) N 0 0 min 0,0 UV-I 0 W/m -1,2 C 0,1 C 0,0 km/h (0 Bft)
16.02.2023 06:28 0,1 C -2,2 C 90 % 1027,2 hPa 0,0 l/m 0,0 km/h (0 Bft) N 0 0 min 0,0 UV-I 0 W/m -1,3 C 0,1 C 0,0 km/h (0 Bft)
16.02.2023 06:29 0,1 C -2,8 C 90 % 1027,2 hPa 0,0 l/m 0,0 km/h (0 Bft) N 0 0 min 0,0 UV-I 0 W/m -1,3 C 0,1 C 0,0 km/h (0 Bft)
16.02.2023 06:30 0,0 C -2,8 C 90 % 1027,3 hPa 0,0 l/m 0,0 km/h (0 Bft) N 0 0 min 0,0 UV-I 0 W/m -1,4 C 0,0 C 0,0 km/h (0 Bft)
16.02.2023 06:31 0,0 C -2,8 C 90 % 1027,2 hPa 0,0 l/m 0,0 km/h (0 Bft) N 0 0 min 0,0 UV-I 0 W/m -1,4 C 0,0 C 0,0 km/h (0 Bft)
16.02.2023 06:32 0,0 C -2,8 C 90 % 1027,2 hPa 0,0 l/m 1,6 km/h (1 Bft) S 180 0 min 0,0 UV-I 0 W/m -1,4 C 0,0 C 3,2 km/h (1 Bft)
16.02.2023 06:33 0,0 C -2,8 C 91 % 1027,3 hPa 0,0 l/m 0,0 km/h (0 Bft) S 180 0 min 0,0 UV-I 0 W/m -1,3 C 0,0 C 1,6 km/h (1 Bft)
16.02.2023 06:34 0,0 C -2,2 C 90 % 1027,3 hPa 0,0 l/m 0,0 km/h (0 Bft) S 180 0 min 0,0 UV-I 0 W/m -1,4 C 0,0 C 3,2 km/h (1 Bft)
16.02.2023 06:35 0,0 C -2,2 C 91 % 1027,2 hPa 0,0 l/m 0,0 km/h (0 Bft) N 0 0 min 0,0 UV-I 0 W/m -1,3 C 0,0 C 0,0 km/h (0 Bft)
16.02.2023 06:36 0,0 C -2,2 C 91 % 1027,3 hPa 0,0 l/m 0,0 km/h (0 Bft) S 180 0 min 0,0 UV-I 0 W/m -1,3 C 0,0 C 1,6 km/h (1 Bft)
16.02.2023 06:37 0,0 C -2,2 C 90 % 1027,3 hPa 0,0 l/m 0,0 km/h (0 Bft) S 180 0 min 0,0 UV-I 0 W/m -1,4 C 0,0 C 1,6 km/h (1 Bft)
16.02.2023 06:38 0,0 C -2,2 C 90 % 1027,3 hPa 0,0 l/m 0,0 km/h (0 Bft) N 0 0 min 0,0 UV-I 0 W/m -1,4 C 0,0 C 0,0 km/h (0 Bft)
16.02.2023 06:39 0,0 C -2,2 C 90 % 1027,3 hPa 0,0 l/m 0,0 km/h (0 Bft) N 0 0 min 0,0 UV-I 0 W/m -1,4 C 0,0 C 0,0 km/h (0 Bft)
16.02.2023 06:40 0,0 C -2,2 C 91 % 1027,3 hPa 0,0 l/m 0,0 km/h (0 Bft) N 0 0 min 0,0 UV-I 0 W/m -1,3 C 0,0 C 0,0 km/h (0 Bft)
16.02.2023 06:41 0,1 C -2,8 C 91 % 1027,4 hPa 0,0 l/m 0,0 km/h (0 Bft) N 0 0 min 0,0 UV-I 0 W/m -1,2 C 0,1 C 0,0 km/h (0 Bft)
16.02.2023 06:42 0,1 C -2,8 C 91 % 1027,3 hPa 0,0 l/m 0,0 km/h (0 Bft) N 0 0 min 0,0 UV-I 0 W/m -1,2 C 0,1 C 0,0 km/h (0 Bft)
16.02.2023 06:43 0,1 C -2,8 C 90 % 1027,5 hPa 0,0 l/m 0,0 km/h (0 Bft) N 0 0 min 0,0 UV-I 0 W/m -1,3 C 0,1 C 0,0 km/h (0 Bft)
16.02.2023 06:44 0,1 C -2,8 C 90 % 1027,4 hPa 0,0 l/m 0,0 km/h (0 Bft) S 180 0 min 0,0 UV-I 0 W/m -1,3 C 0,1 C 1,6 km/h (1 Bft)
16.02.2023 06:45 0,1 C -2,8 C 90 % 1027,6 hPa 0,0 l/m 0,0 km/h (0 Bft) S 180 0 min 0,0 UV-I 0 W/m -1,3 C 0,1 C 1,6 km/h (1 Bft)
16.02.2023 06:46 0,1 C -2,8 C 90 % 1027,4 hPa 0,0 l/m 0,0 km/h (0 Bft) N 0 0 min 0,0 UV-I 0 W/m -1,3 C 0,1 C 0,0 km/h (0 Bft)
16.02.2023 06:47 0,1 C -2,8 C 91 % 1027,5 hPa 0,0 l/m 0,0 km/h (0 Bft) N 0 0 min 0,0 UV-I 0 W/m -1,2 C 0,1 C 0,0 km/h (0 Bft)
16.02.2023 06:48 -0,2 C -2,8 C 89 % 1027,5 hPa 0,0 l/m 0,0 km/h (0 Bft) S 180 0 min 0,0 UV-I 0 W/m -1,8 C -0,2 C 1,6 km/h (1 Bft)
16.02.2023 06:49 -0,5 C -3,3 C 89 % 1027,5 hPa 0,0 l/m 0,0 km/h (0 Bft) N 0 0 min 0,0 UV-I 0 W/m -2,1 C -0,5 C 0,0 km/h (0 Bft)
16.02.2023 06:50 -0,7 C -3,3 C 89 % 1027,4 hPa 0,0 l/m 0,0 km/h (0 Bft) N 0 0 min 0,0 UV-I 0 W/m -2,3 C -0,7 C 0,0 km/h (0 Bft)
16.02.2023 06:51 -0,8 C -3,3 C 89 % 1027,5 hPa 0,0 l/m 0,0 km/h (0 Bft) N 0 0 min 0,0 UV-I 0 W/m -2,4 C -0,8 C 0,0 km/h (0 Bft)
16.02.2023 06:52 -0,9 C -3,3 C 89 % 1027,5 hPa 0,0 l/m 0,0 km/h (0 Bft) N 0 0 min 0,0 UV-I 0 W/m -2,5 C -0,9 C 0,0 km/h (0 Bft)
16.02.2023 06:53 -1,1 C -3,3 C 90 % 1027,5 hPa 0,0 l/m 0,0 km/h (0 Bft) N 0 0 min 0,0 UV-I 0 W/m -2,5 C -1,1 C 0,0 km/h (0 Bft)
16.02.2023 06:54 -1,1 C -3,3 C 90 % 1027,4 hPa 0,0 l/m 0,0 km/h (0 Bft) N 0 0 min 0,0 UV-I 0 W/m -2,5 C -1,1 C 0,0 km/h (0 Bft)
16.02.2023 06:55 -1,1 C -3,3 C 90 % 1027,4 hPa 0,0 l/m 0,0 km/h (0 Bft) N 0 0 min 0,0 UV-I 0 W/m -2,5 C -1,1 C 0,0 km/h (0 Bft)
16.02.2023 06:56 -1,1 C -3,3 C 90 % 1027,5 hPa 0,0 l/m 0,0 km/h (0 Bft) N 0 0 min 0,0 UV-I 0 W/m -2,5 C -1,1 C 0,0 km/h (0 Bft)
16.02.2023 06:57 -0,9 C -3,3 C 90 % 1027,4 hPa 0,0 l/m 0,0 km/h (0 Bft) N 0 0 min 0,0 UV-I 0 W/m -2,3 C -0,9 C 0,0 km/h (0 Bft)
16.02.2023 06:58 -0,8 C -3,3 C 91 % 1027,5 hPa 0,0 l/m 0,0 km/h (0 Bft) S 180 0 min 0,0 UV-I 0 W/m -2,1 C -0,8 C 1,6 km/h (1 Bft)
16.02.2023 06:59 -0,6 C -3,3 C 91 % 1027,5 hPa 0,0 l/m 0,0 km/h (0 Bft) S 180 0 min 0,0 UV-I 0 W/m -1,9 C -0,6 C 1,6 km/h (1 Bft)
16.02.2023 07:00 -0,5 C -3,3 C 91 % 1027,5 hPa 0,0 l/m 0,0 km/h (0 Bft) N 0 0 min 0,0 UV-I 0 W/m -1,8 C -0,5 C 0,0 km/h (0 Bft)
16.02.2023 07:01 -0,5 C -3,3 C 91 % 1027,5 hPa 0,0 l/m 0,0 km/h (0 Bft) N 0 0 min 0,0 UV-I 0 W/m -1,8 C -0,5 C 0,0 km/h (0 Bft)
16.02.2023 07:02 -0,5 C -2,8 C 91 % 1027,5 hPa 0,0 l/m 0,0 km/h (0 Bft) N 0 0 min 0,0 UV-I 0 W/m -1,8 C -0,5 C 0,0 km/h (0 Bft)
16.02.2023 07:03 -0,4 C -2,8 C 91 % 1027,4 hPa 0,0 l/m 0,0 km/h (0 Bft) N 0 0 min 0,0 UV-I 0 W/m -1,7 C -0,4 C 0,0 km/h (0 Bft)
16.02.2023 07:04 -0,3 C -2,8 C 91 % 1027,5 hPa 0,0 l/m 0,0 km/h (0 Bft) N 0 0 min 0,0 UV-I 0 W/m -1,6 C -0,3 C 0,0 km/h (0 Bft)
16.02.2023 07:05 -0,3 C -3,3 C 91 % 1027,6 hPa 0,0 l/m 0,0 km/h (0 Bft) N 0 0 min 0,0 UV-I 0 W/m -1,6 C -0,3 C 0,0 km/h (0 Bft)
16.02.2023 07:06 -0,2 C -3,3 C 91 % 1027,5 hPa 0,0 l/m 0,0 km/h (0 Bft) N 0 0 min 0,0 UV-I 0 W/m -1,5 C -0,2 C 0,0 km/h (0 Bft)
16.02.2023 07:07 -0,2 C -2,8 C 91 % 1027,5 hPa 0,0 l/m 0,0 km/h (0 Bft) S 180 0 min 0,0 UV-I 0 W/m -1,5 C -0,2 C 1,6 km/h (1 Bft)
16.02.2023 07:08 -0,1 C -2,8 C 91 % 1027,5 hPa 0,0 l/m 0,0 km/h (0 Bft) S 180 0 min 0,0 UV-I 0 W/m -1,4 C -0,1 C 1,6 km/h (1 Bft)
16.02.2023 07:09 -0,1 C -2,8 C 91 % 1027,5 hPa 0,0 l/m 0,0 km/h (0 Bft) S 180 0 min 0,0 UV-I 0 W/m -1,4 C -0,1 C 1,6 km/h (1 Bft)
16.02.2023 07:10 -0,1 C -2,8 C 91 % 1027,5 hPa 0,0 l/m 0,0 km/h (0 Bft) N 0 0 min 0,0 UV-I 0 W/m -1,4 C -0,1 C 0,0 km/h (0 Bft)
16.02.2023 07:11 -0,1 C -2,8 C 91 % 1027,4 hPa 0,0 l/m 0,0 km/h (0 Bft) S 180 0 min 0,0 UV-I 0 W/m -1,4 C -0,1 C 1,6 km/h (1 Bft)
16.02.2023 07:12 -0,1 C -2,8 C 91 % 1027,5 hPa 0,0 l/m 0,0 km/h (0 Bft) S 180 0 min 0,0 UV-I 0 W/m -1,4 C -0,1 C 1,6 km/h (1 Bft)
16.02.2023 07:13 -0,1 C -2,8 C 91 % 1027,6 hPa 0,0 l/m 0,0 km/h (0 Bft) N 0 0 min 0,0 UV-I 0 W/m -1,4 C -0,1 C 0,0 km/h (0 Bft)
16.02.2023 07:14 -0,2 C -2,8 C 91 % 1027,5 hPa 0,0 l/m 0,0 km/h (0 Bft) N 0 0 min 0,0 UV-I 0 W/m -1,5 C -0,2 C 0,0 km/h (0 Bft)
16.02.2023 07:15 -0,2 C -2,8 C 90 % 1027,5 hPa 0,0 l/m 0,0 km/h (0 Bft) N 0 0 min 0,0 UV-I 0 W/m -1,6 C -0,2 C 0,0 km/h (0 Bft)
16.02.2023 07:16 -0,2 C -2,8 C 90 % 1027,5 hPa 0,0 l/m 0,0 km/h (0 Bft) N 0 0 min 0,0 UV-I 0 W/m -1,6 C -0,2 C 0,0 km/h (0 Bft)
16.02.2023 07:17 -0,3 C -2,8 C 90 % 1027,4 hPa 0,0 l/m 0,0 km/h (0 Bft) N 0 0 min 0,0 UV-I 0 W/m -1,7 C -0,3 C 0,0 km/h (0 Bft)
16.02.2023 07:18 -0,2 C -2,8 C 91 % 1027,5 hPa 0,0 l/m 0,0 km/h (0 Bft) N 0 0 min 0,0 UV-I 0 W/m -1,5 C -0,2 C 0,0 km/h (0 Bft)
16.02.2023 07:19 -0,3 C -2,8 C 91 % 1027,4 hPa 0,0 l/m 0,0 km/h (0 Bft) N 0 0 min 0,0 UV-I 0 W/m -1,6 C -0,3 C 0,0 km/h (0 Bft)
16.02.2023 07:20 -0,2 C -2,8 C 91 % 1027,3 hPa 0,0 l/m 0,0 km/h (0 Bft) N 0 0 min 0,0 UV-I 0 W/m -1,5 C -0,2 C 0,0 km/h (0 Bft)
16.02.2023 07:21 -0,2 C -2,8 C 91 % 1027,3 hPa 0,0 l/m 0,0 km/h (0 Bft) S 180 0 min 0,0 UV-I 0 W/m -1,5 C -0,2 C 1,6 km/h (1 Bft)
16.02.2023 07:22 -0,2 C -2,2 C 91 % 1027,4 hPa 0,0 l/m 0,0 km/h (0 Bft) N 0 0 min 0,0 UV-I 0 W/m -1,5 C -0,2 C 0,0 km/h (0 Bft)
16.02.2023 07:23 -0,3 C -2,2 C 91 % 1027,3 hPa 0,0 l/m 0,0 km/h (0 Bft) N 0 0 min 0,0 UV-I 0 W/m -1,6 C -0,3 C 0,0 km/h (0 Bft)
16.02.2023 07:24 -0,3 C -2,2 C 91 % 1027,3 hPa 0,0 l/m 0,0 km/h (0 Bft) N 0 0 min 0,0 UV-I 0 W/m -1,6 C -0,3 C 0,0 km/h (0 Bft)
16.02.2023 07:25 -0,2 C -2,2 C 91 % 1027,2 hPa 0,0 l/m 0,0 km/h (0 Bft) N 0 0 min 0,0 UV-I 0 W/m -1,5 C -0,2 C 0,0 km/h (0 Bft)
16.02.2023 07:26 -0,2 C -2,8 C 91 % 1027,3 hPa 0,0 l/m 0,0 km/h (0 Bft) S 180 0 min 0,0 UV-I 0 W/m -1,5 C -0,2 C 1,6 km/h (1 Bft)
16.02.2023 07:27 -0,2 C -2,2 C 91 % 1027,3 hPa 0,0 l/m 0,0 km/h (0 Bft) N 0 0 min 0,0 UV-I 0 W/m -1,5 C -0,2 C 0,0 km/h (0 Bft)
16.02.2023 07:28 -0,2 C -2,2 C 91 % 1027,2 hPa 0,0 l/m 0,0 km/h (0 Bft) N 0 0 min 0,0 UV-I 0 W/m -1,5 C -0,2 C 0,0 km/h (0 Bft)
16.02.2023 07:29 -0,2 C -2,2 C 91 % 1027,3 hPa 0,0 l/m 0,0 km/h (0 Bft) N 0 0 min 0,0 UV-I 0 W/m -1,5 C -0,2 C 0,0 km/h (0 Bft)
16.02.2023 07:30 -0,2 C -2,2 C 91 % 1027,3 hPa 0,0 l/m 0,0 km/h (0 Bft) N 0 0 min 0,0 UV-I 0 W/m -1,5 C -0,2 C 0,0 km/h (0 Bft)
16.02.2023 07:31 -0,3 C -2,2 C 91 % 1027,3 hPa 0,0 l/m 0,0 km/h (0 Bft) S 180 0 min 0,0 UV-I 0 W/m -1,6 C -0,3 C 1,6 km/h (1 Bft)
16.02.2023 07:32 -0,2 C -2,2 C 91 % 1027,3 hPa 0,0 l/m 0,0 km/h (0 Bft) S 180 0 min 0,0 UV-I 0 W/m -1,5 C -0,2 C 1,6 km/h (1 Bft)
16.02.2023 07:33 -0,2 C -2,2 C 91 % 1027,3 hPa 0,0 l/m 0,0 km/h (0 Bft) N 0 0 min 0,0 UV-I 0 W/m -1,5 C -0,2 C 0,0 km/h (0 Bft)
16.02.2023 07:34 -0,1 C -1,7 C 91 % 1027,4 hPa 0,0 l/m 0,0 km/h (0 Bft) N 0 0 min 0,0 UV-I 0 W/m -1,4 C -0,1 C 0,0 km/h (0 Bft)
16.02.2023 07:35 -0,1 C -1,7 C 91 % 1027,3 hPa 0,0 l/m 0,0 km/h (0 Bft) N 0 0 min 0,0 UV-I 0 W/m -1,4 C -0,1 C 0,0 km/h (0 Bft)
16.02.2023 07:36 -0,1 C -1,7 C 91 % 1027,4 hPa 0,0 l/m 0,0 km/h (0 Bft) N 0 0 min 0,0 UV-I 0 W/m -1,4 C -0,1 C 0,0 km/h (0 Bft)
16.02.2023 07:37 -0,1 C -1,7 C 91 % 1027,3 hPa 0,0 l/m 0,0 km/h (0 Bft) N 0 0 min 0,0 UV-I 0 W/m -1,4 C -0,1 C 0,0 km/h (0 Bft)
16.02.2023 07:38 -0,1 C -1,7 C 91 % 1027,3 hPa 0,0 l/m 0,0 km/h (0 Bft) N 0 0 min 0,0 UV-I 0 W/m -1,4 C -0,1 C 0,0 km/h (0 Bft)
16.02.2023 07:39 -0,1 C -1,7 C 91 % 1027,3 hPa 0,0 l/m 0,0 km/h (0 Bft) S 180 0 min 0,0 UV-I 0 W/m -1,4 C -0,1 C 1,6 km/h (1 Bft)
16.02.2023 07:40 -0,1 C -1,7 C 91 % 1027,4 hPa 0,0 l/m 0,0 km/h (0 Bft) N 0 0 min 0,0 UV-I 0 W/m -1,4 C -0,1 C 0,0 km/h (0 Bft)
16.02.2023 07:41 -0,1 C -1,7 C 91 % 1027,3 hPa 0,0 l/m 0,0 km/h (0 Bft) N 0 0 min 0,0 UV-I 0 W/m -1,4 C -0,1 C 0,0 km/h (0 Bft)
16.02.2023 07:42 -0,1 C -1,7 C 91 % 1027,3 hPa 0,0 l/m 0,0 km/h (0 Bft) N 0 0 min 0,0 UV-I 0 W/m -1,4 C -0,1 C 0,0 km/h (0 Bft)
16.02.2023 07:43 -0,1 C -1,7 C 91 % 1027,3 hPa 0,0 l/m 0,0 km/h (0 Bft) N 0 0 min 0,0 UV-I 0 W/m -1,4 C -0,1 C 0,0 km/h (0 Bft)
16.02.2023 07:44 -0,1 C -1,7 C 91 % 1027,3 hPa 0,0 l/m 0,0 km/h (0 Bft) N 0 0 min 0,0 UV-I 0 W/m -1,4 C -0,1 C 0,0 km/h (0 Bft)
16.02.2023 07:45 -0,1 C -1,7 C 91 % 1027,3 hPa 0,0 l/m 0,0 km/h (0 Bft) N 0 0 min 0,0 UV-I 5 W/m -1,4 C -0,1 C 0,0 km/h (0 Bft)
16.02.2023 07:46 -0,1 C -1,7 C 91 % 1027,4 hPa 0,0 l/m 0,0 km/h (0 Bft) N 0 0 min 0,0 UV-I 5 W/m -1,4 C -0,1 C 0,0 km/h (0 Bft)
16.02.2023 07:47 -0,1 C -1,7 C 91 % 1027,4 hPa 0,0 l/m 0,0 km/h (0 Bft) N 0 0 min 0,0 UV-I 5 W/m -1,4 C -0,1 C 0,0 km/h (0 Bft)
16.02.2023 07:48 -0,1 C -1,1 C 91 % 1027,4 hPa 0,0 l/m 0,0 km/h (0 Bft) N 0 0 min 0,0 UV-I 7 W/m -1,4 C -0,1 C 0,0 km/h (0 Bft)
16.02.2023 07:51 -0,1 C -1,1 C 91 % 1027,4 hPa 0,0 l/m 0,1 km/h (0 Bft) S 178 0 min 0,0 UV-I 9 W/m -1,4 C -0,1 C 1,6 km/h (1 Bft)
16.02.2023 07:54 0,0 C -1,1 C 91 % 1027,4 hPa 0,0 l/m 1,6 km/h (1 Bft) S 178 0 min 0,0 UV-I 11 W/m -1,3 C 0,0 C 3,2 km/h (1 Bft)
16.02.2023 07:57 0,0 C -1,1 C 91 % 1027,4 hPa 0,0 l/m 2,9 km/h (1 Bft) S 178 0 min 0,0 UV-I 12 W/m -1,3 C 0,0 C 4,8 km/h (1 Bft)
16.02.2023 08:00 -0,5 C -1,1 C 89 % 1027,4 hPa 0,0 l/m 2,1 km/h (1 Bft) S 178 0 min 0,0 UV-I 14 W/m -2,1 C -0,5 C 4,8 km/h (1 Bft)
16.02.2023 08:03 -0,6 C -1,1 C 91 % 1027,4 hPa 0,0 l/m 1,9 km/h (1 Bft) S 178 0 min 0,0 UV-I 17 W/m -1,9 C -0,6 C 3,2 km/h (1 Bft)
16.02.2023 08:06 -0,3 C -1,1 C 91 % 1027,4 hPa 0,0 l/m 1,3 km/h (1 Bft) S 178 0 min 0,0 UV-I 19 W/m -1,6 C -0,3 C 3,2 km/h (1 Bft)
16.02.2023 08:09 -0,2 C -0,6 C 91 % 1027,3 hPa 0,0 l/m 1,2 km/h (1 Bft) S 178 0 min 0,0 UV-I 22 W/m -1,5 C -0,2 C 3,2 km/h (1 Bft)
16.02.2023 08:12 -0,1 C -0,6 C 91 % 1027,3 hPa 0,0 l/m 0,5 km/h (0 Bft) S 178 0 min 0,0 UV-I 25 W/m -1,4 C -0,1 C 3,2 km/h (1 Bft)
16.02.2023 08:15 0,2 C -0,6 C 91 % 1027,4 hPa 0,0 l/m 0,2 km/h (0 Bft) S 180 0 min 0,0 UV-I 30 W/m -1,1 C 0,2 C 3,2 km/h (1 Bft)
16.02.2023 08:18 0,3 C 0,0 C 91 % 1027,3 hPa 0,0 l/m 0,9 km/h (0 Bft) S 181 0 min 0,0 UV-I 32 W/m -1,0 C 0,3 C 6,4 km/h (2 Bft)
16.02.2023 08:21 0,7 C 0,6 C 92 % 1027,4 hPa 0,0 l/m 1,5 km/h (1 Bft) S 181 0 min 0,0 UV-I 32 W/m -0,4 C 0,7 C 3,2 km/h (1 Bft)
16.02.2023 08:24 0,7 C 0,6 C 91 % 1027,4 hPa 0,0 l/m 3,0 km/h (1 Bft) SW 221 0 min 0,0 UV-I 29 W/m -0,6 C 0,7 C 8,0 km/h (2 Bft)
16.02.2023 08:27 0,9 C 0,6 C 91 % 1027,4 hPa 0,0 l/m 2,6 km/h (1 Bft) SW 221 0 min 0,0 UV-I 26 W/m -0,4 C 0,9 C 4,8 km/h (1 Bft)
16.02.2023 08:30 0,8 C 0,6 C 91 % 1027,4 hPa 0,0 l/m 2,4 km/h (1 Bft) S-SW 212 0 min 0,0 UV-I 29 W/m -0,5 C 0,8 C 8,0 km/h (2 Bft)
16.02.2023 08:33 0,8 C 0,6 C 91 % 1027,5 hPa 0,0 l/m 4,2 km/h (1 Bft) SW 215 0 min 0,0 UV-I 31 W/m -0,5 C 0,8 C 6,4 km/h (2 Bft)
16.02.2023 08:36 1,0 C 0,6 C 91 % 1027,5 hPa 0,0 l/m 3,4 km/h (1 Bft) SW 229 0 min 0,0 UV-I 35 W/m -0,3 C 1,0 C 8,0 km/h (2 Bft)
16.02.2023 08:39 1,1 C 0,6 C 91 % 1027,5 hPa 0,0 l/m 2,9 km/h (1 Bft) SW 229 0 min 0,0 UV-I 40 W/m -0,2 C 1,1 C 6,4 km/h (2 Bft)
16.02.2023 08:42 1,2 C 1,1 C 91 % 1027,5 hPa 0,0 l/m 2,9 km/h (1 Bft) SW 231 0 min 0,0 UV-I 43 W/m -0,1 C 1,2 C 6,4 km/h (2 Bft)
16.02.2023 08:45 1,2 C 1,1 C 91 % 1027,5 hPa 0,0 l/m 5,1 km/h (1 Bft) W-SW 246 0 min 0,0 UV-I 43 W/m -0,1 C 1,2 C 8,0 km/h (2 Bft)
16.02.2023 08:48 1,2 C 1,1 C 91 % 1027,5 hPa 0,0 l/m 6,3 km/h (2 Bft) S-SW 209 0 min 0,0 UV-I 40 W/m -0,1 C 1,2 C 9,7 km/h (2 Bft)
16.02.2023 08:51 1,2 C 0,6 C 91 % 1027,5 hPa 0,0 l/m 5,8 km/h (2 Bft) SW 216 0 min 0,0 UV-I 41 W/m -0,1 C 1,2 C 11,3 km/h (2 Bft)
16.02.2023 08:54 1,2 C 0,6 C 91 % 1027,4 hPa 0,0 l/m 5,7 km/h (1 Bft) SW 214 0 min 0,0 UV-I 46 W/m -0,1 C 1,2 C 8,0 km/h (2 Bft)
16.02.2023 08:57 1,2 C 1,1 C 91 % 1027,4 hPa 0,0 l/m 4,7 km/h (1 Bft) SW 219 0 min 0,0 UV-I 51 W/m -0,1 C 1,2 C 8,0 km/h (2 Bft)
16.02.2023 09:00 1,3 C 1,1 C 91 % 1027,3 hPa 0,0 l/m 4,5 km/h (1 Bft) SW 221 0 min 0,0 UV-I 53 W/m -0,0 C 1,3 C 8,0 km/h (2 Bft)
16.02.2023 09:03 1,4 C 1,1 C 91 % 1027,3 hPa 0,0 l/m 4,5 km/h (1 Bft) SW 215 0 min 0,0 UV-I 50 W/m 0,1 C 1,4 C 8,0 km/h (2 Bft)
16.02.2023 09:06 1,6 C 1,1 C 91 % 1027,4 hPa 0,0 l/m 4,4 km/h (1 Bft) SW 225 0 min 0,0 UV-I 51 W/m 0,3 C 1,6 C 8,0 km/h (2 Bft)
16.02.2023 09:09 1,6 C 1,1 C 91 % 1027,5 hPa 0,0 l/m 5,5 km/h (1 Bft) SW 224 0 min 0,0 UV-I 54 W/m 0,3 C 1,6 C 9,7 km/h (2 Bft)
16.02.2023 09:12 1,8 C 1,7 C 91 % 1027,5 hPa 0,0 l/m 8,4 km/h (2 Bft) SW 223 0 min 0,0 UV-I 60 W/m 0,5 C -0,1 C 12,9 km/h (3 Bft)
16.02.2023 09:15 1,9 C 1,7 C 90 % 1027,4 hPa 0,0 l/m 10,7 km/h (2 Bft) S-SW 213 0 min 0,0 UV-I 67 W/m 0,4 C -1,9 C 14,5 km/h (3 Bft)
16.02.2023 09:18 1,9 C 1,7 C 90 % 1027,4 hPa 0,0 l/m 10,3 km/h (2 Bft) S-SW 213 0 min 0,0 UV-I 72 W/m 0,4 C -1,6 C 14,5 km/h (3 Bft)
16.02.2023 09:21 2,1 C 1,7 C 90 % 1027,4 hPa 0,0 l/m 7,9 km/h (2 Bft) S-SW 209 0 min 0,0 UV-I 77 W/m 0,6 C 0,7 C 12,9 km/h (3 Bft)
16.02.2023 09:24 2,2 C 2,2 C 90 % 1027,3 hPa 0,0 l/m 7,0 km/h (2 Bft) SW 219 0 min 0,0 UV-I 78 W/m 0,7 C 1,6 C 14,5 km/h (3 Bft)
16.02.2023 09:27 2,4 C 2,2 C 90 % 1027,4 hPa 0,0 l/m 9,3 km/h (2 Bft) S-SW 205 0 min 0,0 UV-I 78 W/m 0,9 C -0,2 C 16,1 km/h (3 Bft)
16.02.2023 09:30 2,5 C 2,2 C 90 % 1027,4 hPa 0,0 l/m 8,9 km/h (2 Bft) SW 218 0 min 0,0 UV-I 79 W/m 1,0 C 0,2 C 16,1 km/h (3 Bft)
16.02.2023 09:33 2,6 C 2,8 C 89 % 1027,4 hPa 0,0 l/m 8,6 km/h (2 Bft) S-SW 203 0 min 0,0 UV-I 81 W/m 1,0 C 0,6 C 14,5 km/h (3 Bft)
16.02.2023 09:36 2,7 C 2,8 C 89 % 1027,3 hPa 0,0 l/m 10,9 km/h (2 Bft) W-SW 239 0 min 0,5 UV-I 92 W/m 1,1 C -1,1 C 16,1 km/h (3 Bft)
16.02.2023 09:39 2,8 C 2,8 C 89 % 1027,4 hPa 0,0 l/m 12,2 km/h (2 Bft) S-SW 209 0 min 0,5 UV-I 98 W/m 1,2 C -1,9 C 17,7 km/h (3 Bft)
16.02.2023 09:42 2,8 C 2,8 C 89 % 1027,4 hPa 0,0 l/m 11,0 km/h (2 Bft) SW 215 0 min 0,5 UV-I 92 W/m 1,2 C -1,1 C 17,7 km/h (3 Bft)
16.02.2023 09:45 2,9 C 2,8 C 89 % 1027,4 hPa 0,0 l/m 11,6 km/h (2 Bft) SW 217 0 min 0,5 UV-I 96 W/m 1,3 C -1,4 C 16,1 km/h (3 Bft)
16.02.2023 09:48 3,1 C 3,3 C 88 % 1027,3 hPa 0,0 l/m 11,8 km/h (2 Bft) S-SW 209 0 min 0,6 UV-I 112 W/m 1,3 C -1,3 C 16,1 km/h (3 Bft)
16.02.2023 09:51 3,2 C 3,3 C 88 % 1027,3 hPa 0,0 l/m 11,7 km/h (2 Bft) S-SW 199 0 min 0,6 UV-I 131 W/m 1,4 C -1,1 C 17,7 km/h (3 Bft)
16.02.2023 09:54 3,4 C 3,9 C 88 % 1027,3 hPa 0,0 l/m 10,6 km/h (2 Bft) S-SW 209 0 min 0,6 UV-I 139 W/m 1,6 C -0,1 C 17,7 km/h (3 Bft)
16.02.2023 09:57 3,6 C 3,9 C 88 % 1027,3 hPa 0,0 l/m 11,7 km/h (2 Bft) S-SW 197 0 min 0,7 UV-I 141 W/m 1,8 C -0,7 C 16,1 km/h (3 Bft)
16.02.2023 10:00 3,7 C 3,9 C 87 % 1027,4 hPa 0,0 l/m 11,9 km/h (2 Bft) SW 224 0 min 0,7 UV-I 145 W/m 1,7 C -0,7 C 16,1 km/h (3 Bft)
16.02.2023 10:03 3,8 C 3,9 C 87 % 1027,4 hPa 0,0 l/m 11,6 km/h (2 Bft) S-SW 213 0 min 0,7 UV-I 130 W/m 1,8 C -0,4 C 16,1 km/h (3 Bft)
16.02.2023 10:06 3,9 C 4,4 C 87 % 1027,5 hPa 0,0 l/m 12,2 km/h (2 Bft) SW 222 0 min 0,7 UV-I 122 W/m 1,9 C -0,6 C 16,1 km/h (3 Bft)
16.02.2023 10:09 3,9 C 3,9 C 86 % 1027,5 hPa 0,0 l/m 10,3 km/h (2 Bft) SW 236 0 min 0,6 UV-I 102 W/m 1,8 C 0,6 C 16,1 km/h (3 Bft)
16.02.2023 10:12 3,8 C 4,4 C 86 % 1027,5 hPa 0,0 l/m 9,7 km/h (2 Bft) S-SW 213 0 min 0,7 UV-I 118 W/m 1,7 C 1,0 C 17,7 km/h (3 Bft)
16.02.2023 10:15 3,8 C 4,4 C 86 % 1027,5 hPa 0,0 l/m 10,7 km/h (2 Bft) SW 221 0 min 0,7 UV-I 134 W/m 1,7 C 0,2 C 16,1 km/h (3 Bft)
16.02.2023 10:18 3,8 C 3,9 C 86 % 1027,5 hPa 0,0 l/m 11,1 km/h (2 Bft) SW 224 0 min 0,7 UV-I 108 W/m 1,7 C -0,0 C 17,7 km/h (3 Bft)
16.02.2023 10:21 3,8 C 4,4 C 86 % 1027,6 hPa 0,0 l/m 11,5 km/h (2 Bft) SW 215 0 min 0,8 UV-I 133 W/m 1,7 C -0,3 C 20,9 km/h (4 Bft)
16.02.2023 10:24 3,8 C 4,4 C 86 % 1027,6 hPa 0,0 l/m 11,8 km/h (2 Bft) SW 218 0 min 0,8 UV-I 168 W/m 1,7 C -0,5 C 17,7 km/h (3 Bft)
16.02.2023 10:27 3,9 C 4,4 C 86 % 1027,5 hPa 0,0 l/m 12,9 km/h (3 Bft) S-SW 205 0 min 0,9 UV-I 188 W/m 1,8 C -1,1 C 20,9 km/h (4 Bft)
16.02.2023 10:30 4,2 C 5,0 C 86 % 1027,4 hPa 0,0 l/m 10,7 km/h (2 Bft) S-SW 197 0 min 0,9 UV-I 199 W/m 2,1 C 0,7 C 19,3 km/h (3 Bft)
16.02.2023 10:33 4,3 C 5,6 C 86 % 1027,6 hPa 0,0 l/m 8,5 km/h (2 Bft) W-SW 240 0 min 0,9 UV-I 186 W/m 2,2 C 2,5 C 14,5 km/h (3 Bft)
16.02.2023 10:36 4,5 C 5,6 C 85 % 1027,5 hPa 0,0 l/m 7,9 km/h (2 Bft) SW 222 0 min 0,9 UV-I 200 W/m 2,2 C 3,2 C 16,1 km/h (3 Bft)
16.02.2023 10:39 4,7 C 6,1 C 86 % 1027,5 hPa 0,0 l/m 6,2 km/h (2 Bft) SW 231 3 min 1,0 UV-I 252 W/m 2,6 C 4,7 C 14,5 km/h (3 Bft)
16.02.2023 10:42 5,0 C 7,8 C 85 % 1027,5 hPa 0,0 l/m 7,1 km/h (2 Bft) W-SW 239 3 min 1,0 UV-I 322 W/m 2,7 C 4,4 C 14,5 km/h (3 Bft)
16.02.2023 10:45 5,2 C 7,2 C 85 % 1027,6 hPa 0,0 l/m 7,8 km/h (2 Bft) W-SW 239 0 min 0,8 UV-I 213 W/m 2,9 C 4,0 C 16,1 km/h (3 Bft)
16.02.2023 10:48 5,2 C 6,1 C 84 % 1027,5 hPa 0,0 l/m 7,0 km/h (2 Bft) SW 221 0 min 0,7 UV-I 158 W/m 2,7 C 4,7 C 14,5 km/h (3 Bft)
16.02.2023 10:51 5,0 C 5,6 C 84 % 1027,6 hPa 0,0 l/m 7,0 km/h (2 Bft) W 263 0 min 0,7 UV-I 139 W/m 2,5 C 4,5 C 12,9 km/h (3 Bft)
16.02.2023 10:54 4,9 C 5,6 C 84 % 1027,6 hPa 0,0 l/m 7,4 km/h (2 Bft) SW 224 0 min 0,6 UV-I 129 W/m 2,4 C 4,0 C 14,5 km/h (3 Bft)
16.02.2023 10:57 4,9 C 5,6 C 84 % 1027,5 hPa 0,0 l/m 7,6 km/h (2 Bft) SW 216 0 min 0,7 UV-I 127 W/m 2,4 C 3,8 C 16,1 km/h (3 Bft)
16.02.2023 11:00 5,1 C 5,6 C 84 % 1027,6 hPa 0,0 l/m 10,3 km/h (2 Bft) SW 215 0 min 0,7 UV-I 132 W/m 2,6 C 2,0 C 14,5 km/h (3 Bft)
16.02.2023 11:03 5,3 C 5,6 C 84 % 1027,8 hPa 0,0 l/m 11,1 km/h (2 Bft) S-SW 213 0 min 0,7 UV-I 140 W/m 2,8 C 1,7 C 19,3 km/h (3 Bft)
16.02.2023 11:06 5,6 C 6,1 C 84 % 1027,8 hPa 0,0 l/m 11,1 km/h (2 Bft) SW 221 0 min 0,7 UV-I 149 W/m 3,1 C 2,0 C 16,1 km/h (3 Bft)
16.02.2023 11:09 5,7 C 6,1 C 83 % 1027,8 hPa 0,0 l/m 11,0 km/h (2 Bft) SW 222 0 min 0,7 UV-I 144 W/m 3,0 C 2,2 C 17,7 km/h (3 Bft)
16.02.2023 11:12 5,7 C 5,6 C 83 % 1027,9 hPa 0,0 l/m 11,3 km/h (2 Bft) SW 219 0 min 0,7 UV-I 122 W/m 3,0 C 2,0 C 16,1 km/h (3 Bft)
16.02.2023 11:15 5,7 C 5,6 C 83 % 1027,9 hPa 0,0 l/m 11,0 km/h (2 Bft) S-SW 196 0 min 0,7 UV-I 117 W/m 3,0 C 2,2 C 16,1 km/h (3 Bft)
16.02.2023 11:18 5,7 C 5,6 C 83 % 1027,9 hPa 0,0 l/m 12,6 km/h (3 Bft) S-SW 211 0 min 0,7 UV-I 135 W/m 3,0 C 1,2 C 19,3 km/h (3 Bft)
16.02.2023 11:21 5,7 C 6,1 C 83 % 1028,0 hPa 0,0 l/m 14,3 km/h (3 Bft) S-SW 208 0 min 0,9 UV-I 164 W/m 3,0 C 0,3 C 20,9 km/h (4 Bft)
16.02.2023 11:24 5,7 C 6,1 C 83 % 1028,0 hPa 0,0 l/m 12,2 km/h (2 Bft) SW 223 0 min 0,9 UV-I 184 W/m 3,0 C 1,4 C 16,1 km/h (3 Bft)
16.02.2023 11:27 5,7 C 6,1 C 83 % 1028,0 hPa 0,0 l/m 14,4 km/h (3 Bft) SW 215 0 min 0,9 UV-I 181 W/m 3,0 C 0,2 C 19,3 km/h (3 Bft)
16.02.2023 11:30 5,7 C 6,1 C 83 % 1027,9 hPa 0,0 l/m 14,9 km/h (3 Bft) S-SW 208 0 min 0,8 UV-I 167 W/m 3,0 C -0,0 C 19,3 km/h (3 Bft)
16.02.2023 11:33 5,8 C 6,1 C 83 % 1027,9 hPa 0,0 l/m 13,9 km/h (3 Bft) SW 215 0 min 0,8 UV-I 150 W/m 3,1 C 0,6 C 19,3 km/h (3 Bft)
16.02.2023 11:36 5,8 C 6,1 C 83 % 1028,0 hPa 0,0 l/m 14,9 km/h (3 Bft) S-SW 206 0 min 0,7 UV-I 128 W/m 3,1 C 0,1 C 22,5 km/h (4 Bft)
16.02.2023 11:39 5,8 C 5,6 C 83 % 1027,9 hPa 0,0 l/m 14,8 km/h (3 Bft) S 191 0 min 0,5 UV-I 104 W/m 3,1 C 0,1 C 24,1 km/h (4 Bft)
16.02.2023 11:42 5,8 C 5,6 C 83 % 1028,0 hPa 0,0 l/m 15,1 km/h (3 Bft) SW 235 0 min 0,5 UV-I 97 W/m 3,1 C -0,0 C 20,9 km/h (4 Bft)
16.02.2023 11:45 5,8 C 5,6 C 83 % 1027,9 hPa 0,0 l/m 14,0 km/h (3 Bft) S 190 0 min 0,5 UV-I 98 W/m 3,1 C 0,6 C 20,9 km/h (4 Bft)
16.02.2023 11:48 5,9 C 5,6 C 83 % 1028,0 hPa 0,0 l/m 16,1 km/h (3 Bft) S-SW 192 0 min 0,6 UV-I 110 W/m 3,2 C -0,4 C 22,5 km/h (4 Bft)
16.02.2023 11:51 5,9 C 5,6 C 83 % 1028,0 hPa 0,0 l/m 17,8 km/h (3 Bft) S-SW 207 0 min 0,6 UV-I 114 W/m 3,2 C -1,1 C 24,1 km/h (4 Bft)
16.02.2023 11:54 5,9 C 5,6 C 83 % 1028,0 hPa 0,0 l/m 16,4 km/h (3 Bft) S-SW 196 0 min 0,6 UV-I 108 W/m 3,2 C -0,5 C 25,7 km/h (4 Bft)
16.02.2023 11:57 5,8 C 5,6 C 83 % 1028,0 hPa 0,0 l/m 17,3 km/h (3 Bft) S-SW 200 0 min 0,7 UV-I 126 W/m 3,1 C -1,0 C 24,1 km/h (4 Bft)
16.02.2023 12:00 5,9 C 6,1 C 83 % 1028,0 hPa 0,0 l/m 16,8 km/h (3 Bft) S-SW 211 0 min 0,9 UV-I 158 W/m 3,2 C -0,7 C 25,7 km/h (4 Bft)
16.02.2023 12:03 5,9 C 6,1 C 83 % 1027,9 hPa 0,0 l/m 17,1 km/h (3 Bft) S-SW 198 0 min 0,9 UV-I 166 W/m 3,2 C -0,8 C 25,7 km/h (4 Bft)
16.02.2023 12:06 5,9 C 6,1 C 84 % 1027,9 hPa 0,0 l/m 15,6 km/h (3 Bft) S-SW 208 0 min 0,9 UV-I 161 W/m 3,4 C -0,1 C 22,5 km/h (4 Bft)
16.02.2023 12:09 6,0 C 6,1 C 84 % 1027,9 hPa 0,0 l/m 15,1 km/h (3 Bft) S-SW 211 0 min 1,0 UV-I 165 W/m 3,5 C 0,2 C 22,5 km/h (4 Bft)
16.02.2023 12:12 6,1 C 6,7 C 83 % 1027,9 hPa 0,0 l/m 15,1 km/h (3 Bft) S-SW 211 0 min 1,0 UV-I 171 W/m 3,4 C 0,4 C 22,5 km/h (4 Bft)
16.02.2023 12:15 6,2 C 7,2 C 83 % 1027,8 hPa 0,0 l/m 15,1 km/h (3 Bft) S 188 0 min 1,2 UV-I 198 W/m 3,5 C 0,5 C 20,9 km/h (4 Bft)
16.02.2023 12:18 6,3 C 7,8 C 84 % 1027,8 hPa 0,0 l/m 10,7 km/h (2 Bft) S 190 0 min 1,3 UV-I 241 W/m 3,8 C 3,0 C 16,1 km/h (3 Bft)
16.02.2023 12:21 6,6 C 8,3 C 83 % 1027,8 hPa 0,0 l/m 12,1 km/h (2 Bft) S 184 0 min 1,2 UV-I 221 W/m 3,9 C 2,5 C 19,3 km/h (3 Bft)
16.02.2023 12:24 6,7 C 7,8 C 83 % 1027,7 hPa 0,0 l/m 13,1 km/h (3 Bft) S-SW 202 0 min 1,2 UV-I 225 W/m 4,0 C 2,1 C 19,3 km/h (3 Bft)
16.02.2023 12:27 6,8 C 7,8 C 83 % 1027,8 hPa 0,0 l/m 13,2 km/h (3 Bft) S-SO 158 0 min 1,2 UV-I 229 W/m 4,1 C 2,2 C 20,9 km/h (4 Bft)
16.02.2023 12:30 6,8 C 7,8 C 83 % 1027,6 hPa 0,0 l/m 13,7 km/h (3 Bft) S-SW 213 3 min 1,3 UV-I 252 W/m 4,1 C 1,9 C 20,9 km/h (4 Bft)
16.02.2023 12:33 6,8 C 7,8 C 82 % 1027,6 hPa 0,0 l/m 16,1 km/h (3 Bft) S-SW 193 0 min 1,2 UV-I 244 W/m 3,9 C 0,7 C 22,5 km/h (4 Bft)
16.02.2023 12:36 6,8 C 7,2 C 82 % 1027,5 hPa 0,0 l/m 19,0 km/h (3 Bft) S-SW 196 0 min 1,1 UV-I 217 W/m 3,9 C -0,5 C 27,4 km/h (4 Bft)
16.02.2023 12:39 6,8 C 7,2 C 83 % 1027,4 hPa 0,0 l/m 14,6 km/h (3 Bft) S 182 0 min 1,0 UV-I 188 W/m 4,1 C 1,5 C 24,1 km/h (4 Bft)
16.02.2023 12:42 6,8 C 7,2 C 82 % 1027,4 hPa 0,0 l/m 18,5 km/h (3 Bft) S-SW 192 0 min 1,1 UV-I 212 W/m 3,9 C -0,3 C 25,7 km/h (4 Bft)
16.02.2023 12:45 6,8 C 7,2 C 82 % 1027,4 hPa 0,0 l/m 16,6 km/h (3 Bft) S 186 0 min 1,2 UV-I 234 W/m 3,9 C 0,5 C 24,1 km/h (4 Bft)
16.02.2023 12:48 6,8 C 7,8 C 82 % 1027,3 hPa 0,0 l/m 15,8 km/h (3 Bft) SW 226 0 min 1,3 UV-I 241 W/m 3,9 C 0,9 C 22,5 km/h (4 Bft)
16.02.2023 12:51 6,8 C 7,8 C 82 % 1027,4 hPa 0,0 l/m 16,7 km/h (3 Bft) S-SW 203 0 min 1,3 UV-I 231 W/m 3,9 C 0,5 C 24,1 km/h (4 Bft)
16.02.2023 12:54 6,8 C 7,8 C 83 % 1027,4 hPa 0,0 l/m 15,7 km/h (3 Bft) S-SW 209 0 min 1,2 UV-I 218 W/m 4,1 C 0,9 C 24,1 km/h (4 Bft)
16.02.2023 12:57 6,8 C 7,8 C 83 % 1027,3 hPa 0,0 l/m 15,9 km/h (3 Bft) S-SW 194 0 min 1,2 UV-I 220 W/m 4,1 C 0,8 C 24,1 km/h (4 Bft)
16.02.2023 13:00 6,9 C 7,8 C 83 % 1027,2 hPa 0,0 l/m 13,7 km/h (3 Bft) S 187 0 min 1,2 UV-I 226 W/m 4,2 C 2,0 C 20,9 km/h (4 Bft)
16.02.2023 13:03 6,8 C 7,8 C 82 % 1027,3 hPa 0,0 l/m 17,5 km/h (3 Bft) S 181 0 min 1,1 UV-I 213 W/m 3,9 C 0,1 C 32,2 km/h (5 Bft)
16.02.2023 13:06 6,9 C 7,8 C 83 % 1027,3 hPa 0,0 l/m 13,2 km/h (3 Bft) S 188 0 min 1,1 UV-I 212 W/m 4,2 C 2,3 C 22,5 km/h (4 Bft)
16.02.2023 13:09 6,9 C 7,8 C 83 % 1027,2 hPa 0,0 l/m 17,1 km/h (3 Bft) SW 225 0 min 1,3 UV-I 241 W/m 4,2 C 0,4 C 22,5 km/h (4 Bft)
16.02.2023 13:12 6,9 C 7,8 C 83 % 1027,3 hPa 0,0 l/m 17,7 km/h (3 Bft) S-SW 200 0 min 1,2 UV-I 233 W/m 4,2 C 0,2 C 25,7 km/h (4 Bft)
16.02.2023 13:15 7,0 C 7,8 C 82 % 1027,0 hPa 0,0 l/m 19,9 km/h (4 Bft) SW 225 0 min 1,3 UV-I 235 W/m 4,1 C -0,6 C 25,7 km/h (4 Bft)
16.02.2023 13:18 7,1 C 7,8 C 83 % 1027,2 hPa 0,0 l/m 17,1 km/h (3 Bft) S-SW 206 0 min 1,3 UV-I 238 W/m 4,4 C 0,7 C 29,0 km/h (5 Bft)
16.02.2023 13:21 7,1 C 7,8 C 82 % 1027,1 hPa 0,0 l/m 16,6 km/h (3 Bft) SW 229 0 min 1,1 UV-I 197 W/m 4,2 C 0,9 C 27,4 km/h (4 Bft)
16.02.2023 13:24 7,1 C 7,8 C 82 % 1027,3 hPa 0,0 l/m 17,7 km/h (3 Bft) S 178 0 min 1,0 UV-I 195 W/m 4,2 C 0,4 C 24,1 km/h (4 Bft)
16.02.2023 13:27 7,0 C 7,2 C 82 % 1027,1 hPa 0,0 l/m 16,6 km/h (3 Bft) S 181 0 min 0,9 UV-I 164 W/m 4,1 C 0,8 C 20,9 km/h (4 Bft)
16.02.2023 13:30 6,9 C 7,2 C 82 % 1027,0 hPa 0,0 l/m 14,9 km/h (3 Bft) S-SW 199 0 min 0,7 UV-I 131 W/m 4,0 C 1,4 C 25,7 km/h (4 Bft)
16.02.2023 13:33 6,9 C 7,2 C 83 % 1027,1 hPa 0,0 l/m 16,7 km/h (3 Bft) S-SW 195 0 min 0,7 UV-I 133 W/m 4,2 C 0,6 C 25,7 km/h (4 Bft)
16.02.2023 13:36 6,9 C 7,2 C 83 % 1027,1 hPa 0,0 l/m 16,9 km/h (3 Bft) S-SW 192 0 min 0,7 UV-I 141 W/m 4,2 C 0,5 C 27,4 km/h (4 Bft)
16.02.2023 13:39 6,9 C 6,7 C 83 % 1027,0 hPa 0,0 l/m 14,6 km/h (3 Bft) S-SW 194 0 min 0,6 UV-I 108 W/m 4,2 C 1,6 C 22,5 km/h (4 Bft)
16.02.2023 13:42 6,9 C 6,7 C 83 % 1027,1 hPa 0,0 l/m 15,4 km/h (3 Bft) S 190 0 min 0,6 UV-I 119 W/m 4,2 C 1,2 C 24,1 km/h (4 Bft)
16.02.2023 13:45 6,9 C 7,2 C 83 % 1027,1 hPa 0,0 l/m 13,6 km/h (3 Bft) S-SW 204 0 min 0,9 UV-I 163 W/m 4,2 C 2,1 C 24,1 km/h (4 Bft)
16.02.2023 13:48 6,9 C 7,2 C 83 % 1027,0 hPa 0,0 l/m 12,4 km/h (3 Bft) S-SW 194 0 min 0,9 UV-I 154 W/m 4,2 C 2,7 C 17,7 km/h (3 Bft)
16.02.2023 13:51 6,9 C 7,2 C 83 % 1027,0 hPa 0,0 l/m 13,9 km/h (3 Bft) SW 223 0 min 0,7 UV-I 115 W/m 4,2 C 1,9 C 20,9 km/h (4 Bft)
16.02.2023 13:54 6,8 C 6,7 C 83 % 1027,0 hPa 0,0 l/m 14,8 km/h (3 Bft) S-SW 192 0 min 0,5 UV-I 86 W/m 4,1 C 1,4 C 30,6 km/h (5 Bft)
16.02.2023 13:57 6,8 C 6,7 C 84 % 1027,0 hPa 0,0 l/m 12,8 km/h (3 Bft) S-SW 207 0 min 0,6 UV-I 109 W/m 4,3 C 2,4 C 19,3 km/h (3 Bft)
16.02.2023 14:00 6,8 C 7,2 C 84 % 1027,0 hPa 0,0 l/m 12,2 km/h (2 Bft) S-SW 204 0 min 0,8 UV-I 156 W/m 4,3 C 2,7 C 17,7 km/h (3 Bft)
16.02.2023 14:03 6,8 C 7,2 C 84 % 1026,9 hPa 0,0 l/m 11,9 km/h (2 Bft) S-SW 205 0 min 1,0 UV-I 191 W/m 4,3 C 2,9 C 25,7 km/h (4 Bft)
16.02.2023 14:06 6,9 C 8,3 C 84 % 1026,8 hPa 0,0 l/m 11,6 km/h (2 Bft) S-SW 193 0 min 1,2 UV-I 217 W/m 4,4 C 3,2 C 16,1 km/h (3 Bft)
16.02.2023 14:09 6,9 C 8,3 C 84 % 1026,8 hPa 0,0 l/m 14,3 km/h (3 Bft) SW 215 0 min 1,1 UV-I 221 W/m 4,4 C 1,7 C 22,5 km/h (4 Bft)
16.02.2023 14:12 7,0 C 8,3 C 84 % 1026,8 hPa 0,0 l/m 14,0 km/h (3 Bft) S-SW 213 0 min 1,1 UV-I 230 W/m 4,5 C 2,0 C 22,5 km/h (4 Bft)
16.02.2023 14:15 7,1 C 8,3 C 83 % 1026,7 hPa 0,0 l/m 16,5 km/h (3 Bft) S 186 0 min 1,1 UV-I 228 W/m 4,4 C 0,9 C 24,1 km/h (4 Bft)
16.02.2023 14:18 7,1 C 8,3 C 84 % 1026,7 hPa 0,0 l/m 13,6 km/h (3 Bft) SW 217 0 min 1,1 UV-I 212 W/m 4,6 C 2,3 C 20,9 km/h (4 Bft)
16.02.2023 14:21 7,1 C 7,8 C 84 % 1026,6 hPa 0,0 l/m 13,6 km/h (3 Bft) SW 215 0 min 1,1 UV-I 205 W/m 4,6 C 2,3 C 24,1 km/h (4 Bft)
16.02.2023 14:24 7,2 C 7,8 C 84 % 1026,6 hPa 0,0 l/m 12,3 km/h (3 Bft) S-SW 205 0 min 1,0 UV-I 186 W/m 4,7 C 3,1 C 19,3 km/h (3 Bft)
16.02.2023 14:27 7,0 C 7,2 C 84 % 1026,8 hPa 0,0 l/m 16,1 km/h (3 Bft) S 188 0 min 0,8 UV-I 146 W/m 4,5 C 1,0 C 24,1 km/h (4 Bft)
16.02.2023 14:30 6,9 C 7,2 C 84 % 1026,6 hPa 0,0 l/m 18,5 km/h (3 Bft) S-SW 204 0 min 0,7 UV-I 137 W/m 4,4 C -0,1 C 30,6 km/h (5 Bft)
16.02.2023 14:33 6,8 C 7,2 C 84 % 1026,6 hPa 0,0 l/m 17,7 km/h (3 Bft) S-SW 196 0 min 0,8 UV-I 150 W/m 4,3 C 0,1 C 27,4 km/h (4 Bft)
16.02.2023 14:36 6,8 C 7,2 C 84 % 1026,5 hPa 0,0 l/m 17,3 km/h (3 Bft) S-SW 192 0 min 0,9 UV-I 147 W/m 4,3 C 0,2 C 25,7 km/h (4 Bft)
16.02.2023 14:39 6,7 C 7,2 C 84 % 1026,5 hPa 0,0 l/m 16,8 km/h (3 Bft) S 179 0 min 0,9 UV-I 173 W/m 4,2 C 0,3 C 22,5 km/h (4 Bft)
16.02.2023 14:42 6,7 C 7,2 C 85 % 1026,5 hPa 0,0 l/m 11,7 km/h (2 Bft) SW 215 0 min 0,8 UV-I 145 W/m 4,4 C 2,9 C 19,3 km/h (3 Bft)
16.02.2023 14:45 6,7 C 6,7 C 85 % 1026,5 hPa 0,0 l/m 9,7 km/h (2 Bft) S-SW 211 0 min 0,5 UV-I 99 W/m 4,4 C 4,2 C 12,9 km/h (3 Bft)
16.02.2023 14:48 6,6 C 6,7 C 85 % 1026,5 hPa 0,0 l/m 13,6 km/h (3 Bft) S 173 0 min 0,6 UV-I 108 W/m 4,3 C 1,7 C 19,3 km/h (3 Bft)
16.02.2023 14:51 6,7 C 7,2 C 86 % 1026,5 hPa 0,0 l/m 9,4 km/h (2 Bft) S-SW 198 0 min 0,6 UV-I 135 W/m 4,5 C 4,4 C 16,1 km/h (3 Bft)
16.02.2023 14:54 6,6 C 7,8 C 85 % 1026,3 hPa 0,0 l/m 15,0 km/h (3 Bft) S 184 0 min 0,9 UV-I 199 W/m 4,3 C 1,0 C 24,1 km/h (4 Bft)
16.02.2023 14:57 6,7 C 8,3 C 85 % 1026,3 hPa 0,0 l/m 14,1 km/h (3 Bft) S-SW 206 3 min 1,1 UV-I 261 W/m 4,4 C 1,6 C 24,1 km/h (4 Bft)
16.02.2023 15:00 6,9 C 9,4 C 85 % 1026,2 hPa 0,0 l/m 8,7 km/h (2 Bft) S-SW 194 0 min 1,0 UV-I 219 W/m 4,6 C 5,1 C 14,5 km/h (3 Bft)
16.02.2023 15:03 7,1 C 8,9 C 84 % 1026,3 hPa 0,0 l/m 12,3 km/h (3 Bft) S 186 0 min 1,0 UV-I 226 W/m 4,6 C 3,0 C 22,5 km/h (4 Bft)
16.02.2023 15:06 7,1 C 9,4 C 84 % 1026,2 hPa 0,0 l/m 11,2 km/h (2 Bft) S 174 0 min 0,9 UV-I 197 W/m 4,6 C 3,6 C 16,1 km/h (3 Bft)
16.02.2023 15:09 7,3 C 10,6 C 84 % 1026,2 hPa 0,0 l/m 9,4 km/h (2 Bft) S-SW 196 3 min 1,1 UV-I 289 W/m 4,8 C 5,0 C 17,7 km/h (3 Bft)
16.02.2023 15:12 7,3 C 10,0 C 83 % 1026,3 hPa 0,0 l/m 14,3 km/h (3 Bft) S 182 3 min 1,0 UV-I 271 W/m 4,6 C 2,2 C 24,1 km/h (4 Bft)
16.02.2023 15:15 7,3 C 8,9 C 83 % 1026,2 hPa 0,0 l/m 14,1 km/h (3 Bft) S 182 0 min 0,8 UV-I 205 W/m 4,6 C 2,3 C 22,5 km/h (4 Bft)
16.02.2023 15:18 7,4 C 9,4 C 83 % 1026,1 hPa 0,0 l/m 12,7 km/h (3 Bft) S 188 3 min 0,9 UV-I 253 W/m 4,7 C 3,1 C 22,5 km/h (4 Bft)
16.02.2023 15:21 7,5 C 11,7 C 83 % 1026,1 hPa 0,0 l/m 12,9 km/h (3 Bft) S-SW 200 3 min 1,0 UV-I 314 W/m 4,8 C 3,1 C 17,7 km/h (3 Bft)
16.02.2023 15:24 7,6 C 11,7 C 83 % 1026,1 hPa 0,0 l/m 11,7 km/h (2 Bft) S 189 3 min 1,0 UV-I 281 W/m 4,9 C 3,9 C 19,3 km/h (3 Bft)
16.02.2023 15:27 7,7 C 10,6 C 83 % 1026,1 hPa 0,0 l/m 13,9 km/h (3 Bft) SW 214 3 min 0,9 UV-I 252 W/m 5,0 C 2,9 C 20,9 km/h (4 Bft)
16.02.2023 15:30 7,7 C 11,1 C 83 % 1026,2 hPa 0,0 l/m 11,5 km/h (2 Bft) SW 218 3 min 1,0 UV-I 288 W/m 5,0 C 4,1 C 17,7 km/h (3 Bft)
16.02.2023 15:33 7,7 C 11,1 C 83 % 1026,3 hPa 0,0 l/m 9,4 km/h (2 Bft) S-SW 202 3 min 0,8 UV-I 265 W/m 5,0 C 5,4 C 14,5 km/h (3 Bft)
16.02.2023 15:36 7,8 C 12,2 C 82 % 1026,4 hPa 0,0 l/m 13,2 km/h (3 Bft) S-SW 211 3 min 0,9 UV-I 301 W/m 4,9 C 3,3 C 20,9 km/h (4 Bft)
16.02.2023 15:39 7,7 C 11,7 C 82 % 1026,2 hPa 0,0 l/m 13,7 km/h (3 Bft) S-SW 194 3 min 0,9 UV-I 285 W/m 4,8 C 3,0 C 20,9 km/h (4 Bft)
16.02.2023 15:42 7,6 C 11,1 C 82 % 1026,1 hPa 0,0 l/m 15,1 km/h (3 Bft) S-SW 200 3 min 0,9 UV-I 280 W/m 4,7 C 2,2 C 27,4 km/h (4 Bft)
16.02.2023 15:45 7,6 C 10,6 C 82 % 1026,0 hPa 0,0 l/m 13,8 km/h (3 Bft) S-SW 211 0 min 0,8 UV-I 233 W/m 4,7 C 2,8 C 19,3 km/h (3 Bft)
16.02.2023 15:48 7,4 C 10,6 C 83 % 1026,0 hPa 0,0 l/m 13,4 km/h (3 Bft) SW 216 0 min 0,8 UV-I 205 W/m 4,7 C 2,8 C 22,5 km/h (4 Bft)
16.02.2023 15:51 7,4 C 10,6 C 83 % 1026,1 hPa 0,0 l/m 10,8 km/h (2 Bft) S-SW 209 0 min 0,8 UV-I 221 W/m 4,7 C 4,2 C 19,3 km/h (3 Bft)
16.02.2023 15:54 7,4 C 11,1 C 83 % 1026,1 hPa 0,0 l/m 12,6 km/h (3 Bft) S 172 0 min 0,8 UV-I 248 W/m 4,7 C 3,2 C 17,7 km/h (3 Bft)
16.02.2023 15:57 7,4 C 10,6 C 83 % 1026,1 hPa 0,0 l/m 10,6 km/h (2 Bft) S 182 0 min 0,7 UV-I 184 W/m 4,7 C 4,3 C 16,1 km/h (3 Bft)
16.02.2023 16:00 7,3 C 10,6 C 83 % 1026,2 hPa 0,0 l/m 10,4 km/h (2 Bft) S 180 0 min 0,7 UV-I 201 W/m 4,6 C 4,4 C 16,1 km/h (3 Bft)
16.02.2023 16:03 7,3 C 10,6 C 83 % 1026,2 hPa 0,0 l/m 13,1 km/h (3 Bft) S-SW 198 0 min 0,7 UV-I 236 W/m 4,6 C 2,8 C 19,3 km/h (3 Bft)
16.02.2023 16:06 7,2 C 9,4 C 82 % 1026,1 hPa 0,0 l/m 14,1 km/h (3 Bft) S-SW 200 0 min 0,7 UV-I 205 W/m 4,3 C 2,2 C 22,5 km/h (4 Bft)
16.02.2023 16:09 7,2 C 8,9 C 82 % 1026,0 hPa 0,0 l/m 10,9 km/h (2 Bft) S 186 0 min 0,6 UV-I 182 W/m 4,3 C 3,9 C 16,1 km/h (3 Bft)
16.02.2023 16:12 7,2 C 8,3 C 82 % 1025,9 hPa 0,0 l/m 11,4 km/h (2 Bft) S 175 0 min 0,6 UV-I 160 W/m 4,3 C 3,6 C 19,3 km/h (3 Bft)
16.02.2023 16:15 7,1 C 8,3 C 82 % 1026,0 hPa 0,0 l/m 12,4 km/h (3 Bft) S 182 0 min 0,5 UV-I 118 W/m 4,2 C 3,0 C 22,5 km/h (4 Bft)
16.02.2023 16:18 6,9 C 7,8 C 82 % 1026,1 hPa 0,0 l/m 13,0 km/h (3 Bft) S-SO 158 0 min 0,5 UV-I 113 W/m 4,0 C 2,4 C 20,9 km/h (4 Bft)
16.02.2023 16:21 6,9 C 7,2 C 83 % 1026,1 hPa 0,0 l/m 9,7 km/h (2 Bft) S-SW 209 0 min 0,5 UV-I 91 W/m 4,2 C 4,4 C 17,7 km/h (3 Bft)
16.02.2023 16:24 6,8 C 7,8 C 82 % 1026,1 hPa 0,0 l/m 14,3 km/h (3 Bft) S 186 0 min 0,5 UV-I 113 W/m 3,9 C 1,6 C 22,5 km/h (4 Bft)
16.02.2023 16:27 6,9 C 10,0 C 83 % 1026,2 hPa 0,0 l/m 9,4 km/h (2 Bft) S 189 0 min 0,5 UV-I 170 W/m 4,2 C 4,6 C 16,1 km/h (3 Bft)
16.02.2023 16:30 6,9 C 10,6 C 83 % 1026,1 hPa 0,0 l/m 12,5 km/h (3 Bft) S 186 0 min 0,5 UV-I 169 W/m 4,2 C 2,7 C 22,5 km/h (4 Bft)
16.02.2023 16:33 7,1 C 10,0 C 82 % 1026,1 hPa 0,0 l/m 14,2 km/h (3 Bft) S-SW 194 0 min 0,2 UV-I 155 W/m 4,2 C 2,0 C 22,5 km/h (4 Bft)
16.02.2023 16:36 7,1 C 9,4 C 82 % 1026,0 hPa 0,0 l/m 14,0 km/h (3 Bft) S 190 0 min 0,0 UV-I 141 W/m 4,2 C 2,1 C 20,9 km/h (4 Bft)
16.02.2023 16:39 7,1 C 10,0 C 82 % 1025,9 hPa 0,0 l/m 11,6 km/h (2 Bft) S-SW 204 0 min 0,0 UV-I 136 W/m 4,2 C 3,4 C 17,7 km/h (3 Bft)
16.02.2023 16:42 7,1 C 9,4 C 82 % 1025,9 hPa 0,0 l/m 13,1 km/h (3 Bft) S 184 0 min 0,0 UV-I 120 W/m 4,2 C 2,6 C 22,5 km/h (4 Bft)
16.02.2023 16:45 7,1 C 9,4 C 82 % 1025,9 hPa 0,0 l/m 11,3 km/h (2 Bft) S 183 0 min 0,0 UV-I 104 W/m 4,2 C 3,6 C 19,3 km/h (3 Bft)
16.02.2023 16:48 7,1 C 8,9 C 82 % 1025,8 hPa 0,0 l/m 11,4 km/h (2 Bft) S-SO 152 0 min 0,0 UV-I 91 W/m 4,2 C 3,5 C 19,3 km/h (3 Bft)
16.02.2023 16:51 6,9 C 7,8 C 82 % 1025,9 hPa 0,0 l/m 14,0 km/h (3 Bft) S-SW 204 0 min 0,0 UV-I 66 W/m 4,0 C 1,9 C 20,9 km/h (4 Bft)
16.02.2023 16:54 6,9 C 7,8 C 82 % 1025,8 hPa 0,0 l/m 10,9 km/h (2 Bft) S 178 0 min 0,0 UV-I 74 W/m 4,0 C 3,6 C 19,3 km/h (3 Bft)
16.02.2023 16:57 6,9 C 7,2 C 82 % 1025,8 hPa 0,0 l/m 11,9 km/h (2 Bft) S 182 0 min 0,0 UV-I 56 W/m 4,0 C 3,0 C 20,9 km/h (4 Bft)
16.02.2023 17:00 6,8 C 6,7 C 82 % 1025,9 hPa 0,0 l/m 11,4 km/h (2 Bft) S 169 0 min 0,0 UV-I 45 W/m 3,9 C 3,2 C 24,1 km/h (4 Bft)
16.02.2023 17:03 6,8 C 6,1 C 82 % 1025,9 hPa 0,0 l/m 13,2 km/h (3 Bft) S-SW 194 0 min 0,0 UV-I 41 W/m 3,9 C 2,2 C 20,9 km/h (4 Bft)
16.02.2023 17:06 6,7 C 6,1 C 82 % 1026,0 hPa 0,0 l/m 11,9 km/h (2 Bft) S-SW 205 0 min 0,0 UV-I 37 W/m 3,8 C 2,8 C 17,7 km/h (3 Bft)
16.02.2023 17:09 6,7 C 6,1 C 82 % 1026,1 hPa 0,0 l/m 15,2 km/h (3 Bft) S-SW 195 0 min 0,0 UV-I 34 W/m 3,8 C 1,0 C 20,9 km/h (4 Bft)
16.02.2023 17:12 6,7 C 6,1 C 82 % 1026,0 hPa 0,0 l/m 8,2 km/h (2 Bft) S 182 0 min 0,0 UV-I 29 W/m 3,8 C 5,2 C 14,5 km/h (3 Bft)
16.02.2023 17:15 6,6 C 6,1 C 82 % 1025,9 hPa 0,0 l/m 8,6 km/h (2 Bft) S 180 0 min 0,0 UV-I 26 W/m 3,8 C 4,8 C 16,1 km/h (3 Bft)
16.02.2023 17:18 6,6 C 6,1 C 82 % 1026,0 hPa 0,0 l/m 10,7 km/h (2 Bft) S 169 0 min 0,0 UV-I 24 W/m 3,8 C 3,4 C 20,9 km/h (4 Bft)
16.02.2023 17:21 6,6 C 6,1 C 83 % 1026,0 hPa 0,0 l/m 12,8 km/h (3 Bft) S-SO 153 0 min 0,0 UV-I 23 W/m 3,9 C 2,1 C 22,5 km/h (4 Bft)
16.02.2023 17:24 6,5 C 5,6 C 82 % 1026,0 hPa 0,0 l/m 10,8 km/h (2 Bft) S 180 0 min 0,0 UV-I 21 W/m 3,7 C 3,2 C 17,7 km/h (3 Bft)
16.02.2023 17:27 6,5 C 5,6 C 83 % 1026,0 hPa 0,0 l/m 12,1 km/h (2 Bft) S 175 0 min 0,0 UV-I 19 W/m 3,8 C 2,4 C 24,1 km/h (4 Bft)
16.02.2023 17:30 6,4 C 5,6 C 83 % 1025,9 hPa 0,0 l/m 8,4 km/h (2 Bft) S-SW 210 0 min 0,0 UV-I 19 W/m 3,7 C 4,8 C 14,5 km/h (3 Bft)
16.02.2023 17:33 6,3 C 5,6 C 83 % 1026,0 hPa 0,0 l/m 6,9 km/h (2 Bft) S-SW 196 0 min 0,0 UV-I 18 W/m 3,6 C 5,9 C 11,3 km/h (2 Bft)
16.02.2023 17:36 6,3 C 5,6 C 84 % 1026,0 hPa 0,0 l/m 8,9 km/h (2 Bft) S-SW 192 0 min 0,0 UV-I 18 W/m 3,8 C 4,3 C 16,1 km/h (3 Bft)
16.02.2023 17:39 6,2 C 5,0 C 83 % 1025,9 hPa 0,0 l/m 7,8 km/h (2 Bft) S 180 0 min 0,0 UV-I 15 W/m 3,5 C 5,0 C 12,9 km/h (3 Bft)
16.02.2023 17:42 6,1 C 5,0 C 84 % 1025,9 hPa 0,0 l/m 7,8 km/h (2 Bft) S 190 0 min 0,0 UV-I 11 W/m 3,6 C 4,9 C 12,9 km/h (3 Bft)
16.02.2023 17:45 6,1 C 5,0 C 84 % 1025,9 hPa 0,0 l/m 7,0 km/h (2 Bft) S 191 0 min 0,0 UV-I 8 W/m 3,6 C 5,6 C 12,9 km/h (3 Bft)
16.02.2023 17:48 5,9 C 5,0 C 84 % 1025,9 hPa 0,0 l/m 6,0 km/h (2 Bft) S-SW 207 0 min 0,0 UV-I 5 W/m 3,4 C 5,9 C 12,9 km/h (3 Bft)
16.02.2023 17:51 5,9 C 5,0 C 85 % 1025,9 hPa 0,0 l/m 7,2 km/h (2 Bft) S-SO 164 0 min 0,0 UV-I 1 W/m 3,6 C 5,2 C 12,9 km/h (3 Bft)
16.02.2023 17:54 5,7 C 4,4 C 85 % 1025,8 hPa 0,0 l/m 6,0 km/h (2 Bft) S 176 0 min 0,0 UV-I 0 W/m 3,4 C 5,7 C 11,3 km/h (2 Bft)
16.02.2023 17:57 5,7 C 4,4 C 85 % 1025,9 hPa 0,0 l/m 5,7 km/h (1 Bft) S-SO 165 0 min 0,0 UV-I 0 W/m 3,4 C 5,7 C 9,7 km/h (2 Bft)
16.02.2023 18:00 5,7 C 4,4 C 86 % 1026,0 hPa 0,0 l/m 7,1 km/h (2 Bft) S 170 0 min 0,0 UV-I 0 W/m 3,5 C 5,1 C 11,3 km/h (2 Bft)
16.02.2023 18:03 5,6 C 4,4 C 86 % 1025,9 hPa 0,0 l/m 5,1 km/h (1 Bft) S-SO 166 0 min 0,0 UV-I 0 W/m 3,4 C 5,6 C 14,5 km/h (3 Bft)
16.02.2023 18:06 5,6 C 5,0 C 86 % 1025,9 hPa 0,0 l/m 5,6 km/h (1 Bft) S 175 0 min 0,0 UV-I 0 W/m 3,4 C 5,6 C 9,7 km/h (2 Bft)
16.02.2023 18:09 5,6 C 5,0 C 86 % 1026,0 hPa 0,0 l/m 7,4 km/h (2 Bft) S 175 0 min 0,0 UV-I 0 W/m 3,4 C 4,7 C 14,5 km/h (3 Bft)
16.02.2023 18:12 5,6 C 5,0 C 86 % 1026,0 hPa 0,0 l/m 8,0 km/h (2 Bft) S 178 0 min 0,0 UV-I 0 W/m 3,4 C 4,2 C 14,5 km/h (3 Bft)
16.02.2023 18:15 5,7 C 5,0 C 86 % 1025,9 hPa 0,0 l/m 10,1 km/h (2 Bft) S-SO 167 0 min 0,0 UV-I 0 W/m 3,5 C 2,8 C 19,3 km/h (3 Bft)
16.02.2023 18:18 5,7 C 5,0 C 86 % 1025,9 hPa 0,0 l/m 10,6 km/h (2 Bft) S-SW 196 0 min 0,0 UV-I 0 W/m 3,5 C 2,4 C 17,7 km/h (3 Bft)
16.02.2023 18:21 5,7 C 4,4 C 86 % 1026,0 hPa 0,0 l/m 9,3 km/h (2 Bft) S 180 0 min 0,0 UV-I 0 W/m 3,5 C 3,3 C 17,7 km/h (3 Bft)
16.02.2023 18:24 5,7 C 4,4 C 86 % 1026,0 hPa 0,0 l/m 10,7 km/h (2 Bft) S 190 0 min 0,0 UV-I 0 W/m 3,5 C 2,4 C 17,7 km/h (3 Bft)
16.02.2023 18:27 5,7 C 4,4 C 86 % 1026,1 hPa 0,0 l/m 11,7 km/h (2 Bft) S-SW 207 0 min 0,0 UV-I 0 W/m 3,5 C 1,7 C 20,9 km/h (4 Bft)
16.02.2023 18:30 5,7 C 4,4 C 86 % 1026,0 hPa 0,0 l/m 12,5 km/h (3 Bft) S-SW 200 0 min 0,0 UV-I 0 W/m 3,5 C 1,3 C 20,9 km/h (4 Bft)
16.02.2023 18:33 5,7 C 4,4 C 86 % 1026,0 hPa 0,0 l/m 11,1 km/h (2 Bft) S 185 0 min 0,0 UV-I 0 W/m 3,5 C 2,1 C 17,7 km/h (3 Bft)
16.02.2023 18:36 5,7 C 4,4 C 86 % 1025,9 hPa 0,0 l/m 9,9 km/h (2 Bft) S 184 0 min 0,0 UV-I 0 W/m 3,5 C 2,9 C 14,5 km/h (3 Bft)
16.02.2023 18:39 5,6 C 4,4 C 86 % 1025,9 hPa 0,0 l/m 10,2 km/h (2 Bft) S 174 0 min 0,0 UV-I 0 W/m 3,4 C 2,6 C 17,7 km/h (3 Bft)
16.02.2023 18:42 5,6 C 4,4 C 86 % 1025,9 hPa 0,0 l/m 10,3 km/h (2 Bft) S-SO 161 0 min 0,0 UV-I 0 W/m 3,4 C 2,5 C 17,7 km/h (3 Bft)
16.02.2023 18:45 5,6 C 4,4 C 87 % 1026,0 hPa 0,0 l/m 10,2 km/h (2 Bft) S 176 0 min 0,0 UV-I 0 W/m 3,6 C 2,6 C 19,3 km/h (3 Bft)
16.02.2023 18:48 5,6 C 4,4 C 87 % 1026,1 hPa 0,0 l/m 11,8 km/h (2 Bft) S 176 0 min 0,0 UV-I 0 W/m 3,6 C 1,6 C 19,3 km/h (3 Bft)
16.02.2023 18:51 5,6 C 4,4 C 87 % 1026,0 hPa 0,0 l/m 11,0 km/h (2 Bft) S-SO 158 0 min 0,0 UV-I 0 W/m 3,6 C 2,1 C 17,7 km/h (3 Bft)
16.02.2023 18:54 5,7 C 5,0 C 87 % 1026,1 hPa 0,0 l/m 12,6 km/h (3 Bft) S-SW 198 0 min 0,0 UV-I 0 W/m 3,7 C 1,2 C 24,1 km/h (4 Bft)
16.02.2023 18:57 5,7 C 5,0 C 87 % 1026,0 hPa 0,0 l/m 13,1 km/h (3 Bft) S-SO 166 0 min 0,0 UV-I 0 W/m 3,7 C 0,9 C 22,5 km/h (4 Bft)
16.02.2023 19:00 5,8 C 5,0 C 87 % 1026,1 hPa 0,0 l/m 13,1 km/h (3 Bft) S 170 0 min 0,0 UV-I 0 W/m 3,8 C 1,0 C 20,9 km/h (4 Bft)
16.02.2023 19:03 5,8 C 5,0 C 87 % 1026,1 hPa 0,0 l/m 13,9 km/h (3 Bft) S 171 0 min 0,0 UV-I 0 W/m 3,8 C 0,6 C 22,5 km/h (4 Bft)
16.02.2023 19:06 5,9 C 5,6 C 87 % 1026,1 hPa 0,0 l/m 13,4 km/h (3 Bft) S 175 0 min 0,0 UV-I 0 W/m 3,9 C 1,0 C 24,1 km/h (4 Bft)
16.02.2023 19:09 5,9 C 5,6 C 87 % 1026,2 hPa 0,0 l/m 11,6 km/h (2 Bft) S 191 0 min 0,0 UV-I 0 W/m 3,9 C 2,0 C 19,3 km/h (3 Bft)
16.02.2023 19:12 5,9 C 5,6 C 87 % 1026,1 hPa 0,0 l/m 13,6 km/h (3 Bft) S 176 0 min 0,0 UV-I 0 W/m 3,9 C 0,9 C 24,1 km/h (4 Bft)
16.02.2023 19:15 6,0 C 5,6 C 87 % 1025,9 hPa 0,0 l/m 15,3 km/h (3 Bft) S 190 0 min 0,0 UV-I 0 W/m 4,0 C 0,1 C 25,7 km/h (4 Bft)
16.02.2023 19:18 6,1 C 5,6 C 87 % 1026,1 hPa 0,0 l/m 16,4 km/h (3 Bft) S 184 0 min 0,0 UV-I 0 W/m 4,1 C -0,3 C 30,6 km/h (5 Bft)
16.02.2023 19:21 6,0 C 5,0 C 87 % 1026,1 hPa 0,0 l/m 15,1 km/h (3 Bft) S-SW 196 0 min 0,0 UV-I 0 W/m 4,0 C 0,2 C 25,7 km/h (4 Bft)
16.02.2023 19:24 5,9 C 5,0 C 87 % 1026,1 hPa 0,0 l/m 13,0 km/h (3 Bft) S 190 0 min 0,0 UV-I 0 W/m 3,9 C 1,2 C 19,3 km/h (3 Bft)
16.02.2023 19:27 5,9 C 5,0 C 87 % 1026,1 hPa 0,0 l/m 13,6 km/h (3 Bft) S-SW 200 0 min 0,0 UV-I 0 W/m 3,9 C 0,9 C 20,9 km/h (4 Bft)
16.02.2023 19:30 5,9 C 5,0 C 88 % 1026,1 hPa 0,0 l/m 14,8 km/h (3 Bft) S 173 0 min 0,0 UV-I 0 W/m 4,1 C 0,3 C 24,1 km/h (4 Bft)
16.02.2023 19:33 5,9 C 5,0 C 88 % 1026,2 hPa 0,0 l/m 15,2 km/h (3 Bft) S-SW 197 0 min 0,0 UV-I 0 W/m 4,1 C 0,1 C 25,7 km/h (4 Bft)
16.02.2023 19:36 5,9 C 5,0 C 88 % 1026,2 hPa 0,0 l/m 15,4 km/h (3 Bft) S-SW 211 0 min 0,0 UV-I 0 W/m 4,1 C -0,0 C 29,0 km/h (5 Bft)
16.02.2023 19:39 5,9 C 5,0 C 88 % 1026,1 hPa 0,0 l/m 13,8 km/h (3 Bft) S 184 0 min 0,0 UV-I 0 W/m 4,1 C 0,8 C 20,9 km/h (4 Bft)
16.02.2023 19:42 5,9 C 5,0 C 88 % 1026,1 hPa 0,0 l/m 14,6 km/h (3 Bft) S 188 0 min 0,0 UV-I 0 W/m 4,1 C 0,4 C 22,5 km/h (4 Bft)
16.02.2023 19:45 5,9 C 5,0 C 88 % 1026,1 hPa 0,0 l/m 13,9 km/h (3 Bft) SW 221 0 min 0,0 UV-I 0 W/m 4,1 C 0,7 C 22,5 km/h (4 Bft)
16.02.2023 19:48 5,8 C 5,0 C 88 % 1026,2 hPa 0,0 l/m 15,5 km/h (3 Bft) S 171 0 min 0,0 UV-I 0 W/m 4,0 C -0,2 C 29,0 km/h (5 Bft)
16.02.2023 19:51 5,8 C 5,0 C 88 % 1026,2 hPa 0,0 l/m 14,8 km/h (3 Bft) S-SW 198 0 min 0,0 UV-I 0 W/m 4,0 C 0,1 C 22,5 km/h (4 Bft)
16.02.2023 19:54 5,8 C 5,0 C 88 % 1026,2 hPa 0,0 l/m 13,4 km/h (3 Bft) S 179 0 min 0,0 UV-I 0 W/m 4,0 C 0,9 C 24,1 km/h (4 Bft)
16.02.2023 19:57 5,8 C 5,0 C 88 % 1026,2 hPa 0,0 l/m 13,9 km/h (3 Bft) S-SO 167 0 min 0,0 UV-I 0 W/m 4,0 C 0,6 C 19,3 km/h (3 Bft)
16.02.2023 20:00 5,8 C 5,0 C 89 % 1026,2 hPa 0,0 l/m 15,4 km/h (3 Bft) S-SW 194 0 min 0,0 UV-I 0 W/m 4,1 C -0,2 C 25,7 km/h (4 Bft)
16.02.2023 20:03 5,8 C 5,0 C 89 % 1026,1 hPa 0,0 l/m 12,6 km/h (3 Bft) S-SW 198 0 min 0,0 UV-I 0 W/m 4,1 C 1,3 C 16,1 km/h (3 Bft)
16.02.2023 20:06 5,8 C 5,0 C 89 % 1026,1 hPa 0,0 l/m 13,6 km/h (3 Bft) S-SW 202 0 min 0,0 UV-I 0 W/m 4,1 C 0,8 C 25,7 km/h (4 Bft)
16.02.2023 20:09 5,8 C 5,0 C 89 % 1026,0 hPa 0,0 l/m 14,3 km/h (3 Bft) S-SW 210 0 min 0,0 UV-I 0 W/m 4,1 C 0,4 C 25,7 km/h (4 Bft)
16.02.2023 20:12 5,9 C 5,0 C 89 % 1026,1 hPa 0,0 l/m 13,3 km/h (3 Bft) SW 220 0 min 0,0 UV-I 0 W/m 4,2 C 1,1 C 25,7 km/h (4 Bft)
16.02.2023 20:15 5,9 C 5,0 C 89 % 1026,0 hPa 0,0 l/m 14,6 km/h (3 Bft) S-SW 210 0 min 0,0 UV-I 0 W/m 4,2 C 0,4 C 22,5 km/h (4 Bft)
16.02.2023 20:18 6,0 C 5,0 C 89 % 1026,1 hPa 0,0 l/m 14,2 km/h (3 Bft) S 184 0 min 0,0 UV-I 0 W/m 4,3 C 0,7 C 20,9 km/h (4 Bft)
16.02.2023 20:21 6,0 C 5,0 C 89 % 1026,1 hPa 0,0 l/m 14,9 km/h (3 Bft) S-SW 198 0 min 0,0 UV-I 0 W/m 4,3 C 0,3 C 22,5 km/h (4 Bft)
16.02.2023 20:24 6,1 C 5,0 C 90 % 1026,1 hPa 0,0 l/m 13,3 km/h (3 Bft) S-SW 209 0 min 0,0 UV-I 0 W/m 4,6 C 1,3 C 22,5 km/h (4 Bft)
16.02.2023 20:27 6,1 C 5,0 C 90 % 1026,1 hPa 0,0 l/m 15,2 km/h (3 Bft) S 184 0 min 0,0 UV-I 0 W/m 4,6 C 0,3 C 24,1 km/h (4 Bft)
16.02.2023 20:30 6,1 C 5,6 C 90 % 1026,1 hPa 0,2 l/m 15,2 km/h (3 Bft) S 183 0 min 0,0 UV-I 0 W/m 4,6 C 0,3 C 25,7 km/h (4 Bft)
16.02.2023 20:33 6,2 C 5,6 C 90 % 1026,2 hPa 0,0 l/m 14,4 km/h (3 Bft) S 191 0 min 0,0 UV-I 0 W/m 4,7 C 0,8 C 20,9 km/h (4 Bft)
16.02.2023 20:36 6,1 C 5,6 C 90 % 1026,2 hPa 0,0 l/m 13,6 km/h (3 Bft) S-SW 207 0 min 0,0 UV-I 0 W/m 4,6 C 1,1 C 17,7 km/h (3 Bft)
16.02.2023 20:39 6,2 C 5,6 C 90 % 1026,2 hPa 0,0 l/m 13,0 km/h (3 Bft) SW 215 0 min 0,0 UV-I 0 W/m 4,7 C 1,6 C 17,7 km/h (3 Bft)
16.02.2023 20:42 6,2 C 5,6 C 90 % 1026,1 hPa 0,0 l/m 15,2 km/h (3 Bft) S-SW 192 0 min 0,0 UV-I 0 W/m 4,7 C 0,4 C 22,5 km/h (4 Bft)
16.02.2023 20:45 6,2 C 5,6 C 90 % 1026,1 hPa 0,0 l/m 13,9 km/h (3 Bft) S-SO 167 0 min 0,0 UV-I 0 W/m 4,7 C 1,1 C 22,5 km/h (4 Bft)
16.02.2023 20:48 6,3 C 5,6 C 90 % 1026,0 hPa 0,0 l/m 14,2 km/h (3 Bft) S-SW 192 0 min 0,0 UV-I 0 W/m 4,8 C 1,1 C 20,9 km/h (4 Bft)
16.02.2023 20:51 6,3 C 5,6 C 90 % 1026,1 hPa 0,0 l/m 14,7 km/h (3 Bft) S 169 0 min 0,0 UV-I 0 W/m 4,8 C 0,8 C 25,7 km/h (4 Bft)
16.02.2023 20:54 6,3 C 5,6 C 90 % 1026,1 hPa 0,0 l/m 12,2 km/h (2 Bft) S 184 0 min 0,0 UV-I 0 W/m 4,8 C 2,1 C 22,5 km/h (4 Bft)
16.02.2023 20:57 6,3 C 5,6 C 91 % 1026,0 hPa 0,2 l/m 15,3 km/h (3 Bft) S-SW 194 0 min 0,0 UV-I 0 W/m 4,9 C 0,5 C 25,7 km/h (4 Bft)
16.02.2023 21:00 6,3 C 5,6 C 91 % 1026,1 hPa 0,0 l/m 14,3 km/h (3 Bft) S 184 0 min 0,0 UV-I 0 W/m 4,9 C 1,0 C 24,1 km/h (4 Bft)
16.02.2023 21:03 6,3 C 5,6 C 91 % 1025,9 hPa 0,0 l/m 13,9 km/h (3 Bft) SW 217 0 min 0,0 UV-I 0 W/m 4,9 C 1,2 C 22,5 km/h (4 Bft)
16.02.2023 21:06 6,3 C 5,6 C 91 % 1026,0 hPa 0,0 l/m 15,3 km/h (3 Bft) S 189 0 min 0,0 UV-I 0 W/m 4,9 C 0,5 C 24,1 km/h (4 Bft)
16.02.2023 21:09 6,3 C 5,6 C 91 % 1026,0 hPa 0,0 l/m 14,2 km/h (3 Bft) S 183 0 min 0,0 UV-I 0 W/m 4,9 C 1,1 C 20,9 km/h (4 Bft)
16.02.2023 21:12 6,3 C 5,6 C 91 % 1026,0 hPa 0,0 l/m 14,8 km/h (3 Bft) S 186 0 min 0,0 UV-I 0 W/m 4,9 C 0,7 C 22,5 km/h (4 Bft)
16.02.2023 21:15 6,4 C 5,6 C 91 % 1026,1 hPa 0,2 l/m 15,0 km/h (3 Bft) S-SW 196 0 min 0,0 UV-I 0 W/m 5,0 C 0,8 C 25,7 km/h (4 Bft)
16.02.2023 21:18 6,4 C 5,6 C 91 % 1026,0 hPa 0,0 l/m 14,8 km/h (3 Bft) S 182 0 min 0,0 UV-I 0 W/m 5,0 C 0,9 C 22,5 km/h (4 Bft)
16.02.2023 21:21 6,4 C 5,6 C 91 % 1026,0 hPa 0,0 l/m 14,2 km/h (3 Bft) S-SW 209 0 min 0,0 UV-I 0 W/m 5,0 C 1,2 C 22,5 km/h (4 Bft)
16.02.2023 21:24 6,4 C 5,6 C 91 % 1026,0 hPa 0,0 l/m 17,0 km/h (3 Bft) S 189 0 min 0,0 UV-I 0 W/m 5,0 C -0,1 C 29,0 km/h (5 Bft)
16.02.2023 21:27 6,4 C 5,6 C 91 % 1026,0 hPa 0,0 l/m 15,2 km/h (3 Bft) SW 215 0 min 0,0 UV-I 0 W/m 5,0 C 0,7 C 27,4 km/h (4 Bft)
16.02.2023 21:30 6,4 C 5,6 C 91 % 1026,0 hPa 0,0 l/m 16,0 km/h (3 Bft) S-SW 196 0 min 0,0 UV-I 0 W/m 5,0 C 0,3 C 29,0 km/h (5 Bft)
16.02.2023 21:33 6,5 C 5,6 C 91 % 1026,1 hPa 0,0 l/m 16,3 km/h (3 Bft) S-SO 159 0 min 0,0 UV-I 0 W/m 5,1 C 0,3 C 25,7 km/h (4 Bft)
16.02.2023 21:36 6,5 C 5,6 C 91 % 1026,0 hPa 0,0 l/m 15,1 km/h (3 Bft) S-SW 192 0 min 0,0 UV-I 0 W/m 5,1 C 0,8 C 25,7 km/h (4 Bft)
16.02.2023 21:39 6,5 C 6,1 C 92 % 1025,9 hPa 0,0 l/m 17,1 km/h (3 Bft) S-SW 206 0 min 0,0 UV-I 0 W/m 5,3 C -0,1 C 27,4 km/h (4 Bft)
16.02.2023 21:42 6,6 C 6,1 C 92 % 1026,0 hPa 0,0 l/m 17,1 km/h (3 Bft) S-SW 197 0 min 0,0 UV-I 0 W/m 5,4 C 0,1 C 30,6 km/h (5 Bft)
16.02.2023 21:45 6,6 C 6,1 C 92 % 1025,9 hPa 0,0 l/m 19,6 km/h (3 Bft) SW 217 0 min 0,0 UV-I 0 W/m 5,4 C -1,0 C 32,2 km/h (5 Bft)
16.02.2023 21:48 6,6 C 6,1 C 92 % 1025,9 hPa 0,0 l/m 16,5 km/h (3 Bft) S 191 0 min 0,0 UV-I 0 W/m 5,4 C 0,3 C 27,4 km/h (4 Bft)
16.02.2023 21:51 6,6 C 6,1 C 92 % 1025,8 hPa 0,0 l/m 20,0 km/h (4 Bft) S 189 0 min 0,0 UV-I 0 W/m 5,4 C -1,1 C 30,6 km/h (5 Bft)
16.02.2023 21:54 6,6 C 6,1 C 92 % 1025,9 hPa 0,0 l/m 20,1 km/h (4 Bft) S 171 0 min 0,0 UV-I 0 W/m 5,4 C -1,1 C 30,6 km/h (5 Bft)
16.02.2023 21:57 6,6 C 6,1 C 92 % 1025,8 hPa 0,0 l/m 14,4 km/h (3 Bft) S-SW 213 0 min 0,0 UV-I 0 W/m 5,4 C 1,3 C 27,4 km/h (4 Bft)
16.02.2023 22:00 6,7 C 6,1 C 92 % 1025,7 hPa 0,2 l/m 19,1 km/h (3 Bft) S-SO 159 0 min 0,0 UV-I 0 W/m 5,5 C -0,6 C 33,8 km/h (5 Bft)
16.02.2023 22:03 6,7 C 6,1 C 92 % 1025,8 hPa 0,0 l/m 17,2 km/h (3 Bft) S-SW 200 0 min 0,0 UV-I 0 W/m 5,5 C 0,1 C 25,7 km/h (4 Bft)
16.02.2023 22:06 6,7 C 6,1 C 92 % 1025,8 hPa 0,0 l/m 16,1 km/h (3 Bft) S-SW 213 0 min 0,0 UV-I 0 W/m 5,5 C 0,6 C 24,1 km/h (4 Bft)
16.02.2023 22:09 6,7 C 6,1 C 92 % 1025,8 hPa 0,0 l/m 15,6 km/h (3 Bft) S 186 0 min 0,0 UV-I 0 W/m 5,5 C 0,9 C 27,4 km/h (4 Bft)
16.02.2023 22:12 6,7 C 6,1 C 92 % 1025,8 hPa 0,0 l/m 14,4 km/h (3 Bft) SW 214 0 min 0,0 UV-I 0 W/m 5,5 C 1,4 C 22,5 km/h (4 Bft)
16.02.2023 22:15 6,8 C 6,1 C 92 % 1025,8 hPa 0,0 l/m 14,7 km/h (3 Bft) S-SW 206 0 min 0,0 UV-I 0 W/m 5,6 C 1,4 C 24,1 km/h (4 Bft)
16.02.2023 22:18 6,8 C 6,1 C 92 % 1025,8 hPa 0,0 l/m 14,1 km/h (3 Bft) S-SW 207 0 min 0,0 UV-I 0 W/m 5,6 C 1,7 C 22,5 km/h (4 Bft)
16.02.2023 22:21 6,7 C 6,1 C 92 % 1025,9 hPa 0,0 l/m 11,5 km/h (2 Bft) S 191 0 min 0,0 UV-I 0 W/m 5,5 C 3,0 C 22,5 km/h (4 Bft)
16.02.2023 22:24 6,8 C 6,1 C 92 % 1025,6 hPa 0,0 l/m 15,9 km/h (3 Bft) SW 219 0 min 0,0 UV-I 0 W/m 5,6 C 0,8 C 33,8 km/h (5 Bft)
16.02.2023 22:27 6,8 C 6,1 C 92 % 1025,6 hPa 0,0 l/m 14,3 km/h (3 Bft) S 185 0 min 0,0 UV-I 0 W/m 5,6 C 1,6 C 24,1 km/h (4 Bft)
16.02.2023 22:30 6,8 C 6,1 C 92 % 1025,7 hPa 0,0 l/m 17,1 km/h (3 Bft) S-SW 195 0 min 0,0 UV-I 0 W/m 5,6 C 0,3 C 25,7 km/h (4 Bft)
16.02.2023 22:33 6,8 C 6,1 C 92 % 1025,6 hPa 0,0 l/m 15,6 km/h (3 Bft) S-SW 197 0 min 0,0 UV-I 0 W/m 5,6 C 1,0 C 25,7 km/h (4 Bft)
16.02.2023 22:36 6,8 C 6,1 C 92 % 1025,5 hPa 0,0 l/m 17,0 km/h (3 Bft) S 170 0 min 0,0 UV-I 0 W/m 5,6 C 0,3 C 25,7 km/h (4 Bft)
16.02.2023 22:39 6,8 C 6,1 C 92 % 1025,6 hPa 0,0 l/m 13,4 km/h (3 Bft) S 178 0 min 0,0 UV-I 0 W/m 5,6 C 2,1 C 20,9 km/h (4 Bft)
16.02.2023 22:42 6,8 C 6,1 C 92 % 1025,4 hPa 0,0 l/m 14,9 km/h (3 Bft) S-SW 210 0 min 0,0 UV-I 0 W/m 5,6 C 1,3 C 20,9 km/h (4 Bft)
16.02.2023 22:45 6,8 C 6,1 C 92 % 1025,4 hPa 0,0 l/m 18,0 km/h (3 Bft) S 173 0 min 0,0 UV-I 0 W/m 5,6 C -0,1 C 29,0 km/h (5 Bft)
16.02.2023 22:48 6,8 C 6,1 C 92 % 1025,3 hPa 0,0 l/m 17,2 km/h (3 Bft) S 179 0 min 0,0 UV-I 0 W/m 5,6 C 0,3 C 30,6 km/h (5 Bft)
16.02.2023 22:51 6,8 C 6,1 C 92 % 1025,5 hPa 0,0 l/m 14,6 km/h (3 Bft) S 191 0 min 0,0 UV-I 0 W/m 5,6 C 1,5 C 27,4 km/h (4 Bft)
16.02.2023 22:54 6,8 C 6,1 C 92 % 1025,4 hPa 0,0 l/m 16,3 km/h (3 Bft) S-SO 167 0 min 0,0 UV-I 0 W/m 5,6 C 0,7 C 24,1 km/h (4 Bft)
16.02.2023 22:57 6,9 C 6,1 C 92 % 1025,3 hPa 0,0 l/m 15,4 km/h (3 Bft) S-SW 203 0 min 0,0 UV-I 0 W/m 5,7 C 1,2 C 24,1 km/h (4 Bft)
16.02.2023 23:00 6,8 C 6,1 C 92 % 1025,5 hPa 0,0 l/m 17,5 km/h (3 Bft) SW 219 0 min 0,0 UV-I 0 W/m 5,6 C 0,1 C 25,7 km/h (4 Bft)
16.02.2023 23:03 6,8 C 6,1 C 92 % 1025,4 hPa 0,0 l/m 16,6 km/h (3 Bft) S 185 0 min 0,0 UV-I 0 W/m 5,6 C 0,5 C 25,7 km/h (4 Bft)
16.02.2023 23:06 6,9 C 6,1 C 92 % 1025,4 hPa 0,0 l/m 15,0 km/h (3 Bft) S 186 0 min 0,0 UV-I 0 W/m 5,7 C 1,4 C 24,1 km/h (4 Bft)
16.02.2023 23:09 6,9 C 6,1 C 92 % 1025,4 hPa 0,0 l/m 15,7 km/h (3 Bft) S 186 0 min 0,0 UV-I 0 W/m 5,7 C 1,1 C 25,7 km/h (4 Bft)
16.02.2023 23:12 6,9 C 6,1 C 92 % 1025,4 hPa 0,0 l/m 16,4 km/h (3 Bft) S-SW 200 0 min 0,0 UV-I 0 W/m 5,7 C 0,7 C 27,4 km/h (4 Bft)
16.02.2023 23:15 6,9 C 6,1 C 92 % 1025,5 hPa 0,0 l/m 13,3 km/h (3 Bft) S 180 0 min 0,0 UV-I 0 W/m 5,7 C 2,2 C 19,3 km/h (3 Bft)
16.02.2023 23:18 6,9 C 6,1 C 92 % 1025,4 hPa 0,0 l/m 12,3 km/h (3 Bft) S 182 0 min 0,0 UV-I 0 W/m 5,7 C 2,8 C 17,7 km/h (3 Bft)
16.02.2023 23:21 6,9 C 6,1 C 92 % 1025,5 hPa 0,0 l/m 15,6 km/h (3 Bft) S-SW 203 0 min 0,0 UV-I 0 W/m 5,7 C 1,1 C 25,7 km/h (4 Bft)
16.02.2023 23:24 6,9 C 6,1 C 92 % 1025,5 hPa 0,0 l/m 16,9 km/h (3 Bft) S-SW 209 0 min 0,0 UV-I 0 W/m 5,7 C 0,5 C 32,2 km/h (5 Bft)
16.02.2023 23:27 6,9 C 6,1 C 92 % 1025,5 hPa 0,0 l/m 12,2 km/h (2 Bft) SW 217 0 min 0,0 UV-I 0 W/m 5,7 C 2,8 C 22,5 km/h (4 Bft)
16.02.2023 23:30 6,9 C 6,1 C 92 % 1025,5 hPa 0,0 l/m 13,8 km/h (3 Bft) S 173 0 min 0,0 UV-I 0 W/m 5,7 C 2,0 C 19,3 km/h (3 Bft)
16.02.2023 23:33 6,9 C 6,1 C 92 % 1025,4 hPa 0,0 l/m 12,0 km/h (2 Bft) S 184 0 min 0,0 UV-I 0 W/m 5,7 C 2,9 C 20,9 km/h (4 Bft)
16.02.2023 23:36 6,9 C 6,1 C 92 % 1025,3 hPa 0,0 l/m 16,6 km/h (3 Bft) S 178 0 min 0,0 UV-I 0 W/m 5,7 C 0,6 C 29,0 km/h (5 Bft)
16.02.2023 23:39 6,9 C 6,1 C 92 % 1025,4 hPa 0,0 l/m 12,5 km/h (3 Bft) S 178 0 min 0,0 UV-I 0 W/m 5,7 C 2,7 C 19,3 km/h (3 Bft)
16.02.2023 23:42 7,0 C 6,1 C 92 % 1025,4 hPa 0,0 l/m 16,2 km/h (3 Bft) S-SW 213 0 min 0,0 UV-I 0 W/m 5,8 C 0,9 C 25,7 km/h (4 Bft)
16.02.2023 23:45 6,9 C 6,1 C 92 % 1025,4 hPa 0,0 l/m 18,1 km/h (3 Bft) S-SW 193 0 min 0,0 UV-I 0 W/m 5,7 C 0,0 C 29,0 km/h (5 Bft)
16.02.2023 23:48 7,0 C 6,1 C 92 % 1025,4 hPa 0,0 l/m 14,6 km/h (3 Bft) S 173 0 min 0,0 UV-I 0 W/m 5,8 C 1,7 C 25,7 km/h (4 Bft)
16.02.2023 23:51 6,9 C 6,1 C 92 % 1025,4 hPa 0,0 l/m 18,6 km/h (3 Bft) S-SO 161 0 min 0,0 UV-I 0 W/m 5,7 C -0,2 C 30,6 km/h (5 Bft)
16.02.2023 23:54 6,9 C 6,1 C 92 % 1025,3 hPa 0,0 l/m 18,2 km/h (3 Bft) SW 214 0 min 0,0 UV-I 0 W/m 5,7 C -0,0 C 29,0 km/h (5 Bft)
16.02.2023 23:57 6,9 C 6,1 C 92 % 1025,3 hPa 0,0 l/m 17,8 km/h (3 Bft) S-SW 194 0 min 0,0 UV-I 0 W/m 5,7 C 0,1 C 27,4 km/h (4 Bft)
16.02.2023 23:58 7,0 C 6,1 C 92 % 1025,3 hPa 0,0 l/m 17,7 km/h (3 Bft) S 180 0 min 0,0 UV-I 0 W/m 5,8 C 0,3 C 24,1 km/h (4 Bft)
16.02.2023 23:59 7,0 C 6,1 C 92 % 1025,3 hPa 0,0 l/m 16,1 km/h (3 Bft) S 180 0 min 0,0 UV-I 0 W/m 5,8 C 1,0 C 20,9 km/h (4 Bft)
_ Min-Zeit 06:55 05:19 00:43 22:48 - 00:00 - - - - - 06:53 09:39 00:00
Minimum _ -1,2 C -3,3 C 82 % 1025,3 hPa - 0,0 km/h (0 Bft) - - - - - -2,5 C -1,9 C 0,0 km/h (0 Bft)
_ Max-Zeit 15:33 15:36 08:21 00:01 20:30 21:54 - - 10:39 12:18 10:42 23:42 17:48 22:00
Maximum _ 7,8 C 12,2 C 92 % 1028,6 hPa 0,2 l/m 20,1 km/h
S (4 Bft)
- - 3 min 1,3 UV-I 322 W/m 5,8 C 5,9 C 33,8 km/h
S-SO (5 Bft)
Durchschnitt _ 4,2 C 3,4 C 87 % 1027,0 hPa #0,8 l/m 8,8 km/h (2 Bft) S-SW - #45 min. 0,8 UV-I 136 W/m 2,2 C 1,4 C 14,4 km/h (3 Bft)